[[{"header":{"parameterUnit":"m.s-1","parameterCategory":1,"la1":31.0,"la2":29.5877,"lo1":-88.7671,"lo2":-86.6584,"dy":0.0162,"dx":0.0185,"nx":115,"ny":88,"refTime":"2023-10-09T18:00:00:Z","depth":0,"parameterNumber":2,"parameterNumberName":"U-component_of_WINDS"},"data":[0.0,0.0,0.0,0.0,0.0,0.0,0.0,0.0,0.0,0.0,0.0,0.0,0.0,0.0,0.0,0.0,0.0,0.0,0.0,0.0,0.0,0.0,0.0,0.0,0.0,0.0,0.0,0.0,0.0,0.0,0.0,0.0,0.0,0.0,0.0,0.0,0.0,0.0,0.0,0.0,0.0,0.0,0.0,0.0,0.0,0.0,0.0,0.0,0.0,0.0,0.0,0.0,0.0,0.0,0.0,0.0,0.0,0.0,0.0,0.0,0.0,0.0,0.0,0.0,0.0,0.0,0.0,0.0,0.0,0.0,0.0,0.0,0.0,0.0,0.0,0.0,0.0,0.0,0.0,0.0,0.0,0.0,0.0,0.0,0.0,0.0,0.0,0.0,0.0,0.0,0.0,0.0,0.0,0.0,0.0,0.0,0.0,0.0,0.0,0.0,0.0,0.0,0.0,0.0,0.0,0.0,0.0,0.0,0.0,0.0,0.0,0.0,0.0,0.0,0.0,0.0,0.0,0.0,0.0,0.0,0.0,0.0,0.0,0.0,0.0,0.0,0.0,0.0,0.0,0.0,0.0,0.0,0.0,0.0,0.0,0.0,0.0,0.0,0.0,0.0,0.0,0.0,0.0,0.0,0.0,0.0,0.0,0.0,0.0,0.0,0.0,0.0,0.0,0.0,0.0,0.0,0.0,0.0,0.0,0.0,0.0,0.0,0.0,0.0,0.0,0.0,0.0,0.0,0.0,0.0,0.0,0.0,0.0,0.0,0.0,0.0,0.0,0.0,0.0,0.0,0.0,0.0,0.0,0.0,0.0,0.0,0.0,0.0,0.0,0.0,0.0,0.0,0.0,0.0,0.0,0.0,0.0,0.0,0.0,0.0,0.0,0.0,0.0,0.0,0.0,0.0,0.0,0.0,0.0,0.0,0.0,0.0,0.0,0.0,0.0,0.0,0.0,0.0,0.0,0.0,0.0,0.0,0.0,0.0,0.0,0.0,0.0,0.0,0.0,0.0,0.0,0.0,0.0,0.0,0.0,0.0,0.0,0.0,0.0,0.0,0.0,0.0,0.0,0.0,0.0,0.0,0.0,0.0,0.0,0.0,0.0,0.0,0.0,0.0,0.0,0.0,0.0,0.0,0.0,0.0,0.0,0.0,0.0,0.0,0.0,0.0,0.0,0.0,0.0,0.0,0.0,0.0,0.0,0.0,0.0,0.0,0.0,0.0,0.0,0.0,0.0,0.0,0.0,0.0,0.0,0.0,0.0,0.0,0.0,0.0,0.0,0.0,0.0,0.0,0.0,0.0,0.0,0.0,0.0,0.0,0.0,0.0,0.0,0.0,0.0,0.0,0.0,0.0,0.0,0.0,0.0,0.0,0.0,0.0,0.0,0.0,0.0,0.0,0.0,0.0,0.0,0.0,0.0,0.0,0.0,0.0,0.0,0.0,0.0,0.0,0.0,0.0,0.0,0.0,0.0,0.0,0.0,0.0,0.0,0.0,0.0,0.0,0.0,0.0,0.0,0.0,0.0,0.0,0.0,0.0,0.0,0.0,0.0,0.0,0.0,0.0,0.0,0.0,0.0,0.0,0.0,0.0,0.0,0.0,0.0,0.0,0.0,0.0,0.0,0.0,0.0,0.0,0.0,0.0,0.0,0.0,0.0,0.0,0.0,0.0,0.0,0.0,0.0,0.0,0.0,0.0,0.0,0.0,0.0,0.0,0.0,0.0,0.0,0.0,0.0,0.0,0.0,0.0,0.0,0.0,0.0,0.0,0.0,0.0,0.0,0.0,0.0,0.0,0.0,0.0,0.0,0.0,0.0,0.0,0.0,0.0,0.0,0.0,0.0,0.0,0.0,0.0,0.0,0.0,0.0,0.0,0.0,0.0,0.0,0.0,0.0,0.0,0.0,0.0,0.0,0.0,0.0,0.0,0.0,0.0,0.0,0.0,0.0,0.0,0.0,0.0,0.0,0.0,0.0,0.0,0.0,0.0,0.0,0.0,0.0,0.0,0.0,0.0,0.0,0.0,0.0,0.0,0.0,0.0,0.0,0.0,0.0,0.0,0.0,0.0,0.0,0.0,0.0,0.0,0.0,0.0,0.0,0.0,0.0,0.0,0.0,0.0,0.0,0.0,0.0,0.0,0.0,0.0,0.0,0.0,0.0,0.0,0.0,0.0,0.0,0.0,0.0,0.0,0.0,0.0,0.0,0.0,0.0,0.0,0.0,0.0,0.0,0.0,0.0,0.0,0.0,0.0,0.0,0.0,0.0,0.0,0.0,0.0,0.0,0.0,0.0,0.0,0.0,0.0,0.0,0.0,0.0,0.0,0.0,0.0,0.0,0.0,0.0,0.0,0.0,0.0,0.0,0.0,0.0,0.0,0.0,0.0,0.0,0.0,0.0,0.0,0.0,0.0,0.0,0.0,0.0,0.0,0.0,0.0,0.0,0.0,0.0,0.0,0.0,0.0,0.0,0.0,0.0,0.0,0.0,0.0,0.0,0.0,0.0,0.0,0.0,0.0,0.0,0.0,0.0,0.0,0.0,0.0,0.0,0.0,0.0,0.0,0.0,0.0,0.0,0.0,0.0,0.0,0.0,0.0,0.0,0.0,0.0,0.0,0.0,0.0,0.0,0.0,0.0,0.0,0.0,0.0,0.0,0.0,0.0,0.0,0.0,0.0,0.0,0.0,0.0,0.0,0.0,0.0,0.0,0.0,0.0,0.0,0.0,0.0,0.0,0.0,0.0,0.0,0.0,0.0,0.0,0.0,0.0,0.0,0.0,0.0,0.0,0.0,0.0,0.0,0.0,0.0,0.0,0.0,0.0,0.0,0.0,0.0,0.0,0.0,0.0,0.0,0.0,0.0,0.0,0.0,0.0,0.0,0.0,0.0,0.0,0.0,0.0,0.0,0.0,0.0,0.0,0.0,0.0,0.0,0.0,0.0,0.0,0.0,0.0,0.0,0.0,0.0,0.0,0.0,0.0,0.0,0.0,0.0,0.0,0.0,0.0,0.0,0.0,0.0,0.0,0.0,0.0,0.0,0.0,0.0,0.0,0.0,0.0,0.0,0.0,0.0,0.0,0.0,0.0,0.0,0.0,0.0,0.0,0.0,0.0,0.0,0.0,0.0,0.0,0.0,0.0,0.0,0.0,0.0,0.0,0.0,0.0,0.0,0.0,0.0,0.0,0.0,0.0,0.0,0.0,0.0,0.0,0.0,0.0,0.0,0.0,0.0,0.0,0.0,0.0,0.0,0.0,0.0,0.0,0.0,0.0,0.0,0.0,0.0,0.0,0.0,0.0,0.0,0.0,0.0,0.0,0.0,0.0,0.0,0.0,0.0,0.0,0.0,0.0,0.0,0.0,0.0,0.0,0.0,0.0,0.0,0.0,0.0,0.0,0.0,0.0,0.0,0.0,0.0,0.0,0.0,0.0,0.0,0.0,0.0,0.0,0.0,0.0,0.0,0.0,0.0,0.0,0.0,0.0,0.0,0.0,0.0,0.0,0.0,0.0,0.0,0.0,0.0,0.0,0.0,0.0,0.0,0.0,0.0,0.0,0.0,0.0,0.0,0.0,0.0,0.0,0.0,0.0,0.0,0.0,0.0,0.0,0.0,0.0,0.0,0.0,0.0,0.0,0.0,0.0,0.0,0.0,0.0,0.0,0.0,0.0,0.0,0.0,0.0,0.0,0.0,0.0,0.0,0.0,0.0,0.0,0.0,0.0,0.0,0.0,0.0,0.0,0.0,0.0,0.0,0.0,0.0,0.0,0.0,0.0,0.0,0.0,0.0,0.0,0.0,0.0,0.0,0.0,0.0,0.0,0.0,0.0,0.0,0.0,0.0,0.0,0.0,0.0,0.0,0.0,0.0,0.0,0.0,0.0,0.0,0.0,0.0,0.0,0.0,0.0,0.0,0.0,0.0,0.0,0.0,0.0,0.0,0.0,0.0,0.0,0.0,0.0,0.0,0.0,0.0,0.0,0.0,0.0,0.0,0.0,0.0,0.0,0.0,0.0,0.0,0.0,0.0,0.0,0.0,0.0,0.0,0.0,0.0,0.0,0.0,0.0,0.0,0.0,0.0,0.0,0.0,0.0,0.0,0.0,0.0,0.0,0.0,0.0,0.0,0.0,0.0,0.0,0.0,0.0,0.0,0.0,0.0,0.0,0.0,0.0,0.0,0.0,0.0,0.0,0.0,0.0,0.0,0.0,0.0,0.0,0.0,0.0,0.0,0.0,0.0,0.0,0.0,0.0,0.0,-1.0015,0.0,0.0,0.0,0.0,0.0,0.0,0.0,0.0,0.0,0.0,0.0,0.0,0.0,0.0,0.0,0.0,0.0,0.0,0.0,0.0,0.0,0.0,0.0,0.0,0.0,0.0,0.0,0.0,0.0,0.0,0.0,0.0,0.0,0.0,0.0,0.0,0.0,0.0,0.0,0.0,0.0,0.0,0.0,0.0,0.0,0.0,0.0,0.0,0.0,0.0,0.0,0.0,0.0,0.0,0.0,0.0,0.0,0.0,0.0,0.0,0.0,0.0,0.0,0.0,0.0,0.0,0.0,0.0,0.0,0.0,0.0,0.0,0.0,0.0,0.0,0.0,0.0,0.0,0.0,0.0,0.0,0.0,0.0,0.0,0.0,0.0,0.0,0.0,0.0,0.0,0.0,0.0,0.0,0.0,0.0,0.0,0.0,0.0,0.0,0.0,0.0,0.0,0.0,0.0,0.0,0.0,0.0,0.0,0.0,0.0,-1.0839,-1.0744,-1.0713,-1.0586,-1.0333,0.0,0.0,0.0,0.0,0.0,0.0,0.0,0.0,0.0,0.0,0.0,0.0,0.0,0.0,0.0,0.0,0.0,0.0,0.0,0.0,0.0,0.0,0.0,0.0,0.0,0.0,0.0,0.0,0.0,0.0,0.0,0.0,0.0,0.0,0.0,0.0,0.0,0.0,0.0,0.0,0.0,0.0,0.0,0.0,0.0,0.0,0.0,0.0,0.0,0.0,0.0,0.0,0.0,0.0,0.0,0.0,0.0,0.0,0.0,0.0,0.0,0.0,0.0,0.0,0.0,0.0,0.0,0.0,0.0,0.0,0.0,0.0,0.0,0.0,0.0,0.0,0.0,0.0,0.0,0.0,0.0,0.0,0.0,0.0,0.0,0.0,0.0,0.0,0.0,0.0,0.0,0.0,0.0,0.0,0.0,0.0,0.0,0.0,0.0,0.0,0.0,0.0,0.0,0.0,0.0,0.0,0.0,0.0,0.0,0.0,0.0,0.0,-1.109,-1.0933,-1.0586,0.0,0.0,0.0,0.0,0.0,0.0,0.0,0.0,0.0,0.0,0.0,0.0,0.0,0.0,0.0,0.0,0.0,0.0,0.0,0.0,0.0,0.0,0.0,0.0,0.0,0.0,0.0,0.0,0.0,0.0,0.0,0.0,0.0,0.0,0.0,0.0,0.0,0.0,0.0,0.0,0.0,0.0,0.0,0.0,0.0,0.0,0.0,0.0,0.0,0.0,0.0,0.0,0.0,0.0,0.0,0.0,0.0,0.0,0.0,0.0,0.0,0.0,0.0,0.0,0.0,0.0,0.0,0.0,0.0,0.0,0.0,0.0,0.0,0.0,0.0,0.0,0.0,0.0,0.0,0.0,0.0,0.0,0.0,0.0,0.0,0.0,0.0,0.0,0.0,0.0,0.0,0.0,0.0,0.0,0.0,0.0,0.0,0.0,0.0,0.0,0.0,0.0,0.0,0.0,0.0,0.0,0.0,0.0,0.0,0.0,-1.109,-1.109,-1.109,0.0,-1.0631,0.0,0.0,0.0,0.0,0.0,0.0,0.0,0.0,0.0,0.0,0.0,0.0,0.0,0.0,0.0,0.0,0.0,0.0,0.0,0.0,0.0,0.0,0.0,0.0,0.0,0.0,0.0,0.0,0.0,0.0,0.0,0.0,0.0,0.0,0.0,0.0,0.0,0.0,0.0,0.0,0.0,0.0,0.0,0.0,0.0,0.0,0.0,0.0,0.0,0.0,0.0,0.0,0.0,0.0,0.0,0.0,0.0,0.0,0.0,0.0,0.0,0.0,0.0,0.0,0.0,0.0,0.0,0.0,0.0,0.0,0.0,0.0,0.0,0.0,0.0,0.0,0.0,0.0,0.0,0.0,0.0,0.0,0.0,0.0,0.0,0.0,0.0,0.0,0.0,0.0,0.0,0.0,0.0,0.0,0.0,0.0,0.0,0.0,0.0,0.0,0.0,0.0,0.0,0.0,0.0,0.0,0.0,0.0,0.0,0.0,-1.1685,-1.1685,-1.131,-1.1028,0.0,0.0,0.0,0.0,0.0,0.0,0.0,0.0,0.0,0.0,0.0,0.0,0.0,0.0,0.0,0.0,0.0,0.0,0.0,0.0,0.0,0.0,0.0,0.0,0.0,0.0,0.0,0.0,0.0,0.0,0.0,0.0,0.0,0.0,0.0,0.0,0.0,0.0,0.0,0.0,0.0,0.0,0.0,0.0,0.0,0.0,0.0,0.0,0.0,0.0,0.0,0.0,0.0,0.0,0.0,0.0,0.0,0.0,0.0,0.0,0.0,0.0,0.0,0.0,0.0,0.0,0.0,0.0,0.0,0.0,0.0,0.0,0.0,0.0,0.0,0.0,0.0,0.0,0.0,0.0,0.0,0.0,0.0,0.0,0.0,0.0,0.0,0.0,0.0,0.0,0.0,0.0,0.0,0.0,0.0,0.0,0.0,0.0,0.0,0.0,0.0,0.0,0.0,0.0,0.0,0.0,0.0,0.0,0.0,0.0,-1.2089,-1.2089,-1.2058,-1.1622,-1.1341,-1.1247,0.0,0.0,0.0,0.0,0.0,0.0,0.0,0.0,0.0,0.0,0.0,0.0,0.0,0.0,0.0,0.0,0.0,0.0,0.0,0.0,0.0,0.0,0.0,0.0,0.0,0.0,0.0,0.0,0.0,0.0,0.0,0.0,0.0,0.0,0.0,0.0,0.0,0.0,0.0,0.0,0.0,0.0,0.0,0.0,0.0,0.0,0.0,0.0,0.0,0.0,0.0,0.0,0.0,0.0,0.0,0.0,0.0,0.0,0.0,0.0,0.0,0.0,0.0,0.0,0.0,0.0,0.0,0.0,0.0,0.0,0.0,0.0,0.0,0.0,0.0,0.0,0.0,0.0,0.0,0.0,0.0,0.0,0.0,0.0,0.0,0.0,0.0,0.0,0.0,0.0,0.0,0.0,0.0,0.0,0.0,0.0,0.0,0.0,0.0,0.0,0.0,0.0,0.0,0.0,0.0,0.0,0.0,0.0,-1.2089,-1.2104,-1.2104,-1.2104,-1.2058,-1.1903,0.0,0.0,0.0,0.0,0.0,0.0,0.0,0.0,0.0,0.0,0.0,0.0,0.0,0.0,0.0,0.0,0.0,0.0,0.0,0.0,0.0,0.0,0.0,0.0,0.0,0.0,0.0,0.0,0.0,0.0,0.0,0.0,0.0,0.0,0.0,0.0,0.0,0.0,0.0,0.0,0.0,0.0,0.0,0.0,0.0,0.0,0.0,0.0,0.0,0.0,0.0,0.0,0.0,0.0,0.0,0.0,0.0,0.0,0.0,0.0,0.0,0.0,0.0,0.0,0.0,0.0,0.0,0.0,0.0,0.0,0.0,0.0,0.0,0.0,0.0,0.0,0.0,0.0,0.0,0.0,0.0,0.0,0.0,0.0,0.0,0.0,0.0,0.0,0.0,0.0,0.0,0.0,0.0,0.0,0.0,0.0,0.0,0.0,0.0,0.0,0.0,0.0,0.0,0.0,0.0,0.0,0.0,0.0,0.0,-1.2413,-1.2492,-1.2616,-1.2743,-1.2553,-1.2192,0.0,0.0,0.0,0.0,0.0,0.0,0.0,0.0,0.0,0.0,0.0,0.0,0.0,0.0,0.0,0.0,0.0,0.0,0.0,0.0,0.0,0.0,0.0,0.0,0.0,0.0,0.0,0.0,0.0,0.0,0.0,0.0,0.0,0.0,0.0,0.0,0.0,0.0,0.0,0.0,0.0,0.0,0.0,0.0,0.0,0.0,0.0,0.0,0.0,0.0,0.0,0.0,0.0,0.0,0.0,0.0,0.0,0.0,0.0,0.0,0.0,0.0,0.0,0.0,0.0,0.0,0.0,0.0,0.0,0.0,0.0,0.0,0.0,0.0,0.0,0.0,0.0,0.0,0.0,0.0,0.0,0.0,0.0,0.0,0.0,0.0,0.0,0.0,0.0,0.0,0.0,0.0,0.0,0.0,0.0,0.0,0.0,0.0,0.0,0.0,0.0,0.0,0.0,0.0,0.0,0.0,0.0,0.0,0.0,-1.3027,0.0,-1.3316,-1.3461,-1.3218,-1.2819,0.0,0.0,0.0,0.0,0.0,0.0,0.0,0.0,0.0,0.0,0.0,0.0,0.0,0.0,0.0,0.0,0.0,0.0,0.0,0.0,0.0,0.0,0.0,0.0,0.0,0.0,0.0,0.0,0.0,0.0,0.0,0.0,0.0,0.0,0.0,0.0,0.0,0.0,0.0,0.0,0.0,0.0,0.0,0.0,0.0,0.0,0.0,0.0,0.0,0.0,0.0,0.0,0.0,0.0,0.0,0.0,0.0,0.0,0.0,0.0,0.0,0.0,0.0,0.0,0.0,0.0,0.0,0.0,0.0,0.0,0.0,0.0,0.0,0.0,0.0,0.0,0.0,0.0,0.0,0.0,0.0,0.0,0.0,0.0,0.0,0.0,0.0,0.0,0.0,0.0,0.0,0.0,0.0,0.0,0.0,0.0,0.0,0.0,0.0,0.0,0.0,0.0,0.0,0.0,0.0,0.0,0.0,0.0,-1.3542,-1.3883,-1.4082,-1.4214,-1.4231,-1.4214,-1.3786,0.0,0.0,0.0,0.0,0.0,0.0,0.0,0.0,0.0,0.0,0.0,0.0,0.0,0.0,0.0,0.0,0.0,0.0,0.0,0.0,0.0,0.0,0.0,0.0,0.0,0.0,0.0,0.0,0.0,0.0,0.0,0.0,0.0,0.0,0.0,0.0,0.0,0.0,0.0,0.0,0.0,0.0,0.0,0.0,0.0,0.0,0.0,0.0,0.0,0.0,0.0,0.0,0.0,0.0,0.0,0.0,0.0,0.0,0.0,0.0,0.0,0.0,0.0,0.0,0.0,0.0,0.0,0.0,0.0,0.0,0.0,0.0,0.0,0.0,0.0,0.0,0.0,0.0,0.0,0.0,0.0,0.0,0.0,0.0,0.0,0.0,0.0,0.0,0.0,0.0,0.0,0.0,0.0,0.0,0.0,0.0,0.0,0.0,0.0,0.0,0.0,0.0,0.0,0.0,0.0,0.0,0.0,0.0,0.0,-1.4471,-1.463,-1.492,-1.5273,-1.5093,-1.4675,0.0,0.0,0.0,0.0,0.0,0.0,0.0,0.0,0.0,0.0,0.0,0.0,0.0,0.0,0.0,0.0,0.0,0.0,0.0,0.0,0.0,0.0,0.0,0.0,0.0,0.0,0.0,0.0,0.0,0.0,0.0,0.0,0.0,0.0,0.0,0.0,0.0,0.0,0.0,0.0,0.0,0.0,0.0,0.0,0.0,0.0,0.0,0.0,0.0,0.0,0.0,0.0,0.0,0.0,0.0,0.0,0.0,0.0,0.0,0.0,0.0,0.0,0.0,0.0,0.0,0.0,0.0,0.0,0.0,0.0,0.0,0.0,0.0,0.0,0.0,0.0,0.0,0.0,0.0,0.0,0.0,0.0,0.0,0.0,0.0,0.0,0.0,0.0,0.0,0.0,0.0,0.0,0.0,0.0,0.0,0.0,0.0,0.0,0.0,0.0,0.0,0.0,0.0,0.0,0.0,0.0,0.0,0.0,0.0,-1.6308,-1.6225,-1.6339,-1.6689,-1.6368,-1.5745,-1.4839,0.0,0.0,0.0,0.0,0.0,0.0,0.0,0.0,0.0,0.0,0.0,0.0,0.0,0.0,0.0,0.0,0.0,0.0,0.0,0.0,0.0,0.0,0.0,0.0,0.0,0.0,0.0,0.0,0.0,0.0,0.0,0.0,0.0,0.0,0.0,0.0,0.0,0.0,0.0,0.0,0.0,0.0,0.0,0.0,0.0,0.0,0.0,0.0,0.0,0.0,0.0,0.0,0.0,0.0,0.0,0.0,0.0,0.0,0.0,0.0,0.0,0.0,0.0,0.0,0.0,0.0,0.0,0.0,0.0,0.0,0.0,0.0,0.0,0.0,0.0,0.0,0.0,0.0,0.0,0.0,0.0,0.0,0.0,0.0,0.0,0.0,0.0,0.0,0.0,0.0,0.0,0.0,0.0,0.0,0.0,0.0,0.0,0.0,0.0,0.0,0.0,0.0,0.0,0.0,0.0,0.0,0.0,0.0,-1.9223,-1.8754,-1.8458,-1.8365,-1.7917,-1.6979,0.0,0.0,0.0,0.0,0.0,0.0,0.0,0.0,0.0,0.0,0.0,0.0,0.0,0.0,0.0,0.0,0.0,0.0,0.0,0.0,0.0,0.0,0.0,0.0,0.0,0.0,0.0,0.0,0.0,0.0,0.0,0.0,0.0,0.0,0.0,0.0,0.0,0.0,0.0,0.0,0.0,0.0,0.0,0.0,0.0,0.0,0.0,0.0,0.0,0.0,0.0,0.0,0.0,0.0,0.0,0.0,0.0,0.0,0.0,0.0,0.0,0.0,0.0,0.0,0.0,0.0,0.0,0.0,0.0,0.0,0.0,0.0,0.0,0.0,0.0,0.0,0.0,0.0,0.0,0.0,0.0,0.0,0.0,0.0,0.0,0.0,0.0,0.0,0.0,0.0,0.0,0.0,0.0,0.0,0.0,0.0,0.0,0.0,0.0,0.0,0.0,0.0,0.0,0.0,0.0,0.0,0.0,0.0,0.0,-2.0745,-2.1503,-2.141,-2.0418,-1.9293,-1.8246,0.0,0.0,0.0,0.0,0.0,0.0,0.0,0.0,0.0,0.0,0.0,0.0,0.0,0.0,0.0,0.0,0.0,0.0,0.0,0.0,0.0,0.0,0.0,0.0,0.0,0.0,0.0,0.0,0.0,0.0,0.0,0.0,0.0,0.0,0.0,0.0,0.0,0.0,0.0,0.0,0.0,0.0,0.0,0.0,0.0,0.0,0.0,0.0,0.0,0.0,0.0,0.0,0.0,0.0,0.0,0.0,0.0,0.0,0.0,0.0,0.0,0.0,0.0,0.0,0.0,0.0,0.0,0.0,0.0,0.0,0.0,0.0,0.0,0.0,0.0,0.0,0.0,0.0,0.0,0.0,0.0,0.0,0.0,0.0,0.0,0.0,0.0,0.0,0.0,0.0,0.0,0.0,0.0,0.0,0.0,0.0,0.0,0.0,0.0,0.0,0.0,0.0,0.0,0.0,0.0,0.0,0.0,0.0,-2.0186,-2.1798,-2.3275,-2.3626,-2.2832,-2.0851,-1.9186,0.0,0.0,0.0,0.0,0.0,0.0,0.0,0.0,0.0,0.0,0.0,0.0,0.0,0.0,0.0,0.0,0.0,0.0,0.0,0.0,0.0,0.0,0.0,0.0,0.0,0.0,0.0,0.0,0.0,0.0,0.0,0.0,0.0,0.0,0.0,0.0,0.0,0.0,0.0,0.0,0.0,0.0,0.0,0.0,0.0,0.0,0.0,0.0,0.0,0.0,0.0,0.0,0.0,0.0,0.0,0.0,0.0,0.0,0.0,0.0,0.0,0.0,0.0,0.0,0.0,0.0,0.0,0.0,0.0,0.0,0.0,0.0,0.0,0.0,0.0,0.0,0.0,0.0,0.0,0.0,0.0,0.0,0.0,0.0,0.0,0.0,0.0,0.0,0.0,0.0,0.0,0.0,0.0,0.0,0.0,0.0,0.0,0.0,0.0,0.0,0.0,0.0,0.0,0.0,0.0,0.0,0.0,0.0,-2.0982,-2.2447,-2.4173,-2.507,-2.4925,-2.2315,-2.0012,0.0,0.0,0.0,0.0,0.0,0.0,0.0,0.0,0.0,0.0,0.0,0.0,0.0,0.0,0.0,0.0,0.0,0.0,0.0,0.0,0.0,0.0,0.0,0.0,0.0,0.0,0.0,0.0,0.0,0.0,0.0,0.0,0.0,0.0,0.0,0.0,0.0,0.0,0.0,0.0,0.0,0.0,0.0,0.0,0.0,0.0,0.0,0.0,0.0,0.0,0.0,0.0,0.0,0.0,0.0,0.0,0.0,0.0,0.0,0.0,0.0,0.0,0.0,0.0,0.0,0.0,0.0,0.0,0.0,0.0,0.0,0.0,0.0,0.0,0.0,0.0,0.0,0.0,0.0,0.0,0.0,0.0,0.0,0.0,0.0,0.0,0.0,0.0,0.0,0.0,0.0,0.0,0.0,0.0,0.0,0.0,0.0,0.0,0.0,0.0,0.0,0.0,0.0,0.0,0.0,0.0,0.0,0.0,-2.1247,-2.2823,-2.4229,-2.4783,-2.446,-2.2732,-2.1119,0.0,0.0,0.0,0.0,0.0,0.0,0.0,0.0,0.0,0.0,0.0,0.0,0.0,0.0,0.0,0.0,0.0,0.0,0.0,0.0,0.0,0.0,0.0,0.0,0.0,0.0,0.0,0.0,0.0,0.0,0.0,0.0,0.0,0.0,0.0,0.0,0.0,0.0,0.0,0.0,0.0,0.0,0.0,0.0,0.0,0.0,0.0,0.0,-1.0175,0.0,0.0,0.0,0.0,0.0,0.0,0.0,0.0,0.0,0.0,0.0,0.0,0.0,0.0,0.0,0.0,0.0,0.0,0.0,0.0,0.0,0.0,0.0,0.0,0.0,0.0,0.0,0.0,0.0,0.0,0.0,0.0,0.0,0.0,0.0,0.0,0.0,0.0,0.0,0.0,0.0,0.0,0.0,0.0,0.0,0.0,0.0,0.0,0.0,0.0,0.0,0.0,0.0,0.0,0.0,0.0,0.0,0.0,0.0,-2.1454,-2.297,-2.4264,-2.4703,-2.4287,-2.313,-2.1726,0.0,0.0,0.0,0.0,0.0,0.0,0.0,0.0,0.0,0.0,0.0,0.0,0.0,0.0,0.0,0.0,0.0,0.0,0.0,0.0,0.0,0.0,0.0,0.0,0.0,0.0,0.0,0.0,0.0,0.0,0.0,0.0,0.0,0.0,0.0,0.0,0.0,0.0,0.0,0.0,0.0,0.0,0.0,0.0,0.0,0.0,0.0,0.0,0.0,0.0,0.0,0.0,0.0,0.0,0.0,0.0,0.0,0.0,0.0,0.0,0.0,0.0,0.0,0.0,0.0,0.0,0.0,0.0,0.0,0.0,0.0,0.0,0.0,0.0,0.0,0.0,0.0,0.0,0.0,0.0,0.0,0.0,0.0,0.0,0.0,0.0,0.0,0.0,0.0,0.0,0.0,0.0,0.0,0.0,0.0,0.0,0.0,0.0,0.0,0.0,0.0,0.0,0.0,0.0,0.0,0.0,0.0,-1.9895,-2.1608,-2.3128,-2.4253,-2.4624,-2.4285,-2.337,-2.2016,-2.0118,0.0,0.0,0.0,0.0,0.0,0.0,0.0,0.0,0.0,0.0,0.0,0.0,0.0,0.0,0.0,0.0,0.0,0.0,0.0,0.0,0.0,0.0,0.0,0.0,0.0,0.0,0.0,0.0,0.0,0.0,0.0,0.0,0.0,0.0,0.0,0.0,0.0,0.0,-0.852,-0.9085,0.0,0.0,0.0,0.0,0.0,0.0,0.0,0.0,-1.1881,0.0,0.0,0.0,0.0,0.0,0.0,0.0,0.0,0.0,0.0,0.0,0.0,0.0,0.0,0.0,0.0,0.0,0.0,0.0,0.0,0.0,0.0,0.0,0.0,0.0,0.0,0.0,0.0,0.0,0.0,0.0,0.0,0.0,0.0,0.0,0.0,0.0,0.0,0.0,0.0,0.0,0.0,0.0,0.0,0.0,0.0,0.0,0.0,0.0,0.0,0.0,0.0,0.0,0.0,0.0,0.0,-1.9154,-1.9983,-2.1513,-2.3677,-2.411,-2.4264,-2.419,-2.2991,-2.1695,-2.0373,0.0,0.0,0.0,0.0,0.0,0.0,0.0,0.0,0.0,0.0,0.0,0.0,0.0,0.0,0.0,0.0,0.0,0.0,0.0,0.0,0.0,0.0,0.0,0.0,0.0,0.0,0.0,0.0,0.0,0.0,0.0,0.0,0.0,0.0,0.0,0.0,0.0,0.0,0.0,-0.9938,-1.0448,0.0,0.0,0.0,0.0,0.0,0.0,0.0,0.0,-1.3276,0.0,0.0,0.0,0.0,0.0,0.0,0.0,0.0,0.0,0.0,0.0,0.0,0.0,0.0,0.0,0.0,0.0,0.0,0.0,0.0,0.0,0.0,0.0,0.0,0.0,0.0,0.0,0.0,0.0,0.0,0.0,0.0,0.0,0.0,0.0,0.0,0.0,0.0,0.0,0.0,0.0,0.0,0.0,0.0,0.0,0.0,0.0,0.0,0.0,0.0,0.0,0.0,0.0,0.0,0.0,-1.9535,-2.0802,-2.2188,-2.3643,-2.4049,-2.411,-2.384,-2.2631,-2.1287,0.0,0.0,0.0,0.0,0.0,0.0,0.0,0.0,0.0,0.0,0.0,0.0,0.0,0.0,0.0,0.0,0.0,0.0,0.0,0.0,0.0,0.0,0.0,0.0,0.0,0.0,0.0,0.0,0.0,0.0,0.0,0.0,0.0,0.0,0.0,0.0,0.0,0.0,0.0,0.0,-1.0782,-1.1312,-1.1887,0.0,0.0,0.0,0.0,0.0,0.0,-1.4539,-1.5231,0.0,0.0,0.0,0.0,0.0,0.0,0.0,0.0,0.0,0.0,0.0,0.0,0.0,0.0,0.0,0.0,0.0,0.0,0.0,0.0,0.0,0.0,0.0,0.0,0.0,0.0,0.0,0.0,0.0,0.0,0.0,0.0,0.0,0.0,0.0,0.0,0.0,0.0,0.0,0.0,0.0,0.0,0.0,0.0,0.0,0.0,0.0,0.0,0.0,0.0,0.0,0.0,0.0,0.0,0.0,-1.9737,-2.1566,-2.2855,-2.3529,-2.3938,-2.3956,-2.3627,-2.232,-2.0896,0.0,0.0,0.0,0.0,0.0,0.0,0.0,0.0,0.0,0.0,0.0,0.0,0.0,0.0,0.0,0.0,0.0,0.0,0.0,0.0,0.0,0.0,0.0,0.0,0.0,0.0,0.0,0.0,0.0,0.0,0.0,0.0,0.0,0.0,0.0,0.0,0.0,0.0,0.0,0.0,0.0,-1.2092,-1.3012,-1.279,0.0,0.0,0.0,0.0,-1.4817,-1.6138,0.0,0.0,0.0,0.0,0.0,0.0,0.0,0.0,0.0,0.0,0.0,0.0,0.0,0.0,0.0,0.0,0.0,0.0,0.0,0.0,0.0,0.0,0.0,0.0,0.0,0.0,0.0,0.0,0.0,0.0,0.0,0.0,0.0,0.0,0.0,0.0,0.0,0.0,0.0,0.0,0.0,0.0,0.0,0.0,0.0,0.0,0.0,0.0,0.0,0.0,0.0,0.0,0.0,0.0,0.0,0.0,-1.9901,-2.1607,-2.293,-2.3714,-2.3836,-2.3935,-2.4079,-2.1959,-2.0612,0.0,0.0,0.0,0.0,0.0,0.0,0.0,0.0,0.0,0.0,0.0,0.0,0.0,0.0,0.0,0.0,0.0,0.0,0.0,0.0,0.0,0.0,0.0,0.0,0.0,0.0,0.0,0.0,0.0,0.0,0.0,0.0,0.0,0.0,0.0,0.0,0.0,0.0,0.0,0.0,0.0,-1.2757,-1.3497,-1.3486,-1.3764,0.0,0.0,-1.5635,-1.6815,-1.7699,0.0,0.0,0.0,0.0,0.0,0.0,0.0,0.0,0.0,0.0,0.0,0.0,0.0,0.0,0.0,0.0,0.0,0.0,0.0,0.0,0.0,0.0,0.0,0.0,0.0,0.0,0.0,0.0,0.0,0.0,0.0,0.0,0.0,0.0,0.0,0.0,0.0,0.0,0.0,0.0,0.0,0.0,0.0,0.0,0.0,0.0,0.0,0.0,0.0,0.0,0.0,0.0,0.0,0.0,0.0,-1.9062,-2.0006,-2.195,-2.3178,-2.3538,-2.3555,-2.3655,-2.3737,-2.1642,-2.0313,0.0,0.0,0.0,0.0,0.0,0.0,0.0,0.0,0.0,0.0,0.0,0.0,0.0,0.0,0.0,0.0,0.0,0.0,0.0,0.0,0.0,0.0,0.0,0.0,0.0,0.0,0.0,0.0,0.0,0.0,0.0,0.0,0.0,0.0,0.0,0.0,0.0,0.0,0.0,0.0,0.0,0.0,-1.4581,-1.4831,0.0,0.0,0.0,-1.7383,-1.7883,0.0,0.0,0.0,0.0,0.0,0.0,0.0,0.0,0.0,0.0,0.0,0.0,0.0,0.0,0.0,0.0,0.0,0.0,0.0,0.0,0.0,0.0,0.0,0.0,0.0,0.0,0.0,0.0,0.0,0.0,0.0,0.0,0.0,0.0,0.0,0.0,0.0,0.0,0.0,0.0,0.0,0.0,0.0,0.0,0.0,0.0,0.0,0.0,0.0,0.0,0.0,0.0,0.0,0.0,0.0,0.0,0.0,-1.9941,-2.2191,-2.3338,-2.3306,-2.3306,-2.3356,-2.3388,-2.1612,0.0,0.0,0.0,0.0,0.0,0.0,0.0,0.0,0.0,0.0,0.0,0.0,0.0,0.0,0.0,0.0,0.0,0.0,0.0,0.0,0.0,0.0,0.0,0.0,0.0,0.0,0.0,-1.4462,0.0,0.0,0.0,0.0,0.0,0.0,0.0,0.0,0.0,0.0,0.0,0.0,0.0,0.0,-1.457,-1.5356,-1.5727,-1.6494,0.0,0.0,-1.9038,-1.971,-2.039,-2.0863,0.0,0.0,0.0,0.0,0.0,0.0,0.0,0.0,0.0,0.0,0.0,0.0,0.0,0.0,0.0,0.0,0.0,0.0,0.0,0.0,0.0,0.0,0.0,0.0,0.0,0.0,0.0,0.0,0.0,0.0,0.0,0.0,0.0,0.0,0.0,0.0,0.0,0.0,0.0,0.0,0.0,0.0,0.0,0.0,0.0,0.0,0.0,0.0,0.0,0.0,0.0,0.0,0.0,0.0,-2.0209,-1.9714,-2.2092,-2.3306,-2.3055,-2.3038,-2.3155,-2.3338,-2.191,-2.0786,0.0,0.0,0.0,0.0,0.0,0.0,0.0,0.0,0.0,0.0,0.0,0.0,0.0,0.0,0.0,0.0,0.0,0.0,0.0,0.0,0.0,0.0,0.0,0.0,0.0,0.0,0.0,0.0,0.0,0.0,0.0,0.0,0.0,0.0,0.0,0.0,0.0,0.0,0.0,0.0,0.0,-1.5568,-1.5285,-1.5842,-1.7154,0.0,-1.9754,-2.0461,-2.2886,-2.2963,-2.2703,-2.2427,0.0,0.0,0.0,0.0,0.0,0.0,0.0,0.0,0.0,0.0,0.0,0.0,0.0,0.0,0.0,0.0,0.0,0.0,0.0,0.0,0.0,0.0,0.0,0.0,0.0,0.0,0.0,0.0,0.0,0.0,0.0,0.0,0.0,0.0,0.0,0.0,0.0,0.0,0.0,0.0,0.0,0.0,0.0,0.0,0.0,0.0,0.0,0.0,0.0,0.0,0.0,0.0,0.0,-1.9973,-1.9617,-2.2466,-2.3693,-2.3099,-2.3048,-2.3099,-2.3201,-2.1962,-2.0795,0.0,0.0,0.0,0.0,0.0,0.0,0.0,0.0,0.0,0.0,0.0,0.0,0.0,0.0,0.0,0.0,0.0,0.0,0.0,0.0,0.0,0.0,0.0,0.0,0.0,0.0,0.0,0.0,-1.8334,-1.8641,-1.8261,0.0,0.0,0.0,0.0,0.0,0.0,0.0,0.0,0.0,0.0,-1.8717,-1.9506,-1.9966,0.0,0.0,-2.2483,-2.2703,-2.3481,-2.3315,-2.2985,-2.2654,-2.2237,0.0,0.0,0.0,0.0,0.0,0.0,0.0,0.0,0.0,0.0,0.0,0.0,0.0,0.0,0.0,0.0,0.0,0.0,0.0,0.0,0.0,0.0,0.0,0.0,0.0,0.0,0.0,0.0,0.0,0.0,0.0,0.0,0.0,0.0,0.0,0.0,0.0,0.0,0.0,0.0,0.0,0.0,0.0,0.0,0.0,0.0,0.0,0.0,0.0,0.0,0.0,0.0,-2.0492,-2.0175,-2.2758,-2.3825,-2.3271,-2.3271,-2.322,-2.3065,-2.228,-2.1253,0.0,0.0,0.0,0.0,0.0,0.0,0.0,0.0,0.0,0.0,0.0,0.0,0.0,0.0,0.0,0.0,0.0,0.0,0.0,0.0,0.0,0.0,0.0,0.0,0.0,0.0,0.0,0.0,-1.9509,-1.9626,-1.9231,0.0,0.0,0.0,0.0,0.0,0.0,0.0,0.0,0.0,0.0,-2.1074,-2.1921,-2.2303,-2.2886,-2.3803,-2.3964,-2.396,-2.4138,-2.3912,-2.3594,-2.3356,0.0,0.0,0.0,0.0,0.0,0.0,0.0,0.0,0.0,0.0,0.0,0.0,0.0,0.0,0.0,0.0,0.0,0.0,0.0,0.0,0.0,0.0,0.0,0.0,0.0,0.0,0.0,-1.6714,0.0,0.0,-1.6689,0.0,0.0,0.0,0.0,0.0,0.0,0.0,0.0,0.0,0.0,0.0,0.0,0.0,0.0,0.0,0.0,0.0,0.0,0.0,0.0,0.0,0.0,-2.2131,-2.1404,-2.3011,-2.3754,-2.3754,-2.3701,-2.3546,-2.3151,-2.3048,-2.2401,-2.0931,0.0,0.0,0.0,0.0,0.0,0.0,0.0,0.0,0.0,0.0,0.0,0.0,0.0,0.0,0.0,0.0,0.0,0.0,0.0,0.0,0.0,0.0,0.0,0.0,0.0,0.0,-1.9488,-1.9552,-1.9633,0.0,0.0,0.0,0.0,0.0,0.0,0.0,0.0,0.0,0.0,-2.1964,-2.2258,-2.1469,-2.179,-2.2596,-2.3529,-2.3596,-2.4005,-2.5223,-2.5166,-2.4977,0.0,0.0,0.0,0.0,0.0,0.0,0.0,0.0,0.0,0.0,0.0,0.0,0.0,0.0,0.0,0.0,0.0,0.0,0.0,0.0,0.0,0.0,0.0,0.0,0.0,0.0,0.0,-1.9007,-1.932,0.0,0.0,0.0,0.0,0.0,0.0,0.0,0.0,0.0,0.0,0.0,-2.3384,-2.356,0.0,0.0,0.0,0.0,0.0,0.0,0.0,0.0,0.0,0.0,0.0,0.0,-2.3382,-2.3376,-2.5417,-2.6289,-2.5782,-2.5782,-2.541,-2.4686,-2.449,-2.3358,-2.1308,0.0,0.0,0.0,0.0,0.0,0.0,0.0,0.0,0.0,0.0,0.0,0.0,0.0,0.0,0.0,0.0,0.0,0.0,0.0,0.0,0.0,0.0,0.0,0.0,0.0,-2.0854,0.0,0.0,0.0,0.0,0.0,0.0,0.0,0.0,0.0,0.0,0.0,-2.256,-2.3578,-2.4027,-2.4319,-2.4468,-2.4624,-2.4949,0.0,0.0,0.0,0.0,0.0,0.0,0.0,0.0,0.0,0.0,0.0,0.0,0.0,0.0,-2.8649,-2.5901,-2.6133,-2.6921,-2.7741,0.0,0.0,0.0,0.0,0.0,0.0,0.0,0.0,0.0,0.0,0.0,0.0,0.0,0.0,-2.109,0.0,-2.1747,0.0,0.0,0.0,0.0,0.0,0.0,0.0,0.0,-2.4896,-2.5334,-2.5488,-2.5722,-2.5823,0.0,-2.6082,-2.5039,0.0,0.0,0.0,0.0,0.0,0.0,0.0,0.0,-2.4713,-2.5147,-2.7172,-2.8014,-2.753,-2.7476,-2.7149,-2.6461,-2.6109,-2.5176,-2.3618,-2.3289,-2.2299,0.0,0.0,0.0,0.0,0.0,0.0,0.0,0.0,0.0,0.0,0.0,0.0,0.0,0.0,0.0,0.0,0.0,0.0,0.0,0.0,0.0,0.0,0.0,-2.3134,0.0,0.0,0.0,0.0,0.0,0.0,0.0,0.0,0.0,-2.1971,-2.2942,-2.4014,-2.5051,-2.5446,-2.5698,-2.5867,0.0,0.0,0.0,0.0,0.0,0.0,0.0,-2.5448,-2.531,-2.5335,-2.5803,-2.7289,-2.8799,-2.9983,-3.0341,0.0,0.0,-2.81,-2.8276,-2.9106,-2.9924,-3.0127,-3.0253,-3.0696,-3.0942,-3.092,0.0,0.0,0.0,0.0,0.0,0.0,0.0,0.0,-2.2872,-2.2807,0.0,-2.3309,0.0,0.0,0.0,0.0,-2.4217,-2.5214,0.0,0.0,-2.7812,-2.8523,-2.7861,-2.7793,-2.7931,-2.8371,-2.7748,-2.7341,-2.7216,-2.6177,0.0,0.0,0.0,0.0,0.0,0.0,-2.619,-2.6846,-2.8217,-2.8859,-2.8915,-2.8859,-2.8668,-2.8287,-2.7867,-2.7638,-2.7546,-2.6774,-2.6117,-2.5585,-2.3456,0.0,0.0,0.0,0.0,0.0,0.0,0.0,0.0,0.0,0.0,0.0,0.0,0.0,0.0,0.0,0.0,0.0,0.0,0.0,0.0,-2.5281,0.0,0.0,0.0,0.0,0.0,0.0,0.0,0.0,0.0,0.0,-2.2808,-2.3847,-2.4881,-2.5572,0.0,0.0,0.0,0.0,-2.6395,-2.5769,-2.5659,-2.5722,-2.5785,-2.6082,-2.6379,-2.669,0.0,0.0,-2.9155,-2.911,-2.9422,-3.0291,-3.1146,-3.1584,-3.1916,-3.187,-3.1928,-3.1928,-3.1946,-3.2125,-3.243,-3.2352,-3.2197,-2.2658,0.0,0.0,0.0,0.0,-2.1755,-2.2874,-2.4576,-2.4987,-2.5013,-2.4965,-2.5174,0.0,0.0,0.0,0.0,0.0,0.0,-2.6718,-2.779,-2.9108,-2.9923,-3.0383,-3.1475,-3.1649,-3.0974,-3.1871,-3.1437,-2.993,-3.0194,-2.8594,-2.5092,0.0,0.0,0.0,0.0,-2.799,-2.9069,-3.0098,-3.0646,-3.0701,-3.0646,-3.0289,-2.9561,-2.9479,-2.8933,-2.8077,-2.8377,-2.7818,-2.624,-2.5685,0.0,0.0,0.0,0.0,0.0,0.0,0.0,0.0,0.0,0.0,0.0,0.0,0.0,0.0,0.0,0.0,0.0,0.0,0.0,-2.5628,-2.5882,-2.5793,0.0,0.0,0.0,0.0,0.0,0.0,0.0,0.0,0.0,-2.4926,-2.5076,-2.5591,0.0,0.0,-2.6229,-2.604,-2.6389,-2.6692,-2.6708,-2.6708,0.0,-2.7997,-2.8043,-2.8293,-2.9101,-3.0482,-3.1488,-3.1798,-3.275,-3.3567,-3.3877,-3.4121,-3.4368,-3.4738,-3.4003,-3.3372,-3.3352,-3.368,-3.3978,-3.4101,-3.4061,-3.3861,-2.6336,-2.458,-2.2805,-2.2477,-2.3178,-2.3772,-2.4773,-2.6149,-2.6662,-2.6738,-2.6573,-2.7517,-2.7203,-2.6063,-2.7041,0.0,0.0,0.0,-2.8896,-3.001,-3.073,-3.135,-3.1968,-3.2886,-3.2958,-3.2307,-3.2746,-3.2285,-3.0898,-3.1199,-2.9982,-2.7225,0.0,0.0,-2.7098,-2.8202,-2.9308,-3.0422,-3.1406,-3.1919,-3.1919,-3.1919,-3.1676,-3.1171,-3.1095,-3.075,-3.0043,-3.0469,-3.0063,-2.8655,-2.8359,-2.7428,0.0,0.0,0.0,0.0,0.0,0.0,0.0,0.0,0.0,0.0,0.0,-2.5425,-2.4996,0.0,0.0,0.0,-2.7065,-2.7281,-2.7417,-2.7417,0.0,0.0,0.0,0.0,0.0,0.0,0.0,-2.6067,-2.7293,-2.803,-2.7604,-2.7639,-2.7498,-2.7123,-2.7046,-2.6918,-2.66,0.0,-2.7452,-2.7388,-2.7388,-2.7818,-2.9007,-2.943,-2.9968,-3.1258,-3.2128,-3.2863,-3.3257,-3.418,-3.4922,-3.5294,-3.5418,-3.5521,-3.579,-3.5391,-3.5073,-3.5073,-3.5168,-3.5314,-3.5293,-3.5148,-3.4841,-3.0294,-2.891,-2.5559,-2.4507,-2.5056,-2.5811,-2.6682,-2.7623,-2.8296,-2.8237,-2.7858,-3.0016,-3.0198,-2.8933,-3.0469,0.0,-3.3083,-3.1795,-3.1477,-3.2099,-3.2612,-3.2841,-3.2747,-3.3069,-3.3069,-3.2862,-3.1923,-3.1325,-3.1054,-3.0509,-2.9962,-2.9412,-2.9031,-2.8653,-2.8388,-2.9298,-3.0254,-3.1147,-3.2101,-3.2612,-3.2669,-3.2669,-3.2669,-3.2669,-3.2669,-3.2669,-3.2669,-3.2669,-3.2483,-3.205,-3.1187,-3.0099,-2.8793,0.0,0.0,0.0,0.0,0.0,0.0,0.0,0.0,0.0,0.0,0.0,0.0,0.0,0.0,0.0,-2.8926,0.0,-2.9665,-2.9565,0.0,0.0,0.0,-2.8578,-2.916,-2.9241,-2.9155,-2.9033,0.0,0.0,-3.0429,-3.0673,-3.0185,-2.8478,-2.8381,-2.8208,-2.7591,-2.8371,-2.8704,-2.8252,-2.8123,-2.8558,-2.9966,-3.0835,-3.1891,-3.3238,-3.3038,-3.3204,-3.4104,-3.4375,-3.4669,-3.5438,-3.5542,-3.5583,-3.5521,-3.6182,-3.6825,-3.6823,-3.6556,-3.6225,-3.6121,-3.5832,-3.5397,-3.2113,-3.1013,-3.1025,-3.0043,-2.8471,-2.8914,-2.9858,-3.1005,-3.1487,-3.1451,-3.107,-3.1628,-3.1294,-3.0283,-3.1754,-3.2461,-3.2425,-3.2323,-3.2385,-3.2597,-3.3983,-3.4082,-3.3298,-3.6027,-3.6362,-3.471,-3.5733,-3.4925,-3.242,-3.2985,-3.2129,-2.9844,-2.9655,-2.921,-2.8505,-2.9167,-2.9985,-3.0857,-3.1361,-3.196,-3.2669,-3.2669,-3.2669,-3.2669,-3.2669,-3.2669,-3.2669,-3.2669,-3.2628,-3.2504,-3.1958,-3.116,-3.018,-2.8548,0.0,0.0,0.0,0.0,0.0,0.0,0.0,0.0,0.0,-2.7641,-2.687,0.0,-2.9489,0.0,-2.9498,-3.0398,-3.1157,-3.1222,0.0,0.0,-3.1362,-3.124,-3.1421,-3.2129,-3.2115,-3.0798,-3.1508,-3.2043,-3.1865,-3.1458,-3.1567,-3.2527,-3.1455,-3.0537,-3.0345,-3.0737,-3.1002,-3.0938,-3.1413,-3.2365,-3.3309,-3.4408,-3.5067,-3.5413,-3.5285,-3.5597,-3.6708,-3.6876,-3.6834,-3.679,-3.6768,-3.6708,-3.6517,-3.668,-3.7074,-3.7653,-3.7488,-3.7053,-3.6722,-3.6535,-3.6346,-3.3273,-3.2314,-3.3955,-3.3759,-3.2406,-3.2058,-3.2289,-3.283,-3.321,-3.3272,-3.308,-3.3494,-3.3729,-3.3833,-3.4657,-3.49,-3.4736,-3.4391,-3.441,-3.4684,-3.5545,-3.5732,-3.5359,-3.7389,-3.7613,-3.6329,-3.6617,-3.5758,-3.3927,-3.422,-3.3692,-3.2261,-3.2261,-3.1834,-3.1055,-3.0097,-2.9962,-3.0606,-3.1247,-3.1883,-3.2669,-3.2669,-3.2555,-3.2326,-3.2326,-3.2133,-3.1903,-3.2248,-3.2305,-3.1883,-3.2003,-3.16,-3.0482,-2.9219,-2.7918,0.0,0.0,0.0,0.0,0.0,0.0,0.0,0.0,0.0,0.0,0.0,-3.0233,-2.9661,-3.0636,-3.1512,-3.1958,-3.1959,-3.2256,-3.2955,-3.3196,-3.3558,-3.4141,-3.4916,-3.5024,-3.4042,-3.4512,-3.4778,-3.4633,-3.426,-3.4405,-3.552,-3.4716,-3.3654,-3.2879,-3.2898,-3.3087,-3.2961,-3.3403,-3.4198,-3.552,-3.6074,-3.6633,-3.7245,-3.6937,-3.6834,-3.7657,-3.7551,-3.7276,-3.7045,-3.7045,-3.7129,-3.719,-3.7421,-3.7735,-3.8112,-3.8301,-3.7939,-3.7263,-3.6949,-3.6676,-3.3963,-3.304,-3.5079,-3.6049,-3.6085,-3.4986,-3.4379,-3.4154,-3.4555,-3.4665,-3.4762,-3.5509,-3.6395,-3.7369,-3.753,-3.7643,-3.7655,-3.6665,-3.6507,-3.6989,-3.7058,-3.7277,-3.7668,-3.8009,-3.8065,-3.7816,-3.6465,-3.571,-3.5518,-3.5065,-3.4953,-3.5176,-3.5198,-3.4891,-3.4216,-3.1797,-3.0683,-3.0801,-3.175,-3.2477,-3.2955,-3.2898,-3.2555,-3.2076,-3.2018,-3.1767,-3.1227,-3.194,-3.1998,-3.1227,-3.194,-3.193,-3.0844,-2.9863,-2.8908,0.0,-2.7072,0.0,0.0,0.0,0.0,0.0,0.0,0.0,0.0,-3.1037,-3.0932,-3.1269,-3.2193,-3.2713,-3.2653,-3.2753,-3.3256,-3.4375,-3.487,-3.5583,-3.6643,-3.7194,-3.7374,-3.7374,-3.7374,-3.7435,-3.7374,-3.7435,-3.7374,-3.7555,-3.7352,-3.6664,-3.5376,-3.5067,-3.5005,-3.4758,-3.4798,-3.5727,-3.6939,-3.7105,-3.7483,-3.8675,-3.8233,-3.7654,-3.8273,-3.7975,-3.7526,-3.7527,-3.7527,-3.757,-3.8039,-3.8295,-3.8378,-3.8592,-3.8758,-3.86,-3.7805,-3.7322,-3.6862,-3.449,-3.343,-3.4903,-3.6082,-3.7025,-3.6785,-3.7081,-3.764,-3.773,-3.7775,-3.773,-3.7463,-3.6884,-3.6106,-3.7293,-3.7224,-3.6208,-3.6231,-3.6507,-3.7012,-3.7458,-3.7405,-3.7044,-3.894,-3.9339,-3.8355,-3.8597,-3.8227,-3.7303,-3.7212,-3.6451,-3.5171,-3.5113,-3.4822,-3.4194,0.0,0.0,0.0,-3.3912,-3.4357,-3.4469,-3.3784,-3.3409,-3.3275,-3.3275,0.0,-3.3105,-3.3218,-3.3275,-3.3105,-3.3218,0.0,0.0,0.0,0.0,0.0,0.0,0.0,0.0,0.0,0.0,0.0,-3.4582,-3.4382,-3.3617,-3.3618,-3.3596,-3.3526,-3.3667,-3.4152,-3.4969,-3.555,-3.614,-3.6686,-3.6876,-3.7002,-3.7243,-3.7391,-3.7374,-3.7374,-3.7435,-3.7616,-3.8118,-3.7736,-3.7856,-3.8798,-3.8477,-3.8216,-3.8373,-3.7451,-3.6928,-3.6889,-3.7414,-3.8358,-3.9209,-3.917,-3.9055,-3.9459,-3.9338,-3.9513,-4.0292,-4.0777,-4.08,-4.0427,-4.0038,-3.9606,-3.9736,-3.872,-3.8201,-3.8887,-3.8772,-3.835,-3.8134,-3.7984,-3.7922,-3.5355,-3.5458,-3.6785,-3.7692,0.0,-3.8313,-3.8535,-3.8941,-3.8941,-3.8803,-3.8573,-3.8447,-3.7918,-3.7188,-3.8105,-3.8123,-3.7255,-3.7465,-3.766,-3.7919,-3.8436,-3.8647,-3.8562,-4.0073,-4.0421,-3.98,-3.9929,-3.9714,-3.9104,-3.8789,-3.8371,-3.7724,-3.7724,-3.7587,-3.7427,-3.7747,-3.6929,-3.4932,-3.5278,-3.5502,-3.5498,-3.5113,-3.4747,-3.4469,-3.4469,0.0,0.0,0.0,0.0,0.0,0.0,0.0,0.0,-3.4252,0.0,-3.4374,-3.4022,-3.3972,-3.4472,-3.5298,-3.6125,-3.7037,-3.8499,-3.8438,-3.6128,-3.6553,-3.6827,-3.6756,-3.6919,-3.728,-3.7784,-3.8182,-3.8589,-3.9134,-3.9239,-3.9357,-3.9592,-3.965,-3.9709,-3.9709,-3.9709,-3.9919,-4.0493,-4.0024,-4.006,-4.088,-4.0515,-4.0176,-4.0432,-3.9321,-3.8403,-3.8649,-3.8835,-3.9376,-4.0134,-4.0084,-4.018,-4.0419,-4.03,-4.0437,-4.1161,-4.1171,-4.1042,-4.0821,-4.0495,-4.0388,-4.069,-4.034,-4.0252,-4.0646,-4.1061,-4.113,-4.0694,-3.9529,-3.877,-3.5664,-3.6742,-3.8074,-3.8752,-3.893,-3.893,-3.9108,-3.9308,-3.9308,0.0,0.0,-3.8978,-3.8964,-3.8812,-3.906,-3.9078,-3.8929,-3.8905,-3.8953,-3.9104,-3.9537,-3.997,-4.0403,-4.0932,-4.1124,-4.1028,-4.0691,-4.0547,-4.0523,-4.009,-4.0114,-4.0499,-4.0579,-4.0749,-4.1094,-4.1175,-3.9867,-3.7284,-3.6947,-3.6828,-3.6843,-3.6734,-3.636,-3.5776,-3.5753,-3.5466,-3.4858,-3.554,-3.5595,-3.4891,-3.554,-3.5704,-3.5166,-3.5286,-3.5378,-3.526,-3.5428,-3.5845,-3.6567,-3.7594,-3.8621,-3.9731,-4.1785,-4.1629,-3.8526,-3.9255,-3.9846,-3.9699,-4.0043,-4.0279,-4.0279,-4.0395,-4.065,-4.1215,-4.1272,-4.1444,-4.1899,-4.2012,-4.1842,-4.2037,-4.194,-4.2282,-4.2545,-4.2266,-4.2258,-4.2553,-4.2111,-4.2012,-4.1785,-4.0721,-4.0082,-4.0582,-4.0565,-4.0448,-4.1222,-4.1368,-4.1299,-4.2211,-4.189,-4.1696,-4.1911,-4.173,-4.1452,-4.1865,-4.1256,-4.1514,-4.2161,-4.2627,-4.3002,-4.2968,-4.3803,-4.4404,-4.3443,-4.164,-4.0574,-3.38,-3.405,-3.5376,-3.6603,-3.755,-3.761,-3.8231,-3.9308,-3.9308,-3.9262,-3.9193,-3.9252,-3.9267,-3.9296,-3.9125,-3.9184,-3.9458,-3.9189,-3.9427,-4.0186,-4.0258,-4.0331,-4.0427,-4.0932,-4.0956,-4.0571,-4.0884,-4.1076,-4.1076,-4.098,-4.1004,-4.1109,-4.1338,-4.1712,-4.222,-4.2283,-4.196,-4.1335,-4.0129,-3.9454,-3.9461,-3.8824,-3.8146,-3.759,-3.7512,-3.7302,-3.675,-3.6858,-3.6858,-3.6727,-3.6858,-3.7287,-3.8113,-3.8166,-3.8613,-3.9521,-3.9599,-4.0031,-4.0823,-4.1463,-4.2442,-4.3741,-4.4242,-4.3165,-4.0427,-4.1208,-4.1695,-4.098,-4.0971,-4.0961,-4.1019,-4.1476,-4.1842,-4.1899,-4.1899,-4.1899,-4.2069,-4.2069,-4.2125,-4.2125,-4.2454,-4.2643,-4.2478,-4.2593,-4.2675,-4.2315,-4.2418,-4.2069,-4.2125,-4.1785,-4.2053,-4.2832,-4.3041,-4.3479,-4.4002,-4.4549,-4.4341,-4.4707,-4.4887,-4.488,-4.5049,-4.5213,-4.5366,-4.5788,-4.4722,-4.4626,-4.5556,-4.4769,-4.4524,-4.504,-4.5318,-4.507,-4.4965,-4.4599,-4.4325,-3.5294,-3.6581,-3.727,-3.7812,-3.835,-3.8373,-3.873,-3.9308,-3.9308,-3.9308,-3.9367,-3.9661,-3.9814,-3.9812,-4.0101,-4.0126,-4.0018,-3.9906,-3.9882,-3.9994,-4.0258,-4.0403,-4.0451,-4.0932,-4.1052,-4.0836,-4.1076,-4.1196,-4.1196,-4.1196,-4.1196,-4.123,-4.1631,-4.2086,-4.2457,-4.2681,-4.2749,-4.2585,-4.1703,-4.1062,-4.071,-4.033,-4.0044,-3.9775,-3.9453,-3.9184,-3.8941,-3.8648,-3.8502,-3.8502,-3.8502,-3.8939,-3.9865,-4.0099,-4.09,-4.2364,-4.211,-4.2292,-4.3269,-4.3284,-4.3727,-4.4589,-4.4694,-4.4157,-4.2835,-4.3259,-4.3466,-4.3078,-4.3022,-4.3022,-4.3078,-4.33,-4.3436,-4.3436,-4.3492,-4.3492,-4.3492,-4.3492,-4.3492,-4.3492,-4.3721,-4.3899,-4.395,-4.3924,-4.3975,-4.3873,-4.3721,-4.3492,-4.3492,-4.3771,-4.3834,-4.3721,-4.388,-4.4396,-4.5195,-4.5281,-4.5404,-4.565,-4.5921,-4.6191,-4.645,-4.6647,-4.6647,-4.6869,-4.6249,-4.6001,-4.6869,-4.6721,-4.6672,-4.6795,-4.7631,-4.7667,-4.7703,-4.7947,-4.7742,-3.6737,-3.8993,-3.8971,-3.9104,-3.9308,-3.9308,-3.9308,-3.9308,-3.9308,-3.9308,-3.9367,-3.9837,-4.0048,-4.0188,-4.0653,-4.0727,-4.0506,-4.0458,-4.0298,-4.0042,-4.0379,-4.0523,-4.0451,-4.0932,-4.1124,-4.1052,-4.1124,-4.1196,-4.1196,-4.1196,-4.1287,-4.1483,-4.1915,-4.2312,-4.265,-4.2874,-4.2986,-4.2961,-4.2615,-4.2133,-4.1677,-4.1706,-4.1601,-4.1505,-4.1103,-4.0827,-4.0701,-4.03,-4.0153,-4.0438,-4.0515,-4.0978,-4.1905,-4.224,-4.3114,-4.4401,-4.4077,-4.4157,-4.5025,-4.4983,-4.5023,-4.5395,-4.5449,-4.5422,-4.5449,-4.5449,-4.5181,-4.483,-4.4613,-4.4613,-4.4559,-4.4613,-4.4694,-4.4694,-4.4694,-4.4613,-4.4694,-4.4694,-4.4746,-4.4879,-4.5068,-4.5387,-4.5456,-4.5437,-4.5388,-4.5546,-4.5685,-4.5661,-4.5714,-4.63,-4.6275,-4.5565,-4.5213,-4.542,-4.5824,-4.601,-4.6295,-4.6673,-4.6934,-4.7444,-4.777,-4.7445,-4.7283,-4.7845,-4.7345,-4.7332,-4.7783,-4.8395,-4.8818,-4.896,-4.9914,-5.0952,-5.1137,-5.1425,-5.0865,-3.6095,-3.8029,-3.8148,-3.8535,-3.9272,-3.9308,-3.9308,-3.9308,-3.9308,-3.9308,-3.9308,-3.9344,-3.9544,-3.9802,-3.9919,-4.0223,-4.0639,-4.0663,-4.0789,-4.1004,-4.1076,-4.086,-4.0499,-4.0956,-4.0932,-4.0619,-4.098,-4.1196,-4.1196,-4.123,-4.1483,-4.1997,-4.2312,-4.2625,-4.293,-4.2961,-4.3042,-4.2961,-4.2936,-4.2886,-4.2836,-4.2836,-4.264,-4.2137,-4.2087,-4.1781,-4.1386,-4.115,-4.1607,-4.2632,-4.2864,-4.3686,-4.4847,-4.5321,-4.5643,-4.607,-4.6021,-4.6294,-4.6855,-4.7343,-4.7526,-4.7712,-4.7559,-4.7587,-4.7559,-4.761,-4.6816,-4.5342,-4.4776,-4.4884,-4.4748,-4.483,-4.4938,-4.4992,-4.4938,-4.4694,-4.483,-4.4694,-4.4931,-4.5506,-4.6329,-4.6652,-4.6028,-4.6356,-4.6731,-4.6541,-4.7444,-4.8107,-4.8298,-4.9103,-4.9768,-4.9446,-4.8476,-4.7487,-4.784,-4.7938,-4.8257,-4.8778,-4.9239,-4.9768,-5.0167,-5.0089,-4.9759,-5.0368,-4.9663,-4.9489,-5.0106,-5.0584,-5.0777,-5.1356,-5.2303,-5.3435,-5.4477,-5.4679,-5.3571,-3.715,-3.9235,-3.9235,-3.9205,-3.9272,-3.9308,-3.9308,-3.9308,-3.9308,-3.9308,-3.9308,-3.9308,-3.9485,-3.9802,-4.0153,-4.0503,-4.0735,-4.0908,-4.1081,-4.1196,-4.1196,-4.1052,-4.0908,-4.1052,-4.1052,-4.0884,-4.11,-4.1196,-4.123,-4.132,-4.1688,-4.2086,-4.2369,-4.265,-4.3042,-4.3657,-4.3987,-4.4042,-4.4615,-4.4967,-4.4805,-4.3657,-4.3194,-4.3598,-4.3347,-4.3384,-4.3704,-4.3647,-4.3744,-4.4253,-4.4529,-4.5116,-4.6123,-4.6299,-4.6912,-4.8093,-4.8218,-4.804,-4.7672,-4.7875,-4.8016,-4.8016,-4.8016,-4.8016,-4.8016,-4.8016,-4.7559,-4.684,-4.666,-4.666,-4.6608,-4.666,-4.666,-4.666,-4.666,-4.6608,-4.666,-4.6608,-4.6796,-4.7015,-4.738,-4.7564,-4.7199,-4.738,-4.7747,-4.7854,-4.8682,-4.9244,-4.9611,-5.0294,-5.0744,-5.0778,-5.0188,-5.0077,-5.0182,-5.0266,-5.0619,-5.144,-5.1878,-5.2315,-5.3016,-5.297,-5.2838,-5.3321,-5.2579,-5.2389,-5.3385,-5.3489,-5.3626,-5.3904,-5.4024,-5.4797,-5.5325,-5.5693,-5.515,-3.77,-3.9559,-3.9854,-3.9629,-3.9308,-3.9308,-3.9308,-3.9308,-3.9308,-3.9308,-3.9308,-3.9308,-3.9426,-3.9743,-4.0305,-4.0561,-4.0595,-4.1,-4.1196,-4.1196,-4.1196,-4.1196,-4.1196,-4.1196,-4.1196,-4.1196,-4.1172,-4.123,-4.1344,-4.1663,-4.1948,-4.2256,-4.2793,-4.324,-4.3547,-4.4561,-4.5154,-4.5182,-4.5979,-4.6267,-4.6057,-4.4698,-4.4289,-4.4994,-4.4732,-4.4888,-4.5668,-4.5618,-4.5701,-4.6001,-4.6293,-4.6884,-4.7779,-4.7905,-4.8603,-4.9844,-5.0028,-4.9708,-4.8944,-4.8894,-4.8894,-4.8894,-4.8894,-4.8894,-4.8894,-4.8894,-4.8865,-4.8894,-4.8894,-4.8745,-4.8016,-4.8016,-4.8016,-4.8016,-4.8016,-4.8016,-4.7965,-4.8016,-4.7999,-4.819,-4.8364,-4.8446,-4.8474,-4.8645,-4.8928,-4.9319,-5.0052,-5.0548,-5.1116,-5.1689,-5.212,-5.2014,-5.2386,-5.2295,-5.1892,-5.1511,-5.2236,-5.2771,-5.2995,-5.3358,-5.4793,-5.4512,-5.4569,-5.4152,-5.451,-5.4651,-5.4636,-5.5035,-5.5588,-5.579,-5.5906,-5.6079,-5.668,-5.691,-5.734,-3.7049,-3.8703,-3.916,-3.9354,-3.9308,-3.9308,-3.9308,-3.9308,-3.9308,-3.9308,-3.9308,-3.9308,-3.9308,-3.9367,-4.0013,-4.0223,-4.0339,-4.0884,-4.1196,-4.1196,-4.1196,-4.1196,-4.1196,-4.1196,-4.1196,-4.1196,-4.1196,-4.1344,-4.1663,-4.2231,-4.2457,-4.2625,-4.3907,-4.4587,-4.4778,-4.5714,-4.6215,-4.6267,-4.6424,-4.6424,-4.6372,-4.6267,-4.6215,-4.6319,-4.6188,-4.6238,-4.6422,-4.655,-4.7142,-4.8183,-4.8694,-4.9465,-5.0419,-5.0733,-5.0905,-5.1058,-5.1088,-5.1058,-5.0964,-5.087,-5.0917,-5.0964,-5.0822,-5.0964,-5.0775,-5.0834,-5.0864,-5.0994,-5.0923,-5.0241,-4.871,-4.8588,-4.8352,-4.8352,-4.8201,-4.828,-4.8201,-4.8566,-4.8353,-4.8867,-4.9337,-4.9629,-4.9649,-5.0113,-5.0432,-5.1038,-5.2476,-5.3744,-5.3713,-5.4348,-5.4565,-5.4624,-5.4582,-5.4252,-5.2352,-5.2244,-5.2365,-5.3015,-5.3744,-5.3387,-5.3669,-5.4175,-5.4712,-5.508,-5.5253,-5.5424,-5.5417,-5.5732,-5.6308,-5.6651,-5.7047,-5.7414,-5.8206,-5.8723,-5.9173,-3.6395,-3.8332,-3.9024,-3.9308,-3.9308,-3.9308,-3.9308,-3.9308,-3.9308,-3.9308,-3.9308,-3.9308,-3.9426,-3.9626,-3.9989,-4.0165,-4.0281,-4.0884,-4.1196,-4.1196,-4.1196,-4.1196,-4.1196,-4.1196,-4.1196,-4.1196,-4.1196,-4.172,-4.2774,-4.3991,-4.4698,-4.4752,-4.5342,-4.5714,-4.5926,-4.6816,-4.7383,-4.7485,-4.8072,-4.8474,-4.8424,-4.8474,-4.8574,-4.8674,-4.8044,-4.8066,-4.8923,-4.919,-4.9533,-4.995,-5.0287,-5.065,-5.1011,-5.1135,-5.1229,-5.1229,-5.1229,-5.1229,-5.1229,-5.1229,-5.1229,-5.1229,-5.1229,-5.1229,-5.1289,-5.1588,-5.1858,-5.1887,-5.2247,-5.1992,-5.1562,-5.0974,-5.0662,-5.072,-5.1062,-5.1169,-5.1326,-5.1326,-5.1297,-5.1033,-5.0873,-5.0928,-5.1501,-5.1746,-5.1983,-5.2783,-5.3645,-5.4341,-5.476,-5.5059,-5.533,-5.5229,-5.5179,-5.4926,-5.4252,-5.3993,-5.4199,-5.4814,-5.5313,-5.5869,-5.6234,-5.6624,-5.7202,-5.7152,-5.7035,-5.7091,-5.7384,-5.7801,-5.8077,-5.8217,-5.8575,-5.9129,-5.9831,-6.0243,-6.0862,-3.6498,-3.862,-3.9158,-3.9308,-3.9308,-3.9308,-3.9308,-3.9308,-3.9308,-3.9308,-3.9308,-3.9426,-3.9626,-3.9861,-4.0188,-4.0339,-4.0421,-4.0942,-4.1196,-4.1196,-4.1196,-4.1196,-4.123,-4.1573,-4.1777,-4.1866,-4.2375,-4.3164,-4.4129,-4.5422,-4.6005,-4.6032,-4.6556,-4.6867,-4.7023,-4.7943,-4.8553,-4.8753,-4.9297,-4.9717,-4.9815,-4.9844,-5.0077,-5.0417,-4.9678,-4.9562,-5.0501,-5.068,-5.0822,-5.087,-5.1058,-5.1229,-5.1229,-5.1229,-5.1229,-5.1229,-5.1229,-5.1319,-5.1468,-5.1319,-5.1319,-5.1528,-5.1558,-5.1528,-5.1588,-5.2157,-5.2456,-5.2636,-5.2875,-5.3174,-5.3144,-5.2916,-5.2755,-5.2636,-5.2935,-5.3174,-5.3174,-5.3144,-5.2886,-5.2479,-5.2121,-5.2318,-5.2935,-5.2965,-5.3275,-5.4132,-5.4589,-5.5198,-5.553,-5.6035,-5.6201,-5.6232,-5.6475,-5.6541,-5.6365,-5.6335,-5.5391,-5.5679,-5.6213,-5.7169,-5.8016,-5.8594,-5.9105,-5.9147,-5.9261,-5.9339,-5.9553,-5.9948,-6.0075,-6.0128,-6.0515,-6.101,-6.1392,-6.1659,-6.2307,-3.7536,-3.9628,-3.9515,-3.9308,-3.9308,-3.9308,-3.9308,-3.9308,-3.9308,-3.9308,-3.9308,-3.9626,-3.9802,-3.9919,-4.0386,-4.0677,-4.0792,-4.1057,-4.1196,-4.1196,-4.1196,-4.123,-4.1402,-4.2294,-4.283,-4.3053,-4.4643,-4.5555,-4.5846,-4.6372,-4.658,-4.666,-4.7536,-4.8021,-4.8021,-4.9001,-4.962,-4.962,-4.9698,-4.9844,-5.0086,-5.0145,-5.0621,-5.1421,-5.1035,-5.0733,-5.0607,-5.0787,-5.0959,-5.0929,-5.1118,-5.1229,-5.1229,-5.1229,-5.1229,-5.1229,-5.1229,-5.1528,-5.2007,-5.1618,-5.1588,-5.2067,-5.2217,-5.2264,-5.2467,-5.2978,-5.3417,-5.3561,-5.3604,-5.3537,-5.3736,-5.4116,-5.4029,-5.3373,-5.3354,-5.3414,-5.3354,-5.3283,-5.3253,-5.335,-5.3345,-5.3241,-5.3421,-5.3965,-5.4503,-5.4922,-5.5725,-5.6563,-5.6752,-5.7434,-5.8145,-5.8237,-5.8039,-5.79,-5.8314,-5.8587,-5.7181,-5.6237,-5.6718,-5.7446,-5.8288,-5.8927,-5.9866,-6.0058,-6.0337,-6.0463,-6.0928,-6.1255,-6.1678,-6.1878,-6.2372,-6.2516,-6.2748,-6.2991,-6.3766,-3.7406,-3.8252,-3.8999,-3.9308,-3.9308,-3.9308,-3.9308,-3.9308,-3.9308,-3.9308,-3.9367,-3.9626,-3.9919,-4.013,-4.0537,-4.085,-4.1024,-4.1172,-4.1196,-4.1196,-4.1172,-4.1663,-4.2294,-4.2718,-4.3441,-4.4455,-4.5926,-4.6816,-4.7201,-4.8094,-4.8624,-4.8724,-4.8951,-4.9178,-4.91,-4.9522,-4.9746,-4.9717,-4.9892,-5.0038,-5.0193,-5.072,-5.108,-5.119,-5.1773,-5.201,-5.1709,-5.1745,-5.1792,-5.1745,-5.184,-5.1678,-5.1319,-5.1229,-5.1229,-5.1229,-5.1229,-5.1498,-5.2067,-5.2085,-5.2282,-5.2774,-5.2923,-5.3278,-5.3877,-5.4521,-5.5142,-5.5767,-5.6295,-5.6575,-5.6638,-5.6715,-5.5992,-5.41,-5.4281,-5.461,-5.4669,-5.4837,-5.5145,-5.5424,-5.5379,-5.5349,-5.5541,-5.5913,-5.6279,-5.6793,-5.7496,-5.7854,-5.8131,-5.8496,-5.8677,-5.8722,-5.8812,-5.9125,-5.9346,-5.9522,-5.8812,-5.8044,-5.8259,-5.8332,-5.8968,-5.9823,-6.0687,-6.115,-6.1395,-6.1728,-6.2175,-6.2714,-6.3148,-6.3148,-6.31,-6.3373,-6.3774,-6.4465,-6.5319,-3.761,-3.8111,-3.893,-3.9308,-3.9308,-3.9308,-3.9308,-3.9308,-3.9308,-3.9308,-3.9367,-3.9779,-4.0013,-4.0281,-4.0653,-4.1,-4.1196,-4.1196,-4.1196,-4.1287,-4.172,-4.2263,-4.3103,-4.4167,-4.5179,-4.6401,-4.7632,-4.8246,-4.8396,-4.9248,-4.9698,-4.9698,-4.9746,-4.9698,-4.9746,-4.9746,-4.9746,-4.9717,-4.999,-5.0135,-5.0367,-5.0884,-5.1409,-5.1691,-5.2275,-5.27,-5.2875,-5.2935,-5.2725,-5.2247,-5.1977,-5.1708,-5.1558,-5.1588,-5.173,-5.2057,-5.2409,-5.2882,-5.3497,-5.3791,-5.3973,-5.4493,-5.4677,-5.4882,-5.5565,-5.6202,-5.6901,-5.7425,-5.7754,-5.8116,-5.8085,-5.8177,-5.7386,-5.5923,-5.6072,-5.6299,-5.6414,-5.6755,-5.698,-5.723,-5.7258,-5.7243,-5.7246,-5.7324,-5.767,-5.831,-5.869,-5.9004,-5.9314,-5.974,-5.986,-6.0032,-6.0374,-6.0459,-6.0289,-6.0247,-6.0204,-6.0129,-6.016,-6.0041,-6.025,-6.1308,-6.2211,-6.2456,-6.2714,-6.31,-6.3561,-6.4216,-6.4708,-6.4355,-6.43,-6.5003,-6.573,-6.6179,-6.6957,-3.8171,-3.9249,-3.9308,-3.9308,-3.9308,-3.9308,-3.9308,-3.9308,-3.9308,-3.9308,-3.9426,-3.9931,-4.0165,-4.0339,-4.0884,-4.1196,-4.1196,-4.1196,-4.1344,-4.172,-4.2407,-4.3164,-4.3742,-4.5821,-4.7383,-4.8494,-4.9193,-4.9517,-4.9502,-4.962,-4.9746,-4.9746,-4.9746,-4.9746,-4.9776,-4.9776,-4.9756,-4.9746,-5.0106,-5.0514,-5.0677,-5.1054,-5.1709,-5.3025,-5.2845,-5.3163,-5.4078,-5.4315,-5.3796,-5.2504,-5.2072,-5.2184,-5.23,-5.239,-5.302,-5.376,-5.4406,-5.5036,-5.5763,-5.5826,-5.623,-5.6738,-5.6864,-5.7195,-5.7245,-5.7747,-5.8187,-5.8446,-5.8587,-5.8528,-5.8542,-5.8722,-5.8632,-5.8469,-5.8197,-5.815,-5.8532,-5.8963,-5.9009,-5.8815,-5.8977,-5.9076,-5.8455,-5.8405,-5.8754,-5.8992,-5.9739,-6.0445,-6.06,-6.1169,-6.1931,-6.2038,-6.1903,-6.1855,-6.1675,-6.1276,-6.1268,-6.1318,-6.1577,-6.1872,-6.1945,-6.2876,-6.3718,-6.3937,-6.4063,-6.4512,-6.5054,-6.5769,-6.6322,-6.639,-6.6721,-6.726,-6.7554,-6.7779,-6.8104,-3.899,-3.9308,-3.9308,-3.9308,-3.9308,-3.9308,-3.9308,-3.9308,-3.9308,-3.9308,-3.9426,-3.9931,-4.0165,-4.0281,-4.0942,-4.1196,-4.1287,-4.1287,-4.172,-4.2575,-4.3606,-4.4698,-4.5555,-4.7087,-4.8223,-4.8888,-4.9245,-4.935,-4.9698,-4.9834,-4.9805,-4.9746,-4.9805,-4.9776,-4.9776,-5.0211,-5.0153,-4.9999,-5.1179,-5.1523,-5.1482,-5.2505,-5.3245,-5.3174,-5.3942,-5.4605,-5.5333,-5.5999,-5.5483,-5.3909,-5.4296,-5.4293,-5.4142,-5.4637,-5.5138,-5.544,-5.5732,-5.6091,-5.6694,-5.6924,-5.7227,-5.7751,-5.7997,-5.8151,-5.89,-5.9105,-5.9543,-6.0054,-6.0397,-6.0482,-6.0525,-6.0619,-6.0934,-6.131,-6.0255,-5.9717,-6.0409,-6.0683,-6.0659,-6.042,-6.076,-6.0478,-6.0076,-6.05,-6.1179,-6.1234,-6.1883,-6.2641,-6.2304,-6.2662,-6.3444,-6.3174,-6.306,-6.3107,-6.2972,-6.2533,-6.2324,-6.238,-6.2918,-6.3793,-6.41,-6.477,-6.5413,-6.5801,-6.567,-6.5957,-6.6631,-6.7281,-6.7766,-6.8003,-6.8215,-6.8335,-6.8538,-6.8759,-6.9096,-3.9308,-3.9308,-3.9308,-3.9308,-3.9308,-3.9308,-3.9308,-3.9308,-3.9308,-3.9308,-3.9426,-3.9931,-4.0165,-4.0281,-4.1353,-4.1948,-4.1923,-4.2432,-4.3022,-4.3661,-4.4805,-4.6032,-4.7236,-4.8252,-4.8815,-4.9094,-4.9574,-4.9939,-5.0171,-5.0336,-5.0481,-5.0481,-5.027,-5.0104,-5.0162,-5.0473,-5.056,-5.0435,-5.1561,-5.2093,-5.164,-5.2692,-5.3036,-5.314,-5.4194,-5.5394,-5.6544,-5.7241,-5.6839,-5.5795,-5.5752,-5.5827,-5.5811,-5.6203,-5.6772,-5.7081,-5.7425,-5.7845,-5.8259,-5.856,-5.8915,-5.9282,-5.9423,-5.9718,-6.0141,-6.0388,-6.0811,-6.1053,-6.165,-6.1773,-6.1614,-6.1628,-6.2159,-6.2688,-6.2141,-6.1841,-6.2586,-6.2799,-6.2557,-6.2278,-6.2232,-6.2282,-6.1231,-6.2183,-6.2721,-6.2985,-6.3448,-6.3653,-6.3579,-6.4275,-6.4667,-6.4381,-6.4171,-6.4137,-6.4007,-6.3566,-6.3884,-6.3913,-6.459,-6.5499,-6.5916,-6.6479,-6.6508,-6.6829,-6.7117,-6.7472,-6.804,-6.8447,-6.8494,-6.8731,-6.9045,-6.9369,-6.9548,-6.977,-7.01,-3.9308,-3.9308,-3.9308,-3.9308,-3.9308,-3.9308,-3.9308,-3.9308,-3.9308,-3.9367,-3.9485,-3.9989,-4.0223,-4.0339,-4.1955,-4.283,-4.2886,-4.3771,-4.4481,-4.5074,-4.6032,-4.7232,-4.8258,-4.8726,-4.9101,-4.9379,-5.0486,-5.0579,-5.0519,-5.1004,-5.1381,-5.1207,-5.0859,-5.0801,-5.083,-5.0888,-5.0909,-5.1038,-5.1991,-5.2467,-5.2178,-5.2672,-5.3097,-5.3736,-5.5024,-5.6527,-5.7769,-5.8387,-5.8165,-5.756,-5.6912,-5.6982,-5.7317,-5.7394,-5.7961,-5.8669,-5.9275,-5.9706,-6.0076,-6.0472,-6.0928,-6.0877,-6.1152,-6.1393,-6.1318,-6.1584,-6.185,-6.1875,-6.2498,-6.2587,-6.2192,-6.2025,-6.2744,-6.37,-6.416,-6.4525,-6.4802,-6.4992,-6.4648,-6.3646,-6.3825,-6.3557,-6.3232,-6.3113,-6.3485,-6.4285,-6.4862,-6.5198,-6.5299,-6.5808,-6.5833,-6.5549,-6.5328,-6.513,-6.4858,-6.4551,-6.516,-6.5604,-6.6508,-6.7269,-6.7507,-6.7706,-6.7462,-6.7625,-6.8554,-6.9042,-6.9248,-6.9457,-6.9587,-7.0089,-7.082,-7.0738,-7.054,-7.072,-7.1036,-3.9308,-3.9308,-3.9308,-3.9308,-3.9308,-3.9308,-3.9308,-3.9308,-3.9308,-3.9426,-3.972,-4.0071,-4.0363,-4.0711,-4.2238,-4.2886,-4.3275,-4.4292,-4.5074,-4.6164,-4.7208,-4.8027,-4.866,-4.878,-4.8924,-4.9322,-4.9565,-4.9828,-5.0084,-5.0743,-5.0917,-5.1004,-5.1352,-5.141,-5.1468,-5.1751,-5.2027,-5.1967,-5.265,-5.3277,-5.3434,-5.3739,-5.4514,-5.5686,-5.7362,-5.8518,-5.9238,-6.0044,-6.0365,-6.0073,-5.9361,-5.8807,-5.9056,-5.9632,-6.0092,-6.0252,-6.0511,-6.0736,-6.0912,-6.1053,-6.1152,-6.1285,-6.1766,-6.2031,-6.2022,-6.2698,-6.3057,-6.3233,-6.3626,-6.3761,-6.3497,-6.3721,-6.4359,-6.5177,-6.5881,-6.673,-6.7527,-6.6599,-6.5568,-6.5087,-6.471,-6.4357,-6.4153,-6.4761,-6.5167,-6.5598,-6.6131,-6.6777,-6.7073,-6.7301,-6.7156,-6.6862,-6.6865,-6.675,-6.6689,-6.6453,-6.6756,-6.7263,-6.8081,-6.8859,-6.9048,-6.937,-6.9296,-6.9722,-7.0399,-7.0623,-7.0638,-7.133,-7.1671,-7.2174,-7.2487,-7.2359,-7.2182,-7.2111,-7.1935,-3.9308,-3.9308,-3.9308,-3.9308,-3.9308,-3.9308,-3.9308,-3.9308,-3.9308,-3.9485,-3.9802,-4.013,-4.0687,-4.1582,-4.2997,-4.3991,-4.4725,-4.5714,-4.661,-4.726,-4.7852,-4.8358,-4.881,-4.8781,-4.8959,-4.9433,-4.9878,-5.015,-5.0635,-5.1178,-5.1817,-5.1904,-5.1788,-5.1788,-5.1897,-5.2057,-5.1866,-5.2218,-5.3149,-5.3809,-5.3802,-5.4466,-5.5548,-5.7057,-5.8496,-5.9404,-6.0269,-6.075,-6.1035,-6.0961,-6.0591,-6.0302,-6.0345,-6.0793,-6.1077,-6.1119,-6.1119,-6.1318,-6.1483,-6.1616,-6.1781,-6.208,-6.2595,-6.2695,-6.287,-6.3373,-6.3675,-6.3986,-6.466,-6.5341,-6.5585,-6.5528,-6.6142,-6.6711,-6.7208,-6.799,-6.8698,-6.8065,-6.7143,-6.676,-6.6491,-6.6315,-6.6346,-6.6529,-6.6989,-6.7449,-6.7588,-6.8194,-6.8191,-6.8378,-6.8488,-6.8381,-6.8456,-6.8458,-6.8496,-6.8467,-6.8505,-6.8926,-6.9447,-7.0076,-7.0477,-7.0911,-7.1268,-7.1514,-7.1643,-7.1938,-7.2049,-7.2851,-7.3322,-7.326,-7.3357,-7.365,-7.3646,-7.3182,-7.3026,-3.9308,-3.9308,-3.9308,-3.9308,-3.9308,-3.9308,-3.9308,-3.9308,-3.9308,-3.9544,-3.9954,-4.0281,-4.1329,-4.2606,-4.4209,-4.5502,-4.6583,-4.7363,-4.7852,-4.7903,-4.8106,-4.8459,-4.881,-4.9009,-4.9207,-4.9756,-5.0104,-5.0627,-5.1149,-5.2049,-5.2223,-5.2862,-5.2484,-5.2566,-5.2698,-5.2314,-5.2467,-5.3286,-5.4023,-5.4561,-5.434,-5.5065,-5.6146,-5.7891,-5.8893,-5.9811,-6.0736,-6.1077,-6.1119,-6.1119,-6.1119,-6.1119,-6.1119,-6.1119,-6.1119,-6.1119,-6.1119,-6.1417,-6.1956,-6.2155,-6.2453,-6.3249,-6.3577,-6.361,-6.36,-6.4024,-6.4497,-6.5147,-6.5926,-6.7146,-6.7934,-6.7616,-6.7619,-6.8116,-6.8328,-6.8786,-6.9352,-6.9529,-6.9104,-6.8318,-6.7935,-6.776,-6.7829,-6.8005,-6.8677,-6.9208,-6.9314,-6.942,-6.9456,-6.9529,-6.9672,-6.9778,-6.9811,-6.9845,-6.9878,-6.9808,-6.9935,-7.0036,-7.0545,-7.0998,-7.1488,-7.1834,-7.2109,-7.2371,-7.2615,-7.2963,-7.3496,-7.4182,-7.4391,-7.4152,-7.4302,-7.4716,-7.4529,-7.4149,-7.4187,-3.9308,-3.9308,-3.9308,-3.9308,-3.9308,-3.9308,-3.9331,-3.9308,-3.9354,-3.9661,-4.0223,-4.1215,-4.2044,-4.325,-4.5182,-4.6662,-4.7545,-4.8032,-4.8083,-4.8106,-4.8308,-4.861,-4.8859,-4.9108,-4.9404,-4.9649,-4.9921,-5.0046,-5.0481,-5.1149,-5.2078,-5.2194,-5.2717,-5.3539,-5.4458,-5.475,-5.4528,-5.5066,-5.5424,-5.5682,-5.6153,-5.6445,-5.7252,-5.9185,-5.9984,-6.0646,-6.0894,-6.1119,-6.1119,-6.1119,-6.1119,-6.1119,-6.1119,-6.1119,-6.1119,-6.1119,-6.1218,-6.155,-6.2188,-6.2354,-6.2652,-6.3249,-6.3955,-6.4254,-6.443,-6.512,-6.5867,-6.6839,-6.77,-6.8633,-6.8147,-6.861,-6.8894,-6.921,-6.9663,-7.0191,-7.0773,-7.0842,-7.0402,-6.9424,-6.9175,-6.9136,-6.9209,-6.9315,-6.9632,-6.9986,-7.0128,-7.037,-7.0609,-7.0742,-7.0907,-7.1038,-7.1167,-7.1167,-7.1163,-7.1099,-7.1059,-7.0923,-7.1195,-7.1448,-7.1938,-7.2404,-7.2722,-7.2787,-7.3506,-7.4326,-7.49,-7.5296,-7.5477,-7.5263,-7.5512,-7.5759,-7.5513,-7.5191,-7.5406,-3.9308,-3.9308,-3.9308,-3.9446,-3.9675,-3.9698,-3.9698,-3.9758,-3.9877,-4.0011,-4.0561,-4.159,-4.2805,-4.402,-4.5555,-4.7026,-4.788,-4.8083,-4.8083,-4.8156,-4.8358,-4.8631,-4.8881,-4.9157,-4.9453,-4.9649,-4.9746,-5.0075,-5.0656,-5.1294,-5.2078,-5.2949,-5.321,-5.3994,-5.524,-5.4945,-5.562,-5.629,-5.6677,-5.6851,-5.7557,-5.7804,-5.9103,-5.9762,-6.0688,-6.1053,-6.1119,-6.1119,-6.1119,-6.1119,-6.1119,-6.1119,-6.1119,-6.1152,-6.1152,-6.1218,-6.145,-6.198,-6.2752,-6.3083,-6.3703,-6.4299,-6.4862,-6.5072,-6.5401,-6.6128,-6.727,-6.8458,-6.9202,-6.9883,-6.9939,-7.0157,-7.0358,-7.0482,-7.0728,-7.1071,-7.1368,-7.1463,-7.1009,-7.037,-7.0391,-7.0414,-7.0455,-7.056,-7.0656,-7.0796,-7.0907,-7.1139,-7.1463,-7.1494,-7.1494,-7.1494,-7.1463,-7.1463,-7.1494,-7.1494,-7.1494,-7.1494,-7.1598,-7.1816,-7.1924,-7.221,-7.2613,-7.2857,-7.3888,-7.4642,-7.5158,-7.5173,-7.5704,-7.62,-7.6133,-7.6099,-7.6273,-7.6342,-7.6409,-3.9308,-3.9308,-3.9423,-3.9675,-4.0103,-4.0241,-4.0287,-4.0264,-4.0505,-4.0833,-4.1136,-4.2502,-4.4019,-4.5337,-4.6487,-4.7505,-4.8223,-4.8195,-4.8134,-4.8258,-4.8509,-4.8731,-4.9009,-4.9256,-4.9502,-4.9698,-5.0008,-5.0394,-5.1033,-5.1497,-5.2572,-5.3315,-5.3105,-5.4175,-5.586,-5.5913,-5.6077,-5.6963,-5.7743,-5.8004,-5.8409,-5.9391,-6.0225,-6.0225,-6.0788,-6.1119,-6.1119,-6.1119,-6.1119,-6.1152,-6.1251,-6.1351,-6.1351,-6.145,-6.155,-6.1616,-6.198,-6.2619,-6.3405,-6.3902,-6.4432,-6.5094,-6.5767,-6.5975,-6.6381,-6.7236,-6.8496,-6.9778,-7.0438,-7.0778,-7.1063,-7.1431,-7.1431,-7.1395,-7.1395,-7.1494,-7.1463,-7.1494,-7.1494,-7.1304,-7.1494,-7.1399,-7.1135,-7.1135,-7.1095,-7.1127,-7.124,-7.1272,-7.1494,-7.1494,-7.1494,-7.1494,-7.1494,-7.1494,-7.1494,-7.1494,-7.1494,-7.1494,-7.1593,-7.1734,-7.1765,-7.1765,-7.22,-7.2599,-7.2885,-7.357,-7.4272,-7.5001,-7.5357,-7.5713,-7.6178,-7.6429,-7.6501,-7.6639,-7.6737,-3.9308,-3.9354,-3.9767,-3.9997,-4.0218,-4.0548,-4.0732,-4.0793,-4.1074,-4.2054,-4.3115,-4.4757,-4.6196,-4.7569,-4.8252,-4.8742,-4.8729,-4.8443,-4.832,-4.8522,-4.8738,-4.8959,-4.9256,-4.9522,-4.9649,-4.9834,-5.0249,-5.0569,-5.1062,-5.1497,-5.2129,-5.315,-5.4442,-5.5659,-5.7177,-5.7385,-5.8731,-5.9404,-5.9606,-5.9655,-5.9754,-6.0473,-6.0812,-6.0953,-6.102,-6.1119,-6.1119,-6.1119,-6.1152,-6.1251,-6.1748,-6.2056,-6.2188,-6.2709,-6.2941,-6.2842,-6.2752,-6.2818,-6.3935,-6.4399,-6.4872,-6.5613,-6.6287,-6.6719,-6.7467,-6.8458,-6.9672,-7.0198,-7.0911,-7.1304,-7.1431,-7.1494,-7.1494,-7.1603,-7.1675,-7.1712,-7.1675,-7.182,-7.1784,-7.1639,-7.1675,-7.1567,-7.1399,-7.1431,-7.1463,-7.1494,-7.1494,-7.1494,-7.1494,-7.1494,-7.1562,-7.1593,-7.1526,-7.1526,-7.1656,-7.1625,-7.1589,-7.1557,-7.1656,-7.1749,-7.178,-7.1775,-7.1866,-7.2261,-7.2443,-7.2813,-7.3624,-7.4283,-7.4752,-7.5257,-7.5758,-7.6263,-7.6696,-7.6829,-7.7024,-3.9469,-3.9744,-4.0034,-4.0471,-4.0977,-4.1168,-4.136,-4.1607,-4.1853,-4.2736,-4.4069,-4.5577,-4.7316,-4.8974,-4.9466,-4.9567,-4.9426,-4.8921,-4.8793,-4.8878,-4.9009,-4.9058,-4.9305,-4.9522,-4.9698,-4.995,-5.0336,-5.0888,-5.1236,-5.1977,-5.2829,-5.4369,-5.5018,-5.6384,-5.8215,-5.8701,-5.9501,-6.0196,-6.0622,-6.0622,-6.0721,-6.092,-6.1119,-6.1119,-6.1119,-6.1119,-6.1152,-6.1119,-6.1351,-6.1616,-6.2122,-6.242,-6.2785,-6.3183,-6.3448,-6.3912,-6.368,-6.3813,-6.4299,-6.4774,-6.538,-6.611,-6.6894,-6.7633,-6.8682,-6.9636,-7.0472,-7.1009,-7.1304,-7.1463,-7.1494,-7.1494,-7.182,-7.1965,-7.2001,-7.2327,-7.2327,-7.2219,-7.2219,-7.2001,-7.1784,-7.1639,-7.1494,-7.1494,-7.1494,-7.1494,-7.1494,-7.1494,-7.1494,-7.1494,-7.1593,-7.1687,-7.1656,-7.1593,-7.1718,-7.178,-7.1775,-7.1775,-7.1836,-7.1897,-7.1897,-7.1957,-7.2078,-7.2078,-7.217,-7.2608,-7.3185,-7.3525,-7.3968,-7.465,-7.5406,-7.5839,-7.634,-7.6983,-7.7144,-3.9675,-4.0287,-4.031,-4.0755,-4.1581,-4.1719,-4.1953,-4.2304,-4.2962,-4.3941,-4.5279,-4.7009,-4.8927,-5.0006,-5.0297,-5.0238,-5.0182,-4.9539,-4.938,-4.9354,-4.9323,-4.9395,-4.9721,-4.9939,-5.0037,-5.0008,-5.0685,-5.1149,-5.1744,-5.2581,-5.3955,-5.5799,-5.5711,-5.7064,-5.879,-5.9536,-5.9989,-6.0853,-6.102,-6.102,-6.1053,-6.1086,-6.1119,-6.1119,-6.1119,-6.1185,-6.1351,-6.1384,-6.1748,-6.2354,-6.252,-6.2818,-6.3183,-6.3547,-6.3846,-6.4266,-6.4332,-6.475,-6.5147,-6.5598,-6.6167,-6.6803,-6.7792,-6.8758,-7.0129,-7.0644,-7.0811,-7.1399,-7.1431,-7.1494,-7.1494,-7.1494,-7.1712,-7.211,-7.2436,-7.2907,-7.3197,-7.2834,-7.2327,-7.1857,-7.1675,-7.1603,-7.1494,-7.1494,-7.1494,-7.1494,-7.1494,-7.1494,-7.1494,-7.1562,-7.1656,-7.1749,-7.1805,-7.1744,-7.1842,-7.1933,-7.1964,-7.1957,-7.2018,-7.2048,-7.2084,-7.2167,-7.2314,-7.2255,-7.2189,-7.2769,-7.3508,-7.3324,-7.3216,-7.3995,-7.4744,-7.5367,-7.5977,-7.6692,-7.7237,-3.9882,-4.0778,-4.0755,-4.1076,-4.1627,-4.2086,-4.246,-4.2872,-4.4278,-4.5785,-4.749,-4.9907,-5.1097,-5.145,-5.1028,-5.0857,-5.0829,-5.021,-4.9992,-4.9905,-4.9795,-5.0098,-5.0398,-5.0598,-5.0676,-5.0763,-5.1236,-5.1556,-5.2041,-5.3334,-5.4451,-5.542,-5.6493,-5.7746,-5.9075,-6.0109,-6.0473,-6.1044,-6.1119,-6.1119,-6.1119,-6.1119,-6.1119,-6.1119,-6.1185,-6.1384,-6.2047,-6.2122,-6.2487,-6.3183,-6.3116,-6.3305,-6.3637,-6.3935,-6.431,-6.475,-6.5193,-6.5674,-6.6246,-6.6365,-6.6601,-6.7264,-6.8416,-6.992,-7.0913,-7.1272,-7.1463,-7.1463,-7.1494,-7.1494,-7.1494,-7.1531,-7.1675,-7.2291,-7.2834,-7.3197,-7.3342,-7.3088,-7.2545,-7.1857,-7.1567,-7.1531,-7.1494,-7.1494,-7.1494,-7.1494,-7.1494,-7.1494,-7.1625,-7.1656,-7.1749,-7.1872,-7.1988,-7.1988,-7.1988,-7.2078,-7.2189,-7.2197,-7.2204,-7.2233,-7.2263,-7.2409,-7.2459,-7.2705,-7.2779,-7.3275,-7.3604,-7.3525,-7.3521,-7.3626,-7.4081,-7.4822,-7.5672,-7.654,-7.698,-3.9905,-4.08,-4.0823,-4.1283,-4.2063,-4.2247,-4.257,-4.3326,-4.4596,-4.6662,-4.9106,-5.0906,-5.1787,-5.1702,-5.1618,-5.1421,-5.1337,-5.0857,-5.0752,-5.073,-5.0761,-5.0787,-5.1114,-5.1265,-5.1265,-5.1381,-5.1926,-5.2624,-5.3287,-5.4202,-5.5888,-5.7041,-5.7761,-5.8799,-5.9925,-6.0591,-6.0919,-6.1044,-6.1119,-6.1119,-6.1119,-6.1119,-6.1119,-6.1119,-6.1649,-6.1848,-6.2255,-6.2685,-6.3282,-6.3637,-6.3547,-6.3769,-6.4167,-6.4399,-6.4794,-6.545,-6.5895,-6.6517,-6.7134,-6.7134,-6.7216,-6.8569,-6.9814,-7.0916,-7.1456,-7.1472,-7.1499,-7.1494,-7.1567,-7.1603,-7.1531,-7.1567,-7.182,-7.2653,-7.3197,-7.3523,-7.345,-7.3233,-7.2907,-7.2255,-7.1784,-7.1494,-7.1494,-7.1494,-7.1494,-7.1494,-7.1494,-7.1557,-7.1805,-7.1897,-7.2048,-7.2277,-7.2443,-7.2443,-7.248,-7.2471,-7.2528,-7.2508,-7.2459,-7.2545,-7.263,-7.2438,-7.2545,-7.2899,-7.3261,-7.3504,-7.3678,-7.3744,-7.3754,-7.371,-7.395,-7.4441,-7.5322,-7.636,-7.6795,-3.9905,-4.0778,-4.0823,-4.1397,-4.227,-4.2402,-4.2759,-4.349,-4.4743,-4.7044,-4.9958,-5.1183,-5.1787,-5.1787,-5.1759,-5.1759,-5.1701,-5.1445,-5.1484,-5.1437,-5.1356,-5.1523,-5.1751,-5.1904,-5.1904,-5.202,-5.2355,-5.3026,-5.3893,-5.4918,-5.6539,-5.805,-5.9113,-5.9925,-6.0473,-6.0961,-6.1119,-6.1119,-6.1119,-6.1119,-6.1119,-6.1351,-6.145,-6.1583,-6.2146,-6.2752,-6.3017,-6.3481,-6.3968,-6.42,-6.4233,-6.42,-6.4531,-6.4851,-6.509,-6.5755,-6.6534,-6.71,-6.7622,-6.794,-6.8319,-7.0024,-7.0904,-7.1654,-7.1958,-7.2123,-7.2472,-7.2364,-7.2146,-7.1857,-7.1784,-7.1784,-7.1748,-7.2364,-7.3414,-7.3776,-7.3559,-7.3342,-7.3088,-7.269,-7.2146,-7.1526,-7.1805,-7.186,-7.2064,-7.1915,-7.1682,-7.1975,-7.2511,-7.2576,-7.2556,-7.2797,-7.3093,-7.304,-7.2997,-7.3119,-7.3238,-7.3212,-7.3172,-7.313,-7.3077,-7.2899,-7.305,-7.3664,-7.3879,-7.3736,-7.407,-7.4596,-7.4247,-7.369,-7.419,-7.4811,-7.5503,-7.6503,-7.6699,-3.9882,-4.0778,-4.0823,-4.1397,-4.2293,-4.2633,-4.2949,-4.3576,-4.5171,-4.7339,-4.9928,-5.121,-5.1787,-5.1787,-5.1787,-5.1787,-5.1841,-5.1974,-5.2017,-5.1856,-5.2005,-5.2232,-5.2439,-5.2543,-5.2543,-5.2594,-5.2968,-5.3558,-5.434,-5.5708,-5.7243,-5.8697,-5.9925,-6.0591,-6.1044,-6.1119,-6.1119,-6.1119,-6.1119,-6.1119,-6.1218,-6.1682,-6.1989,-6.2188,-6.2851,-6.3514,-6.3879,-6.4167,-6.463,-6.4929,-6.4531,-6.4432,-6.4597,-6.4673,-6.4814,-6.512,-6.6314,-6.7264,-6.8054,-6.8749,-7.0058,-7.1443,-7.2065,-7.2482,-7.3297,-7.3609,-7.345,-7.3016,-7.2834,-7.2617,-7.2364,-7.2001,-7.1857,-7.2545,-7.3635,-7.3961,-7.3812,-7.3559,-7.3342,-7.2894,-7.2169,-7.162,-7.1981,-7.2307,-7.2567,-7.252,-7.2071,-7.2328,-7.3045,-7.3149,-7.3082,-7.3315,-7.359,-7.359,-7.3628,-7.3845,-7.3925,-7.3925,-7.3784,-7.3652,-7.3628,-7.3579,-7.3902,-7.4438,-7.439,-7.4139,-7.4897,-7.5741,-7.5418,-7.5201,-7.499,-7.5433,-7.6118,-7.6493,-7.6663,-3.9905,-4.0823,-4.0823,-4.1522,-4.2587,-4.2783,-4.3012,-4.374,-4.6055,-4.83,-4.9872,-5.1265,-5.1787,-5.1787,-5.1787,-5.1787,-5.1841,-5.2059,-5.2102,-5.2395,-5.2627,-5.2948,-5.3077,-5.3123,-5.3152,-5.339,-5.3774,-5.465,-5.5865,-5.6856,-5.83,-5.9805,-6.0473,-6.0919,-6.1077,-6.1119,-6.1119,-6.1119,-6.1119,-6.1119,-6.1185,-6.1781,-6.2255,-6.2321,-6.3348,-6.4133,-6.4442,-6.4697,-6.5127,-6.5326,-6.4796,-6.4708,-6.4983,-6.5134,-6.5657,-6.6507,-6.7866,-6.9072,-7.02,-7.1124,-7.1619,-7.2468,-7.2961,-7.3274,-7.3694,-7.3823,-7.3635,-7.3342,-7.3088,-7.2834,-7.2545,-7.1965,-7.2038,-7.3631,-7.4504,-7.4395,-7.4247,-7.3957,-7.3627,-7.2984,-7.2247,-7.2516,-7.2842,-7.3082,-7.3329,-7.3516,-7.3252,-7.3161,-7.3651,-7.3651,-7.359,-7.3855,-7.4064,-7.4087,-7.4214,-7.439,-7.4347,-7.4237,-7.4101,-7.3916,-7.3963,-7.4169,-7.4347,-7.4664,-7.4577,-7.4606,-7.5738,-7.6674,-7.6979,-7.6918,-7.6663,-7.6165,-7.6323,-7.6531,-7.6541,-4.0318,-4.1076,-4.1283,-4.1884,-4.2713,-4.2886,-4.32,-4.4161,-4.6916,-4.8743,-4.9502,-5.0962,-5.1787,-5.1787,-5.1787,-5.1896,-5.195,-5.2221,-5.2519,-5.2841,-5.3078,-5.3261,-5.3419,-5.35,-5.3413,-5.3815,-5.4582,-5.5579,-5.6611,-5.7993,-5.9278,-6.0345,-6.0919,-6.1077,-6.1119,-6.1119,-6.1119,-6.1119,-6.1119,-6.1119,-6.1384,-6.1881,-6.2487,-6.2785,-6.3614,-6.4664,-6.4664,-6.4962,-6.5425,-6.526,-6.5172,-6.5105,-6.5631,-6.6112,-6.6705,-6.7847,-6.8975,-7.0345,-7.1832,-7.2428,-7.3001,-7.4109,-7.4034,-7.417,-7.4374,-7.4543,-7.4214,-7.3812,-7.3305,-7.2979,-7.2762,-7.211,-7.2798,-7.4359,-7.4685,-7.4609,-7.4392,-7.4066,-7.4026,-7.3379,-7.3113,-7.3421,-7.3723,-7.3934,-7.4139,-7.4315,-7.4481,-7.4374,-7.4221,-7.4177,-7.4177,-7.4455,-7.4623,-7.4723,-7.4783,-7.4883,-7.4804,-7.454,-7.4455,-7.4369,-7.4577,-7.4804,-7.4843,-7.4883,-7.4979,-7.5417,-7.6731,-7.7604,-7.8026,-7.8218,-7.8178,-7.7593,-7.6852,-7.6614,-7.6608,-4.1099,-4.1581,-4.2086,-4.246,-4.2822,-4.3247,-4.3749,-4.4581,-4.7513,-4.8538,-4.8326,-5.0795,-5.1787,-5.1787,-5.1841,-5.195,-5.2221,-5.2519,-5.2787,-5.3054,-5.3319,-5.3448,-5.35,-5.35,-5.3553,-5.3919,-5.4786,-5.6122,-5.7086,-5.8573,-5.9881,-6.0717,-6.1035,-6.1119,-6.1119,-6.1119,-6.1119,-6.1119,-6.1119,-6.1185,-6.1516,-6.2444,-6.2851,-6.3282,-6.4167,-6.4796,-6.4929,-6.5138,-6.5359,-6.5392,-6.5404,-6.5942,-6.6339,-6.6719,-6.7392,-6.8301,-6.9457,-7.1124,-7.2785,-7.3243,-7.4172,-7.5141,-7.5173,-7.5562,-7.5629,-7.5373,-7.5008,-7.4537,-7.4033,-7.3523,-7.3052,-7.316,-7.3342,-7.4138,-7.4645,-7.4573,-7.4359,-7.4283,-7.4421,-7.4186,-7.3963,-7.4108,-7.4416,-7.4664,-7.4705,-7.4903,-7.5057,-7.5057,-7.4903,-7.4745,-7.4843,-7.5076,-7.5245,-7.5374,-7.5392,-7.5263,-7.5226,-7.498,-7.5133,-7.5133,-7.532,-7.532,-7.5245,-7.5245,-7.5468,-7.6074,-7.6953,-7.8079,-7.9149,-7.9208,-7.879,-7.8636,-7.7798,-7.6979,-7.6826,-4.0915,-4.1099,-4.183,-4.256,-4.3224,-4.4144,-4.452,-4.4704,-4.7181,-4.8198,-4.8268,-5.0684,-5.1787,-5.1787,-5.2004,-5.2113,-5.2383,-5.268,-5.2947,-5.316,-5.3372,-5.3448,-5.35,-5.35,-5.3605,-5.4326,-5.541,-5.6656,-5.7606,-5.9024,-6.0259,-6.1002,-6.1119,-6.1119,-6.1119,-6.1119,-6.1119,-6.1119,-6.1119,-6.1384,-6.1848,-6.2785,-6.3183,-6.3868,-6.4674,-6.5138,-6.5205,-6.5404,-6.5603,-6.547,-6.5746,-6.6235,-6.6803,-6.7628,-6.8569,-7.0025,-7.0821,-7.1696,-7.3233,-7.3727,-7.4371,-7.5598,-7.5812,-7.5991,-7.6167,-7.5841,-7.5478,-7.4863,-7.4323,-7.3776,-7.3595,-7.374,-7.4138,-7.4718,-7.508,-7.5008,-7.4863,-7.5027,-7.5156,-7.5176,-7.4974,-7.4942,-7.5241,-7.5114,-7.5151,-7.5392,-7.5518,-7.5518,-7.5445,-7.5263,-7.5188,-7.5427,-7.5518,-7.5518,-7.5518,-7.5409,-7.5427,-7.5445,-7.5518,-7.5518,-7.5445,-7.5427,-7.5501,-7.5671,-7.5959,-7.6303,-7.6761,-7.8002,-7.9396,-7.907,-7.869,-7.8836,-7.8748,-7.7905,-7.7325,-4.142,-4.1489,-4.2325,-4.3098,-4.3884,-4.4505,-4.4573,-4.4803,-4.7206,-4.8329,-4.8384,-5.074,-5.1787,-5.1841,-5.2059,-5.2304,-5.2465,-5.2841,-5.3107,-5.3319,-5.3424,-5.3448,-5.35,-5.3605,-5.3762,-5.4633,-5.5827,-5.7181,-5.807,-5.9587,-6.0961,-6.1077,-6.1119,-6.1119,-6.1119,-6.1119,-6.1119,-6.1119,-6.1218,-6.155,-6.2179,-6.2917,-6.3547,-6.4111,-6.4906,-6.536,-6.5304,-6.558,-6.579,-6.5702,-6.6052,-6.6627,-6.7587,-6.8905,-6.9778,-7.1051,-7.1644,-7.2174,-7.3143,-7.3678,-7.4395,-7.5152,-7.5696,-7.5551,-7.5334,-7.5008,-7.4826,-7.45,-7.4175,-7.3921,-7.403,-7.4247,-7.4935,-7.5623,-7.5623,-7.5587,-7.572,-7.5847,-7.5983,-7.6132,-7.6067,-7.6015,-7.5913,-7.5699,-7.5518,-7.5518,-7.5518,-7.5518,-7.5518,-7.5427,-7.5374,-7.5501,-7.5518,-7.5518,-7.5518,-7.5518,-7.5518,-7.5518,-7.5518,-7.5518,-7.5518,-7.5518,-7.5518,-7.5959,-7.6494,-7.6838,-7.7182,-7.8252,-7.9302,-7.907,-7.9086,-7.9288,-7.922,-7.8618,-7.8244,-4.2293,-4.2333,-4.3247,-4.3937,-4.4492,-4.4376,-4.4309,-4.4704,-4.7461,-4.8564,-4.8611,-5.0684,-5.1841,-5.195,-5.2195,-5.2437,-5.2734,-5.3054,-5.3266,-5.353,-5.3448,-5.35,-5.3553,-5.3762,-5.389,-5.4684,-5.5876,-5.7339,-5.836,-5.9631,-6.0717,-6.1077,-6.1119,-6.1119,-6.1119,-6.1119,-6.1119,-6.1119,-6.1185,-6.145,-6.2179,-6.2851,-6.3382,-6.379,-6.4717,-6.5547,-6.5301,-6.5531,-6.6139,-6.6095,-6.6363,-6.7003,-6.8527,-7.0095,-7.0979,-7.1384,-7.1906,-7.2553,-7.2987,-7.3454,-7.3961,-7.4464,-7.4718,-7.5008,-7.508,-7.4826,-7.4682,-7.4211,-7.3849,-7.3921,-7.4066,-7.4102,-7.4609,-7.5189,-7.5442,-7.5659,-7.598,-7.625,-7.6573,-7.6588,-7.645,-7.6417,-7.6256,-7.6,-7.5518,-7.5518,-7.5518,-7.5518,-7.5518,-7.5518,-7.5518,-7.5518,-7.5518,-7.5518,-7.5518,-7.5518,-7.5518,-7.5518,-7.5518,-7.5518,-7.5518,-7.5518,-7.5518,-7.5844,-7.6265,-7.722,-7.787,-7.8557,-7.9225,-7.9891,-7.9907,-7.9897,-7.9599,-7.8897,-7.8846,-4.2213,-4.2226,-4.3279,-4.4016,-4.4328,-4.4357,-4.4285,-4.4532,-4.7104,-4.8166,-4.8584,-5.0573,-5.1896,-5.2113,-5.2383,-5.2734,-5.3001,-5.3213,-5.3424,-5.3477,-5.35,-5.35,-5.3553,-5.3815,-5.3993,-5.4633,-5.5827,-5.7434,-5.8844,-5.9794,-6.042,-6.1035,-6.1119,-6.1119,-6.1119,-6.1119,-6.1119,-6.1119,-6.1194,-6.1459,-6.2089,-6.2927,-6.359,-6.4285,-6.5213,-6.5711,-6.5708,-6.6091,-6.6225,-6.6182,-6.6516,-6.7495,-6.9015,-7.0575,-7.1336,-7.1504,-7.1825,-7.2549,-7.3124,-7.3486,-7.3993,-7.4899,-7.537,-7.5478,-7.5406,-7.5044,-7.4573,-7.3957,-7.3667,-7.3849,-7.3993,-7.403,-7.4247,-7.479,-7.5225,-7.5729,-7.62,-7.6656,-7.7052,-7.7018,-7.6828,-7.6665,-7.6522,-7.6135,-7.5692,-7.5518,-7.5518,-7.5518,-7.5518,-7.5518,-7.5518,-7.5518,-7.5518,-7.5518,-7.5518,-7.5518,-7.5518,-7.5518,-7.5518,-7.5518,-7.5518,-7.5671,-7.5786,-7.5633,-7.5921,-7.6838,-7.7564,-7.7984,-7.8746,-7.9662,-7.9887,-7.9514,-7.91,-7.8475,-7.8823,-4.2345,-4.2513,-4.3434,-4.4013,-4.4285,-4.4285,-4.4285,-4.4693,-4.6405,-4.7567,-4.8442,-5.0684,-5.2059,-5.2275,-5.268,-5.2947,-5.316,-5.3372,-5.3448,-5.35,-5.35,-5.35,-5.3658,-5.3867,-5.4097,-5.4633,-5.5827,-5.7386,-5.9234,-5.9707,-6.013,-6.0919,-6.1119,-6.1119,-6.1119,-6.1119,-6.1119,-6.1119,-6.1169,-6.1476,-6.1941,-6.2571,-6.3268,-6.4138,-6.4943,-6.5474,-6.5923,-6.628,-6.6736,-6.7044,-6.7616,-6.8098,-6.9238,-7.0267,-7.1074,-7.1653,-7.2219,-7.2798,-7.3269,-7.374,-7.4102,-7.4971,-7.5442,-7.5297,-7.4247,-7.3885,-7.4283,-7.374,-7.3197,-7.3233,-7.3486,-7.3559,-7.4283,-7.4935,-7.5218,-7.5578,-7.6432,-7.7275,-7.7744,-7.8166,-7.7786,-7.7202,-7.6865,-7.6043,-7.5639,-7.5518,-7.5518,-7.5518,-7.5518,-7.5518,-7.5518,-7.5518,-7.5518,-7.5518,-7.5518,-7.5518,-7.5518,-7.5518,-7.5518,-7.5518,-7.5556,-7.5862,-7.6036,-7.573,-7.5806,-7.6494,-7.7105,-7.7487,-7.7946,-7.8728,-7.8894,-7.8846,-7.8448,-7.8068,-7.8093,-4.257,-4.3012,-4.3615,-4.4013,-4.4285,-4.4285,-4.4285,-4.4508,-4.5707,-4.6858,-4.8152,-5.074,-5.195,-5.2437,-5.2787,-5.3001,-5.3213,-5.3395,-5.35,-5.35,-5.35,-5.35,-5.371,-5.3993,-5.4252,-5.4764,-5.5739,-5.7418,-5.9189,-5.9323,-5.9707,-6.0793,-6.1119,-6.1119,-6.1119,-6.1119,-6.1119,-6.1161,-6.121,-6.1334,-6.1634,-6.1958,-6.2773,-6.3633,-6.447,-6.5084,-6.564,-6.6305,-6.7134,-6.7776,-6.837,-6.8868,-6.9492,-7.0233,-7.0911,-7.1621,-7.2617,-7.3016,-7.3378,-7.4066,-7.4356,-7.4682,-7.4899,-7.45,-7.3523,-7.3342,-7.3704,-7.3486,-7.2907,-7.2798,-7.3016,-7.3269,-7.4066,-7.4971,-7.5215,-7.5483,-7.6509,-7.7427,-7.7942,-7.8538,-7.8079,-7.7414,-7.6903,-7.6026,-7.5679,-7.5521,-7.5518,-7.5518,-7.5518,-7.5518,-7.5518,-7.5518,-7.5518,-7.5518,-7.5518,-7.5518,-7.5518,-7.5518,-7.5518,-7.5518,-7.5556,-7.573,-7.5806,-7.5709,-7.5921,-7.6341,-7.6647,-7.6953,-7.7449,-7.804,-7.7955,-7.8037,-7.7889,-7.7508,-7.717,-4.3075,-4.3639,-4.4013,-4.4223,-4.4285,-4.4285,-4.4285,-4.4532,-4.5646,-4.6525,-4.7684,-4.9788,-5.1567,-5.2627,-5.2947,-5.316,-5.3372,-5.3448,-5.35,-5.35,-5.35,-5.35,-5.371,-5.4126,-5.459,-5.5048,-5.5601,-5.6638,-5.8391,-5.8664,-5.9367,-6.0994,-6.1119,-6.1119,-6.1119,-6.1119,-6.1119,-6.1161,-6.121,-6.1334,-6.1665,-6.2148,-6.2781,-6.3642,-6.4606,-6.521,-6.5774,-6.6398,-6.6795,-6.7407,-6.8293,-6.8833,-6.9386,-7.0094,-7.0911,-7.1452,-7.2452,-7.3197,-7.3631,-7.4138,-7.4395,-7.5261,-7.5297,-7.4504,-7.3704,-7.316,-7.3269,-7.2979,-7.2581,-7.2617,-7.2762,-7.2726,-7.3305,-7.4573,-7.5255,-7.5598,-7.6263,-7.6542,-7.6826,-7.7053,-7.6979,-7.6769,-7.677,-7.6081,-7.5562,-7.5501,-7.5518,-7.5518,-7.5518,-7.5518,-7.5518,-7.5518,-7.5518,-7.5518,-7.5518,-7.5518,-7.5518,-7.5518,-7.5518,-7.5518,-7.5518,-7.5501,-7.5539,-7.5556,-7.5747,-7.6091,-7.6303,-7.6835,-7.7214,-7.7747,-7.7373,-7.7226,-7.7115,-7.6986,-7.6662]},{"header":{"parameterUnit":"m.s-1","parameterCategory":1,"la1":31.0,"la2":29.5877,"lo1":-88.7671,"lo2":-86.6584,"dy":0.0162,"dx":0.0185,"nx":115,"ny":88,"refTime":"2023-10-09T18:00:00:Z","depth":0,"parameterNumber":3,"parameterNumberName":"V-component_of_WINDS"},"data":[0.0,0.0,0.0,0.0,0.0,0.0,0.0,0.0,0.0,0.0,0.0,0.0,0.0,0.0,0.0,0.0,0.0,0.0,0.0,0.0,0.0,0.0,0.0,0.0,0.0,0.0,0.0,0.0,0.0,0.0,0.0,0.0,0.0,0.0,0.0,0.0,0.0,0.0,0.0,0.0,0.0,0.0,0.0,0.0,0.0,0.0,0.0,0.0,0.0,0.0,0.0,0.0,0.0,0.0,0.0,0.0,0.0,0.0,0.0,0.0,0.0,0.0,0.0,0.0,0.0,0.0,0.0,0.0,0.0,0.0,0.0,0.0,0.0,0.0,0.0,0.0,0.0,0.0,0.0,0.0,0.0,0.0,0.0,0.0,0.0,0.0,0.0,0.0,0.0,0.0,0.0,0.0,0.0,0.0,0.0,0.0,0.0,0.0,0.0,0.0,0.0,0.0,0.0,0.0,0.0,0.0,0.0,0.0,0.0,0.0,0.0,0.0,0.0,0.0,0.0,0.0,0.0,0.0,0.0,0.0,0.0,0.0,0.0,0.0,0.0,0.0,0.0,0.0,0.0,0.0,0.0,0.0,0.0,0.0,0.0,0.0,0.0,0.0,0.0,0.0,0.0,0.0,0.0,0.0,0.0,0.0,0.0,0.0,0.0,0.0,0.0,0.0,0.0,0.0,0.0,0.0,0.0,0.0,0.0,0.0,0.0,0.0,0.0,0.0,0.0,0.0,0.0,0.0,0.0,0.0,0.0,0.0,0.0,0.0,0.0,0.0,0.0,0.0,0.0,0.0,0.0,0.0,0.0,0.0,0.0,0.0,0.0,0.0,0.0,0.0,0.0,0.0,0.0,0.0,0.0,0.0,0.0,0.0,0.0,0.0,0.0,0.0,0.0,0.0,0.0,0.0,0.0,0.0,0.0,0.0,0.0,0.0,0.0,0.0,0.0,0.0,0.0,0.0,0.0,0.0,0.0,0.0,0.0,0.0,0.0,0.0,0.0,0.0,0.0,0.0,0.0,0.0,0.0,0.0,0.0,0.0,0.0,0.0,0.0,0.0,0.0,0.0,0.0,0.0,0.0,0.0,0.0,0.0,0.0,0.0,0.0,0.0,0.0,0.0,0.0,0.0,0.0,0.0,0.0,0.0,0.0,0.0,0.0,0.0,0.0,0.0,0.0,0.0,0.0,0.0,0.0,0.0,0.0,0.0,0.0,0.0,0.0,0.0,0.0,0.0,0.0,0.0,0.0,0.0,0.0,0.0,0.0,0.0,0.0,0.0,0.0,0.0,0.0,0.0,0.0,0.0,0.0,0.0,0.0,0.0,0.0,0.0,0.0,0.0,0.0,0.0,0.0,0.0,0.0,0.0,0.0,0.0,0.0,0.0,0.0,0.0,0.0,0.0,0.0,0.0,0.0,0.0,0.0,0.0,0.0,0.0,0.0,0.0,0.0,0.0,0.0,0.0,0.0,0.0,0.0,0.0,0.0,0.0,0.0,0.0,0.0,0.0,0.0,0.0,0.0,0.0,0.0,0.0,0.0,0.0,0.0,0.0,0.0,0.0,0.0,0.0,0.0,0.0,0.0,0.0,0.0,0.0,0.0,0.0,0.0,0.0,0.0,0.0,0.0,0.0,0.0,0.0,0.0,0.0,0.0,0.0,0.0,0.0,0.0,0.0,0.0,0.0,0.0,0.0,0.0,0.0,0.0,0.0,0.0,0.0,0.0,0.0,0.0,0.0,0.0,0.0,0.0,0.0,0.0,0.0,0.0,0.0,0.0,0.0,0.0,0.0,0.0,0.0,0.0,0.0,0.0,0.0,0.0,0.0,0.0,0.0,0.0,0.0,0.0,0.0,0.0,0.0,0.0,0.0,0.0,0.0,0.0,0.0,0.0,0.0,0.0,0.0,0.0,0.0,0.0,0.0,0.0,0.0,0.0,0.0,0.0,0.0,0.0,0.0,0.0,0.0,0.0,0.0,0.0,0.0,0.0,0.0,0.0,0.0,0.0,0.0,0.0,0.0,0.0,0.0,0.0,0.0,0.0,0.0,0.0,0.0,0.0,0.0,0.0,0.0,0.0,0.0,0.0,0.0,0.0,0.0,0.0,0.0,0.0,0.0,0.0,0.0,0.0,0.0,0.0,0.0,0.0,0.0,0.0,0.0,0.0,0.0,0.0,0.0,0.0,0.0,0.0,0.0,0.0,0.0,0.0,0.0,0.0,0.0,0.0,0.0,0.0,0.0,0.0,0.0,0.0,0.0,0.0,0.0,0.0,0.0,0.0,0.0,0.0,0.0,0.0,0.0,0.0,0.0,0.0,0.0,0.0,0.0,0.0,0.0,0.0,0.0,0.0,0.0,0.0,0.0,0.0,0.0,0.0,0.0,0.0,0.0,0.0,0.0,0.0,0.0,0.0,0.0,0.0,0.0,0.0,0.0,0.0,0.0,0.0,0.0,0.0,0.0,0.0,0.0,0.0,0.0,0.0,0.0,0.0,0.0,0.0,0.0,0.0,0.0,0.0,0.0,0.0,0.0,0.0,0.0,0.0,0.0,0.0,0.0,0.0,0.0,0.0,0.0,0.0,0.0,0.0,0.0,0.0,0.0,0.0,0.0,0.0,0.0,0.0,0.0,0.0,0.0,0.0,0.0,0.0,0.0,0.0,0.0,0.0,0.0,0.0,0.0,0.0,0.0,0.0,0.0,0.0,0.0,0.0,0.0,0.0,0.0,0.0,0.0,0.0,0.0,0.0,0.0,0.0,0.0,0.0,0.0,0.0,0.0,0.0,0.0,0.0,0.0,0.0,0.0,0.0,0.0,0.0,0.0,0.0,0.0,0.0,0.0,0.0,0.0,0.0,0.0,0.0,0.0,0.0,0.0,0.0,0.0,0.0,0.0,0.0,0.0,0.0,0.0,0.0,0.0,0.0,0.0,0.0,0.0,0.0,0.0,0.0,0.0,0.0,0.0,0.0,0.0,0.0,0.0,0.0,0.0,0.0,0.0,0.0,0.0,0.0,0.0,0.0,0.0,0.0,0.0,0.0,0.0,0.0,0.0,0.0,0.0,0.0,0.0,0.0,0.0,0.0,0.0,0.0,0.0,0.0,0.0,0.0,0.0,0.0,0.0,0.0,0.0,0.0,0.0,0.0,0.0,0.0,0.0,0.0,0.0,0.0,0.0,0.0,0.0,0.0,0.0,0.0,0.0,0.0,0.0,0.0,0.0,0.0,0.0,0.0,0.0,0.0,0.0,0.0,0.0,0.0,0.0,0.0,0.0,0.0,0.0,0.0,0.0,0.0,0.0,0.0,0.0,0.0,0.0,0.0,0.0,0.0,0.0,0.0,0.0,0.0,0.0,0.0,0.0,0.0,0.0,0.0,0.0,0.0,0.0,0.0,0.0,0.0,0.0,0.0,0.0,0.0,0.0,0.0,0.0,0.0,0.0,0.0,0.0,0.0,0.0,0.0,0.0,0.0,0.0,0.0,0.0,0.0,0.0,0.0,0.0,0.0,0.0,0.0,0.0,0.0,0.0,0.0,0.0,0.0,0.0,0.0,0.0,0.0,0.0,0.0,0.0,0.0,0.0,0.0,0.0,0.0,0.0,0.0,0.0,0.0,0.0,0.0,0.0,0.0,0.0,0.0,0.0,0.0,0.0,0.0,0.0,0.0,0.0,0.0,0.0,0.0,0.0,0.0,0.0,0.0,0.0,0.0,0.0,0.0,0.0,0.0,0.0,0.0,0.0,0.0,0.0,0.0,0.0,0.0,0.0,0.0,0.0,0.0,0.0,0.0,0.0,0.0,0.0,0.0,0.0,0.0,0.0,0.0,0.0,0.0,0.0,0.0,0.0,0.0,0.0,0.0,0.0,0.0,0.0,0.0,0.0,0.0,0.0,0.0,0.0,0.0,0.0,0.0,0.0,0.0,0.0,0.0,0.0,0.0,0.0,0.0,0.0,0.0,0.0,0.0,0.0,0.0,0.0,0.0,0.0,0.0,0.0,0.0,0.0,0.0,0.0,0.0,0.0,0.0,0.0,0.0,0.0,0.0,0.0,0.0,0.0,0.0,0.0,0.0,0.0,0.0,0.0,0.0,0.0,0.0,0.0,0.0,0.0,0.0,0.0,0.0,0.0,0.0,0.0,0.0,0.0,0.0,0.0,0.0,0.0,0.0,0.0,0.0,0.0,0.0,0.0,0.0,0.0,0.0,0.0,0.0,0.0,0.0,0.0,0.0,0.0,0.0,0.0,0.0,0.0,0.0,0.0,2.9189,0.0,0.0,0.0,0.0,0.0,0.0,0.0,0.0,0.0,0.0,0.0,0.0,0.0,0.0,0.0,0.0,0.0,0.0,0.0,0.0,0.0,0.0,0.0,0.0,0.0,0.0,0.0,0.0,0.0,0.0,0.0,0.0,0.0,0.0,0.0,0.0,0.0,0.0,0.0,0.0,0.0,0.0,0.0,0.0,0.0,0.0,0.0,0.0,0.0,0.0,0.0,0.0,0.0,0.0,0.0,0.0,0.0,0.0,0.0,0.0,0.0,0.0,0.0,0.0,0.0,0.0,0.0,0.0,0.0,0.0,0.0,0.0,0.0,0.0,0.0,0.0,0.0,0.0,0.0,0.0,0.0,0.0,0.0,0.0,0.0,0.0,0.0,0.0,0.0,0.0,0.0,0.0,0.0,0.0,0.0,0.0,0.0,0.0,0.0,0.0,0.0,0.0,0.0,0.0,0.0,0.0,0.0,0.0,0.0,0.0,2.8893,2.8929,2.894,2.8987,2.9078,0.0,0.0,0.0,0.0,0.0,0.0,0.0,0.0,0.0,0.0,0.0,0.0,0.0,0.0,0.0,0.0,0.0,0.0,0.0,0.0,0.0,0.0,0.0,0.0,0.0,0.0,0.0,0.0,0.0,0.0,0.0,0.0,0.0,0.0,0.0,0.0,0.0,0.0,0.0,0.0,0.0,0.0,0.0,0.0,0.0,0.0,0.0,0.0,0.0,0.0,0.0,0.0,0.0,0.0,0.0,0.0,0.0,0.0,0.0,0.0,0.0,0.0,0.0,0.0,0.0,0.0,0.0,0.0,0.0,0.0,0.0,0.0,0.0,0.0,0.0,0.0,0.0,0.0,0.0,0.0,0.0,0.0,0.0,0.0,0.0,0.0,0.0,0.0,0.0,0.0,0.0,0.0,0.0,0.0,0.0,0.0,0.0,0.0,0.0,0.0,0.0,0.0,0.0,0.0,0.0,0.0,0.0,0.0,0.0,0.0,0.0,0.0,2.8798,2.8858,2.8987,0.0,0.0,0.0,0.0,0.0,0.0,0.0,0.0,0.0,0.0,0.0,0.0,0.0,0.0,0.0,0.0,0.0,0.0,0.0,0.0,0.0,0.0,0.0,0.0,0.0,0.0,0.0,0.0,0.0,0.0,0.0,0.0,0.0,0.0,0.0,0.0,0.0,0.0,0.0,0.0,0.0,0.0,0.0,0.0,0.0,0.0,0.0,0.0,0.0,0.0,0.0,0.0,0.0,0.0,0.0,0.0,0.0,0.0,0.0,0.0,0.0,0.0,0.0,0.0,0.0,0.0,0.0,0.0,0.0,0.0,0.0,0.0,0.0,0.0,0.0,0.0,0.0,0.0,0.0,0.0,0.0,0.0,0.0,0.0,0.0,0.0,0.0,0.0,0.0,0.0,0.0,0.0,0.0,0.0,0.0,0.0,0.0,0.0,0.0,0.0,0.0,0.0,0.0,0.0,0.0,0.0,0.0,0.0,0.0,0.0,2.8798,2.8798,2.8798,0.0,2.9012,0.0,0.0,0.0,0.0,0.0,0.0,0.0,0.0,0.0,0.0,0.0,0.0,0.0,0.0,0.0,0.0,0.0,0.0,0.0,0.0,0.0,0.0,0.0,0.0,0.0,0.0,0.0,0.0,0.0,0.0,0.0,0.0,0.0,0.0,0.0,0.0,0.0,0.0,0.0,0.0,0.0,0.0,0.0,0.0,0.0,0.0,0.0,0.0,0.0,0.0,0.0,0.0,0.0,0.0,0.0,0.0,0.0,0.0,0.0,0.0,0.0,0.0,0.0,0.0,0.0,0.0,0.0,0.0,0.0,0.0,0.0,0.0,0.0,0.0,0.0,0.0,0.0,0.0,0.0,0.0,0.0,0.0,0.0,0.0,0.0,0.0,0.0,0.0,0.0,0.0,0.0,0.0,0.0,0.0,0.0,0.0,0.0,0.0,0.0,0.0,0.0,0.0,0.0,0.0,0.0,0.0,0.0,0.0,0.0,0.0,2.8562,2.8562,2.8712,2.8822,0.0,0.0,0.0,0.0,0.0,0.0,0.0,0.0,0.0,0.0,0.0,0.0,0.0,0.0,0.0,0.0,0.0,0.0,0.0,0.0,0.0,0.0,0.0,0.0,0.0,0.0,0.0,0.0,0.0,0.0,0.0,0.0,0.0,0.0,0.0,0.0,0.0,0.0,0.0,0.0,0.0,0.0,0.0,0.0,0.0,0.0,0.0,0.0,0.0,0.0,0.0,0.0,0.0,0.0,0.0,0.0,0.0,0.0,0.0,0.0,0.0,0.0,0.0,0.0,0.0,0.0,0.0,0.0,0.0,0.0,0.0,0.0,0.0,0.0,0.0,0.0,0.0,0.0,0.0,0.0,0.0,0.0,0.0,0.0,0.0,0.0,0.0,0.0,0.0,0.0,0.0,0.0,0.0,0.0,0.0,0.0,0.0,0.0,0.0,0.0,0.0,0.0,0.0,0.0,0.0,0.0,0.0,0.0,0.0,0.0,2.8393,2.8393,2.8406,2.8587,2.87,2.8737,0.0,0.0,0.0,0.0,0.0,0.0,0.0,0.0,0.0,0.0,0.0,0.0,0.0,0.0,0.0,0.0,0.0,0.0,0.0,0.0,0.0,0.0,0.0,0.0,0.0,0.0,0.0,0.0,0.0,0.0,0.0,0.0,0.0,0.0,0.0,0.0,0.0,0.0,0.0,0.0,0.0,0.0,0.0,0.0,0.0,0.0,0.0,0.0,0.0,0.0,0.0,0.0,0.0,0.0,0.0,0.0,0.0,0.0,0.0,0.0,0.0,0.0,0.0,0.0,0.0,0.0,0.0,0.0,0.0,0.0,0.0,0.0,0.0,0.0,0.0,0.0,0.0,0.0,0.0,0.0,0.0,0.0,0.0,0.0,0.0,0.0,0.0,0.0,0.0,0.0,0.0,0.0,0.0,0.0,0.0,0.0,0.0,0.0,0.0,0.0,0.0,0.0,0.0,0.0,0.0,0.0,0.0,0.0,2.8393,2.8429,2.8429,2.8429,2.8406,2.8471,0.0,0.0,0.0,0.0,0.0,0.0,0.0,0.0,0.0,0.0,0.0,0.0,0.0,0.0,0.0,0.0,0.0,0.0,0.0,0.0,0.0,0.0,0.0,0.0,0.0,0.0,0.0,0.0,0.0,0.0,0.0,0.0,0.0,0.0,0.0,0.0,0.0,0.0,0.0,0.0,0.0,0.0,0.0,0.0,0.0,0.0,0.0,0.0,0.0,0.0,0.0,0.0,0.0,0.0,0.0,0.0,0.0,0.0,0.0,0.0,0.0,0.0,0.0,0.0,0.0,0.0,0.0,0.0,0.0,0.0,0.0,0.0,0.0,0.0,0.0,0.0,0.0,0.0,0.0,0.0,0.0,0.0,0.0,0.0,0.0,0.0,0.0,0.0,0.0,0.0,0.0,0.0,0.0,0.0,0.0,0.0,0.0,0.0,0.0,0.0,0.0,0.0,0.0,0.0,0.0,0.0,0.0,0.0,0.0,2.8295,2.8815,2.9102,2.9046,2.9129,2.8986,0.0,0.0,0.0,0.0,0.0,0.0,0.0,0.0,0.0,0.0,0.0,0.0,0.0,0.0,0.0,0.0,0.0,0.0,0.0,0.0,0.0,0.0,0.0,0.0,0.0,0.0,0.0,0.0,0.0,0.0,0.0,0.0,0.0,0.0,0.0,0.0,0.0,0.0,0.0,0.0,0.0,0.0,0.0,0.0,0.0,0.0,0.0,0.0,0.0,0.0,0.0,0.0,0.0,0.0,0.0,0.0,0.0,0.0,0.0,0.0,0.0,0.0,0.0,0.0,0.0,0.0,0.0,0.0,0.0,0.0,0.0,0.0,0.0,0.0,0.0,0.0,0.0,0.0,0.0,0.0,0.0,0.0,0.0,0.0,0.0,0.0,0.0,0.0,0.0,0.0,0.0,0.0,0.0,0.0,0.0,0.0,0.0,0.0,0.0,0.0,0.0,0.0,0.0,0.0,0.0,0.0,0.0,0.0,0.0,2.892,0.0,2.9733,2.971,2.9776,2.9482,0.0,0.0,0.0,0.0,0.0,0.0,0.0,0.0,0.0,0.0,0.0,0.0,0.0,0.0,0.0,0.0,0.0,0.0,0.0,0.0,0.0,0.0,0.0,0.0,0.0,0.0,0.0,0.0,0.0,0.0,0.0,0.0,0.0,0.0,0.0,0.0,0.0,0.0,0.0,0.0,0.0,0.0,0.0,0.0,0.0,0.0,0.0,0.0,0.0,0.0,0.0,0.0,0.0,0.0,0.0,0.0,0.0,0.0,0.0,0.0,0.0,0.0,0.0,0.0,0.0,0.0,0.0,0.0,0.0,0.0,0.0,0.0,0.0,0.0,0.0,0.0,0.0,0.0,0.0,0.0,0.0,0.0,0.0,0.0,0.0,0.0,0.0,0.0,0.0,0.0,0.0,0.0,0.0,0.0,0.0,0.0,0.0,0.0,0.0,0.0,0.0,0.0,0.0,0.0,0.0,0.0,0.0,0.0,2.9716,3.0376,3.0371,3.0395,3.0344,3.0395,3.0077,0.0,0.0,0.0,0.0,0.0,0.0,0.0,0.0,0.0,0.0,0.0,0.0,0.0,0.0,0.0,0.0,0.0,0.0,0.0,0.0,0.0,0.0,0.0,0.0,0.0,0.0,0.0,0.0,0.0,0.0,0.0,0.0,0.0,0.0,0.0,0.0,0.0,0.0,0.0,0.0,0.0,0.0,0.0,0.0,0.0,0.0,0.0,0.0,0.0,0.0,0.0,0.0,0.0,0.0,0.0,0.0,0.0,0.0,0.0,0.0,0.0,0.0,0.0,0.0,0.0,0.0,0.0,0.0,0.0,0.0,0.0,0.0,0.0,0.0,0.0,0.0,0.0,0.0,0.0,0.0,0.0,0.0,0.0,0.0,0.0,0.0,0.0,0.0,0.0,0.0,0.0,0.0,0.0,0.0,0.0,0.0,0.0,0.0,0.0,0.0,0.0,0.0,0.0,0.0,0.0,0.0,0.0,0.0,0.0,3.2125,3.201,3.2178,3.266,3.2183,3.156,0.0,0.0,0.0,0.0,0.0,0.0,0.0,0.0,0.0,0.0,0.0,0.0,0.0,0.0,0.0,0.0,0.0,0.0,0.0,0.0,0.0,0.0,0.0,0.0,0.0,0.0,0.0,0.0,0.0,0.0,0.0,0.0,0.0,0.0,0.0,0.0,0.0,0.0,0.0,0.0,0.0,0.0,0.0,0.0,0.0,0.0,0.0,0.0,0.0,0.0,0.0,0.0,0.0,0.0,0.0,0.0,0.0,0.0,0.0,0.0,0.0,0.0,0.0,0.0,0.0,0.0,0.0,0.0,0.0,0.0,0.0,0.0,0.0,0.0,0.0,0.0,0.0,0.0,0.0,0.0,0.0,0.0,0.0,0.0,0.0,0.0,0.0,0.0,0.0,0.0,0.0,0.0,0.0,0.0,0.0,0.0,0.0,0.0,0.0,0.0,0.0,0.0,0.0,0.0,0.0,0.0,0.0,0.0,0.0,3.4677,3.4111,3.397,3.4408,3.3652,3.2825,3.1914,0.0,0.0,0.0,0.0,0.0,0.0,0.0,0.0,0.0,0.0,0.0,0.0,0.0,0.0,0.0,0.0,0.0,0.0,0.0,0.0,0.0,0.0,0.0,0.0,0.0,0.0,0.0,0.0,0.0,0.0,0.0,0.0,0.0,0.0,0.0,0.0,0.0,0.0,0.0,0.0,0.0,0.0,0.0,0.0,0.0,0.0,0.0,0.0,0.0,0.0,0.0,0.0,0.0,0.0,0.0,0.0,0.0,0.0,0.0,0.0,0.0,0.0,0.0,0.0,0.0,0.0,0.0,0.0,0.0,0.0,0.0,0.0,0.0,0.0,0.0,0.0,0.0,0.0,0.0,0.0,0.0,0.0,0.0,0.0,0.0,0.0,0.0,0.0,0.0,0.0,0.0,0.0,0.0,0.0,0.0,0.0,0.0,0.0,0.0,0.0,0.0,0.0,0.0,0.0,0.0,0.0,0.0,0.0,3.8035,3.6609,3.5838,3.5754,3.4975,3.3961,0.0,0.0,0.0,0.0,0.0,0.0,0.0,0.0,0.0,0.0,0.0,0.0,0.0,0.0,0.0,0.0,0.0,0.0,0.0,0.0,0.0,0.0,0.0,0.0,0.0,0.0,0.0,0.0,0.0,0.0,0.0,0.0,0.0,0.0,0.0,0.0,0.0,0.0,0.0,0.0,0.0,0.0,0.0,0.0,0.0,0.0,0.0,0.0,0.0,0.0,0.0,0.0,0.0,0.0,0.0,0.0,0.0,0.0,0.0,0.0,0.0,0.0,0.0,0.0,0.0,0.0,0.0,0.0,0.0,0.0,0.0,0.0,0.0,0.0,0.0,0.0,0.0,0.0,0.0,0.0,0.0,0.0,0.0,0.0,0.0,0.0,0.0,0.0,0.0,0.0,0.0,0.0,0.0,0.0,0.0,0.0,0.0,0.0,0.0,0.0,0.0,0.0,0.0,0.0,0.0,0.0,0.0,0.0,0.0,4.0065,4.0018,3.9536,3.8605,3.7561,3.6297,0.0,0.0,0.0,0.0,0.0,0.0,0.0,0.0,0.0,0.0,0.0,0.0,0.0,0.0,0.0,0.0,0.0,0.0,0.0,0.0,0.0,0.0,0.0,0.0,0.0,0.0,0.0,0.0,0.0,0.0,0.0,0.0,0.0,0.0,0.0,0.0,0.0,0.0,0.0,0.0,0.0,0.0,0.0,0.0,0.0,0.0,0.0,0.0,0.0,0.0,0.0,0.0,0.0,0.0,0.0,0.0,0.0,0.0,0.0,0.0,0.0,0.0,0.0,0.0,0.0,0.0,0.0,0.0,0.0,0.0,0.0,0.0,0.0,0.0,0.0,0.0,0.0,0.0,0.0,0.0,0.0,0.0,0.0,0.0,0.0,0.0,0.0,0.0,0.0,0.0,0.0,0.0,0.0,0.0,0.0,0.0,0.0,0.0,0.0,0.0,0.0,0.0,0.0,0.0,0.0,0.0,0.0,0.0,3.9298,4.1322,4.1988,4.1971,4.1296,3.9215,3.7353,0.0,0.0,0.0,0.0,0.0,0.0,0.0,0.0,0.0,0.0,0.0,0.0,0.0,0.0,0.0,0.0,0.0,0.0,0.0,0.0,0.0,0.0,0.0,0.0,0.0,0.0,0.0,0.0,0.0,0.0,0.0,0.0,0.0,0.0,0.0,0.0,0.0,0.0,0.0,0.0,0.0,0.0,0.0,0.0,0.0,0.0,0.0,0.0,0.0,0.0,0.0,0.0,0.0,0.0,0.0,0.0,0.0,0.0,0.0,0.0,0.0,0.0,0.0,0.0,0.0,0.0,0.0,0.0,0.0,0.0,0.0,0.0,0.0,0.0,0.0,0.0,0.0,0.0,0.0,0.0,0.0,0.0,0.0,0.0,0.0,0.0,0.0,0.0,0.0,0.0,0.0,0.0,0.0,0.0,0.0,0.0,0.0,0.0,0.0,0.0,0.0,0.0,0.0,0.0,0.0,0.0,0.0,0.0,3.9986,4.1995,4.3053,4.3532,4.3389,4.0466,3.7936,0.0,0.0,0.0,0.0,0.0,0.0,0.0,0.0,0.0,0.0,0.0,0.0,0.0,0.0,0.0,0.0,0.0,0.0,0.0,0.0,0.0,0.0,0.0,0.0,0.0,0.0,0.0,0.0,0.0,0.0,0.0,0.0,0.0,0.0,0.0,0.0,0.0,0.0,0.0,0.0,0.0,0.0,0.0,0.0,0.0,0.0,0.0,0.0,0.0,0.0,0.0,0.0,0.0,0.0,0.0,0.0,0.0,0.0,0.0,0.0,0.0,0.0,0.0,0.0,0.0,0.0,0.0,0.0,0.0,0.0,0.0,0.0,0.0,0.0,0.0,0.0,0.0,0.0,0.0,0.0,0.0,0.0,0.0,0.0,0.0,0.0,0.0,0.0,0.0,0.0,0.0,0.0,0.0,0.0,0.0,0.0,0.0,0.0,0.0,0.0,0.0,0.0,0.0,0.0,0.0,0.0,0.0,0.0,4.1476,4.2812,4.405,4.4367,4.3788,4.2196,4.0354,0.0,0.0,0.0,0.0,0.0,0.0,0.0,0.0,0.0,0.0,0.0,0.0,0.0,0.0,0.0,0.0,0.0,0.0,0.0,0.0,0.0,0.0,0.0,0.0,0.0,0.0,0.0,0.0,0.0,0.0,0.0,0.0,0.0,0.0,0.0,0.0,0.0,0.0,0.0,0.0,0.0,0.0,0.0,0.0,0.0,0.0,0.0,0.0,4.2791,0.0,0.0,0.0,0.0,0.0,0.0,0.0,0.0,0.0,0.0,0.0,0.0,0.0,0.0,0.0,0.0,0.0,0.0,0.0,0.0,0.0,0.0,0.0,0.0,0.0,0.0,0.0,0.0,0.0,0.0,0.0,0.0,0.0,0.0,0.0,0.0,0.0,0.0,0.0,0.0,0.0,0.0,0.0,0.0,0.0,0.0,0.0,0.0,0.0,0.0,0.0,0.0,0.0,0.0,0.0,0.0,0.0,0.0,0.0,4.2335,4.3088,4.4342,4.468,4.3928,4.3047,4.1404,0.0,0.0,0.0,0.0,0.0,0.0,0.0,0.0,0.0,0.0,0.0,0.0,0.0,0.0,0.0,0.0,0.0,0.0,0.0,0.0,0.0,0.0,0.0,0.0,0.0,0.0,0.0,0.0,0.0,0.0,0.0,0.0,0.0,0.0,0.0,0.0,0.0,0.0,0.0,0.0,0.0,0.0,0.0,0.0,0.0,0.0,0.0,0.0,0.0,0.0,0.0,0.0,0.0,0.0,0.0,0.0,0.0,0.0,0.0,0.0,0.0,0.0,0.0,0.0,0.0,0.0,0.0,0.0,0.0,0.0,0.0,0.0,0.0,0.0,0.0,0.0,0.0,0.0,0.0,0.0,0.0,0.0,0.0,0.0,0.0,0.0,0.0,0.0,0.0,0.0,0.0,0.0,0.0,0.0,0.0,0.0,0.0,0.0,0.0,0.0,0.0,0.0,0.0,0.0,0.0,0.0,0.0,4.1362,4.287,4.3269,4.4437,4.4768,4.4152,4.3494,4.1957,3.9377,0.0,0.0,0.0,0.0,0.0,0.0,0.0,0.0,0.0,0.0,0.0,0.0,0.0,0.0,0.0,0.0,0.0,0.0,0.0,0.0,0.0,0.0,0.0,0.0,0.0,0.0,0.0,0.0,0.0,0.0,0.0,0.0,0.0,0.0,0.0,0.0,0.0,0.0,3.672,3.9155,0.0,0.0,0.0,0.0,0.0,0.0,0.0,0.0,4.4536,0.0,0.0,0.0,0.0,0.0,0.0,0.0,0.0,0.0,0.0,0.0,0.0,0.0,0.0,0.0,0.0,0.0,0.0,0.0,0.0,0.0,0.0,0.0,0.0,0.0,0.0,0.0,0.0,0.0,0.0,0.0,0.0,0.0,0.0,0.0,0.0,0.0,0.0,0.0,0.0,0.0,0.0,0.0,0.0,0.0,0.0,0.0,0.0,0.0,0.0,0.0,0.0,0.0,0.0,0.0,0.0,4.0158,4.2013,4.3267,4.395,4.487,4.5275,4.5138,4.4048,4.2694,4.1086,0.0,0.0,0.0,0.0,0.0,0.0,0.0,0.0,0.0,0.0,0.0,0.0,0.0,0.0,0.0,0.0,0.0,0.0,0.0,0.0,0.0,0.0,0.0,0.0,0.0,0.0,0.0,0.0,0.0,0.0,0.0,0.0,0.0,0.0,0.0,0.0,0.0,0.0,0.0,4.2205,4.4372,0.0,0.0,0.0,0.0,0.0,0.0,0.0,0.0,4.6298,0.0,0.0,0.0,0.0,0.0,0.0,0.0,0.0,0.0,0.0,0.0,0.0,0.0,0.0,0.0,0.0,0.0,0.0,0.0,0.0,0.0,0.0,0.0,0.0,0.0,0.0,0.0,0.0,0.0,0.0,0.0,0.0,0.0,0.0,0.0,0.0,0.0,0.0,0.0,0.0,0.0,0.0,0.0,0.0,0.0,0.0,0.0,0.0,0.0,0.0,0.0,0.0,0.0,0.0,0.0,4.1188,4.3007,4.4021,4.4234,4.4992,4.5225,4.4837,4.4059,4.2812,0.0,0.0,0.0,0.0,0.0,0.0,0.0,0.0,0.0,0.0,0.0,0.0,0.0,0.0,0.0,0.0,0.0,0.0,0.0,0.0,0.0,0.0,0.0,0.0,0.0,0.0,0.0,0.0,0.0,0.0,0.0,0.0,0.0,0.0,0.0,0.0,0.0,0.0,0.0,0.0,4.3649,4.5369,4.6593,0.0,0.0,0.0,0.0,0.0,0.0,4.7554,4.7049,0.0,0.0,0.0,0.0,0.0,0.0,0.0,0.0,0.0,0.0,0.0,0.0,0.0,0.0,0.0,0.0,0.0,0.0,0.0,0.0,0.0,0.0,0.0,0.0,0.0,0.0,0.0,0.0,0.0,0.0,0.0,0.0,0.0,0.0,0.0,0.0,0.0,0.0,0.0,0.0,0.0,0.0,0.0,0.0,0.0,0.0,0.0,0.0,0.0,0.0,0.0,0.0,0.0,0.0,0.0,4.2086,4.3851,4.4734,4.4604,4.5139,4.5174,4.4552,4.4042,4.2961,0.0,0.0,0.0,0.0,0.0,0.0,0.0,0.0,0.0,0.0,0.0,0.0,0.0,0.0,0.0,0.0,0.0,0.0,0.0,0.0,0.0,0.0,0.0,0.0,0.0,0.0,0.0,0.0,0.0,0.0,0.0,0.0,0.0,0.0,0.0,0.0,0.0,0.0,0.0,0.0,0.0,4.6339,4.856,4.8579,0.0,0.0,0.0,0.0,4.8653,4.8231,0.0,0.0,0.0,0.0,0.0,0.0,0.0,0.0,0.0,0.0,0.0,0.0,0.0,0.0,0.0,0.0,0.0,0.0,0.0,0.0,0.0,0.0,0.0,0.0,0.0,0.0,0.0,0.0,0.0,0.0,0.0,0.0,0.0,0.0,0.0,0.0,0.0,0.0,0.0,0.0,0.0,0.0,0.0,0.0,0.0,0.0,0.0,0.0,0.0,0.0,0.0,0.0,0.0,0.0,0.0,0.0,4.3044,4.4179,4.5003,4.5433,4.5546,4.5494,4.5285,4.4528,4.3703,0.0,0.0,0.0,0.0,0.0,0.0,0.0,0.0,0.0,0.0,0.0,0.0,0.0,0.0,0.0,0.0,0.0,0.0,0.0,0.0,0.0,0.0,0.0,0.0,0.0,0.0,0.0,0.0,0.0,0.0,0.0,0.0,0.0,0.0,0.0,0.0,0.0,0.0,0.0,0.0,0.0,4.8668,5.0371,5.1223,5.1594,0.0,0.0,5.114,5.0805,5.0504,0.0,0.0,0.0,0.0,0.0,0.0,0.0,0.0,0.0,0.0,0.0,0.0,0.0,0.0,0.0,0.0,0.0,0.0,0.0,0.0,0.0,0.0,0.0,0.0,0.0,0.0,0.0,0.0,0.0,0.0,0.0,0.0,0.0,0.0,0.0,0.0,0.0,0.0,0.0,0.0,0.0,0.0,0.0,0.0,0.0,0.0,0.0,0.0,0.0,0.0,0.0,0.0,0.0,0.0,0.0,4.2439,4.3898,4.4881,4.549,4.5701,4.5736,4.5684,4.5598,4.5247,4.4445,0.0,0.0,0.0,0.0,0.0,0.0,0.0,0.0,0.0,0.0,0.0,0.0,0.0,0.0,0.0,0.0,0.0,0.0,0.0,0.0,0.0,0.0,0.0,0.0,0.0,0.0,0.0,0.0,0.0,0.0,0.0,0.0,0.0,0.0,0.0,0.0,0.0,0.0,0.0,0.0,0.0,0.0,5.0434,5.1298,0.0,0.0,0.0,5.1026,5.0853,0.0,0.0,0.0,0.0,0.0,0.0,0.0,0.0,0.0,0.0,0.0,0.0,0.0,0.0,0.0,0.0,0.0,0.0,0.0,0.0,0.0,0.0,0.0,0.0,0.0,0.0,0.0,0.0,0.0,0.0,0.0,0.0,0.0,0.0,0.0,0.0,0.0,0.0,0.0,0.0,0.0,0.0,0.0,0.0,0.0,0.0,0.0,0.0,0.0,0.0,0.0,0.0,0.0,0.0,0.0,0.0,0.0,4.4528,4.5372,4.5803,4.5863,4.5863,4.5838,4.5778,4.5694,0.0,0.0,0.0,0.0,0.0,0.0,0.0,0.0,0.0,0.0,0.0,0.0,0.0,0.0,0.0,0.0,0.0,0.0,0.0,0.0,0.0,0.0,0.0,0.0,0.0,0.0,0.0,3.6833,0.0,0.0,0.0,0.0,0.0,0.0,0.0,0.0,0.0,0.0,0.0,0.0,0.0,0.0,5.0397,5.1224,5.2255,5.2714,0.0,0.0,5.1433,5.1179,5.0786,5.0213,0.0,0.0,0.0,0.0,0.0,0.0,0.0,0.0,0.0,0.0,0.0,0.0,0.0,0.0,0.0,0.0,0.0,0.0,0.0,0.0,0.0,0.0,0.0,0.0,0.0,0.0,0.0,0.0,0.0,0.0,0.0,0.0,0.0,0.0,0.0,0.0,0.0,0.0,0.0,0.0,0.0,0.0,0.0,0.0,0.0,0.0,0.0,0.0,0.0,0.0,0.0,0.0,0.0,0.0,4.3461,4.4671,4.542,4.5863,4.599,4.5955,4.5939,4.5803,4.5551,4.5088,0.0,0.0,0.0,0.0,0.0,0.0,0.0,0.0,0.0,0.0,0.0,0.0,0.0,0.0,0.0,0.0,0.0,0.0,0.0,0.0,0.0,0.0,0.0,0.0,0.0,0.0,0.0,0.0,0.0,0.0,0.0,0.0,0.0,0.0,0.0,0.0,0.0,0.0,0.0,0.0,0.0,5.2139,5.3971,5.5477,5.6108,0.0,5.4458,5.3653,5.2792,5.2033,5.1294,5.0519,0.0,0.0,0.0,0.0,0.0,0.0,0.0,0.0,0.0,0.0,0.0,0.0,0.0,0.0,0.0,0.0,0.0,0.0,0.0,0.0,0.0,0.0,0.0,0.0,0.0,0.0,0.0,0.0,0.0,0.0,0.0,0.0,0.0,0.0,0.0,0.0,0.0,0.0,0.0,0.0,0.0,0.0,0.0,0.0,0.0,0.0,0.0,0.0,0.0,0.0,0.0,0.0,0.0,4.3827,4.5523,4.6063,4.6499,4.684,4.6866,4.684,4.679,4.6435,4.6028,0.0,0.0,0.0,0.0,0.0,0.0,0.0,0.0,0.0,0.0,0.0,0.0,0.0,0.0,0.0,0.0,0.0,0.0,0.0,0.0,0.0,0.0,0.0,0.0,0.0,0.0,0.0,0.0,4.2546,4.3519,4.368,0.0,0.0,0.0,0.0,0.0,0.0,0.0,0.0,0.0,0.0,5.2672,5.3592,5.4671,0.0,0.0,5.4278,5.3974,5.3683,5.2988,5.2237,5.1486,5.0688,0.0,0.0,0.0,0.0,0.0,0.0,0.0,0.0,0.0,0.0,0.0,0.0,0.0,0.0,0.0,0.0,0.0,0.0,0.0,0.0,0.0,0.0,0.0,0.0,0.0,0.0,0.0,0.0,0.0,0.0,0.0,0.0,0.0,0.0,0.0,0.0,0.0,0.0,0.0,0.0,0.0,0.0,0.0,0.0,0.0,0.0,0.0,0.0,0.0,0.0,0.0,0.0,4.4707,4.6261,4.692,4.7396,4.7713,4.7713,4.7608,4.7422,4.7106,4.6635,0.0,0.0,0.0,0.0,0.0,0.0,0.0,0.0,0.0,0.0,0.0,0.0,0.0,0.0,0.0,0.0,0.0,0.0,0.0,0.0,0.0,0.0,0.0,0.0,0.0,0.0,0.0,0.0,4.4207,4.5136,4.5306,0.0,0.0,0.0,0.0,0.0,0.0,0.0,0.0,0.0,0.0,5.3499,5.4086,5.4858,5.5252,5.4906,5.4623,5.4454,5.4375,5.3706,5.2993,5.2457,0.0,0.0,0.0,0.0,0.0,0.0,0.0,0.0,0.0,0.0,0.0,0.0,0.0,0.0,0.0,0.0,0.0,0.0,0.0,0.0,0.0,0.0,0.0,0.0,0.0,0.0,0.0,3.7541,0.0,0.0,3.7595,0.0,0.0,0.0,0.0,0.0,0.0,0.0,0.0,0.0,0.0,0.0,0.0,0.0,0.0,0.0,0.0,0.0,0.0,0.0,0.0,0.0,0.0,4.6269,4.6695,4.7839,4.8434,4.8434,4.846,4.8144,4.7467,4.7387,4.6832,4.5666,0.0,0.0,0.0,0.0,0.0,0.0,0.0,0.0,0.0,0.0,0.0,0.0,0.0,0.0,0.0,0.0,0.0,0.0,0.0,0.0,0.0,0.0,0.0,0.0,0.0,0.0,4.4685,4.5509,4.6112,0.0,0.0,0.0,0.0,0.0,0.0,0.0,0.0,0.0,0.0,5.352,5.4919,5.6111,5.695,5.7181,5.6804,5.6099,5.5372,5.4871,5.4123,5.3564,0.0,0.0,0.0,0.0,0.0,0.0,0.0,0.0,0.0,0.0,0.0,0.0,0.0,0.0,0.0,0.0,0.0,0.0,0.0,0.0,0.0,0.0,0.0,0.0,0.0,0.0,0.0,3.9405,4.0165,0.0,0.0,0.0,0.0,0.0,0.0,0.0,0.0,0.0,0.0,0.0,4.4328,4.4544,0.0,0.0,0.0,0.0,0.0,0.0,0.0,0.0,0.0,0.0,0.0,0.0,4.6263,4.7532,4.7803,4.8043,4.8361,4.8361,4.8425,4.8448,4.7934,4.7235,4.6353,0.0,0.0,0.0,0.0,0.0,0.0,0.0,0.0,0.0,0.0,0.0,0.0,0.0,0.0,0.0,0.0,0.0,0.0,0.0,0.0,0.0,0.0,0.0,0.0,0.0,4.7114,0.0,0.0,0.0,0.0,0.0,0.0,0.0,0.0,0.0,0.0,0.0,5.1272,5.2957,5.4125,5.5107,5.5937,5.6295,5.6366,0.0,0.0,0.0,0.0,0.0,0.0,0.0,0.0,0.0,0.0,0.0,0.0,0.0,0.0,5.0125,4.9623,4.9148,4.8944,4.9158,0.0,0.0,0.0,0.0,0.0,0.0,0.0,0.0,0.0,0.0,0.0,0.0,0.0,0.0,4.23,0.0,4.3499,0.0,0.0,0.0,0.0,0.0,0.0,0.0,0.0,4.7195,4.7272,4.7189,4.7374,4.7808,0.0,4.8289,4.7341,0.0,0.0,0.0,0.0,0.0,0.0,0.0,0.0,4.76,4.8695,4.8894,4.9138,4.9411,4.9441,4.9487,4.9505,4.8718,4.8107,4.763,4.7356,4.6621,0.0,0.0,0.0,0.0,0.0,0.0,0.0,0.0,0.0,0.0,0.0,0.0,0.0,0.0,0.0,0.0,0.0,0.0,0.0,0.0,0.0,0.0,0.0,4.8776,0.0,0.0,0.0,0.0,0.0,0.0,0.0,0.0,0.0,5.0378,5.153,5.2847,5.3875,5.4725,5.5426,5.595,0.0,0.0,0.0,0.0,0.0,0.0,0.0,5.5842,5.5861,5.5593,5.5334,5.5184,5.5029,5.4794,5.4596,0.0,0.0,5.2571,5.1943,5.1707,5.196,5.0892,5.0225,5.0961,5.1497,5.2102,0.0,0.0,0.0,0.0,0.0,0.0,0.0,0.0,4.4769,4.5371,0.0,4.5993,0.0,0.0,0.0,0.0,4.7021,4.8308,0.0,0.0,4.979,5.0286,5.0522,4.9756,5.026,5.1713,5.0317,5.0095,5.0784,4.7837,0.0,0.0,0.0,0.0,0.0,0.0,5.0178,4.9963,5.0905,5.1532,5.15,5.1532,5.1191,5.0509,4.9759,4.935,4.9312,4.8802,4.8226,4.7492,4.5787,0.0,0.0,0.0,0.0,0.0,0.0,0.0,0.0,0.0,0.0,0.0,0.0,0.0,0.0,0.0,0.0,0.0,0.0,0.0,0.0,4.8052,0.0,0.0,0.0,0.0,0.0,0.0,0.0,0.0,0.0,0.0,5.2144,5.3093,5.4125,5.4839,0.0,0.0,0.0,0.0,5.7255,5.754,5.7632,5.7604,5.7576,5.7399,5.722,5.7075,0.0,0.0,5.7219,5.7286,5.7126,5.667,5.6918,5.6542,5.3646,5.3172,5.3138,5.3138,5.3036,5.3202,5.3839,5.3976,5.4387,4.5446,0.0,0.0,0.0,0.0,4.4237,4.5381,4.6834,4.7368,4.7796,4.8085,4.7976,0.0,0.0,0.0,0.0,0.0,0.0,5.0783,5.0918,5.0672,5.0422,5.0192,4.9885,5.0283,5.1295,5.0881,5.1426,5.2632,5.0625,4.9526,4.9513,0.0,0.0,0.0,0.0,5.0496,5.0604,5.0591,5.0627,5.0593,5.0627,5.0659,5.0816,5.0548,5.0367,5.0134,4.965,4.9294,4.9091,4.7305,0.0,0.0,0.0,0.0,0.0,0.0,0.0,0.0,0.0,0.0,0.0,0.0,0.0,0.0,0.0,0.0,0.0,0.0,0.0,4.884,5.0118,5.1172,0.0,0.0,0.0,0.0,0.0,0.0,0.0,0.0,0.0,5.582,5.5667,5.5991,0.0,0.0,5.789,5.7975,5.8074,5.8065,5.8101,5.8101,0.0,5.7403,5.7338,5.7215,5.6808,5.6878,5.6953,5.678,5.6869,5.6844,5.666,5.6787,5.6775,5.6549,5.6311,5.6233,5.62,5.5502,5.4907,5.5107,5.5177,5.5392,5.0057,4.8633,4.6245,4.5579,4.6234,4.7291,4.8228,4.9051,4.9751,5.0154,5.0241,4.9641,4.9457,4.9538,4.9546,0.0,0.0,0.0,5.1466,5.1459,5.1397,5.1158,5.0913,5.0883,5.1116,5.1576,5.19,5.2555,5.3518,5.2572,5.2062,5.1884,0.0,0.0,5.1642,5.1405,5.1278,5.1262,5.1124,5.1082,5.1082,5.1082,5.1187,5.1496,5.1496,5.143,5.1258,5.0961,5.0657,5.0391,4.912,4.7988,0.0,0.0,0.0,0.0,0.0,0.0,0.0,0.0,0.0,0.0,0.0,4.3597,4.4293,0.0,0.0,0.0,4.7115,4.8341,5.0365,5.1429,0.0,0.0,0.0,0.0,0.0,0.0,0.0,5.5426,5.6269,5.6996,5.755,5.7143,5.7168,5.8166,5.8332,5.8391,5.8537,0.0,5.8703,5.8733,5.8733,5.8487,5.7863,5.7605,5.7415,5.7124,5.7222,5.7209,5.7027,5.7025,5.6987,5.6757,5.668,5.6846,5.7276,5.7753,5.8084,5.8084,5.7248,5.6514,5.6481,5.6249,5.6165,5.3817,5.4086,4.9625,4.7969,4.839,4.9847,5.0714,5.1142,5.171,5.2142,5.2257,5.0957,5.0759,5.1401,5.046,0.0,4.9163,5.0883,5.1492,5.1245,5.1938,5.2302,5.2407,5.2158,5.2158,5.2335,5.2867,5.3179,5.3382,5.3651,5.3913,5.4171,5.2643,5.1959,5.2149,5.245,5.2401,5.1966,5.2256,5.2445,5.2409,5.2409,5.2409,5.2409,5.2409,5.2409,5.2409,5.2409,5.2111,5.1415,5.0892,4.9724,4.7684,0.0,0.0,0.0,0.0,0.0,0.0,0.0,0.0,0.0,0.0,0.0,0.0,0.0,0.0,0.0,4.9106,0.0,5.1252,5.2255,0.0,0.0,0.0,5.3466,5.3151,5.4707,5.5857,5.592,0.0,0.0,5.7835,5.7839,5.7831,5.7907,5.7868,5.7996,5.8335,5.8655,5.9015,5.9232,5.9294,5.9042,5.834,5.7841,5.7533,5.7715,5.8099,5.8095,5.7752,5.7637,5.7415,5.6851,5.6741,5.6807,5.6846,5.8045,5.8933,5.9072,5.8502,5.7972,5.7806,5.7342,5.7061,5.371,5.4262,5.2539,5.1258,5.045,5.1366,5.1457,5.1094,5.1761,5.1829,5.1329,5.0987,5.1192,5.1797,5.0817,5.0832,5.164,5.198,5.208,5.204,5.2081,5.2482,5.303,5.1214,5.0978,5.207,5.0561,5.0697,5.2518,5.2026,5.2559,5.3979,5.3637,5.3658,5.4036,5.3859,5.3543,5.3045,5.2976,5.2799,5.2409,5.2409,5.2409,5.2409,5.2409,5.2409,5.2409,5.2409,5.2343,5.2144,5.1518,5.0725,4.9858,4.8829,0.0,0.0,0.0,0.0,0.0,0.0,0.0,0.0,0.0,4.8361,4.9105,0.0,5.0948,0.0,5.0582,5.1094,5.237,5.274,0.0,0.0,5.4873,5.5077,5.4974,5.5649,5.6332,5.7019,5.7432,5.7807,5.8083,5.8393,5.829,5.7491,5.8084,5.866,5.876,5.8732,5.8769,5.8803,5.8462,5.794,5.7403,5.6842,5.6806,5.7648,5.7863,5.7947,5.8038,5.8023,5.7818,5.7197,5.7026,5.7343,5.8157,5.8701,5.933,6.0258,5.9993,5.9297,5.8767,5.8469,5.8449,5.4698,5.527,5.3816,5.2737,5.2113,5.2831,5.269,5.2032,5.2762,5.2861,5.2428,5.17,5.108,5.0635,5.0075,5.0191,5.0779,5.1107,5.1377,5.1664,5.1598,5.1991,5.2669,5.1344,5.1181,5.2004,5.0747,5.0831,5.2118,5.1457,5.1758,5.3165,5.3165,5.3376,5.3788,5.4017,5.3913,5.355,5.3179,5.28,5.2409,5.2409,5.248,5.2622,5.2622,5.2694,5.2834,5.2624,5.2589,5.28,5.2224,5.1692,5.1363,5.0608,4.9596,0.0,0.0,0.0,0.0,0.0,0.0,0.0,0.0,0.0,0.0,0.0,5.2233,5.2425,5.2269,5.2704,5.3984,5.412,5.4352,5.4982,5.5384,5.5439,5.5036,5.5473,5.6051,5.6516,5.6734,5.6892,5.6934,5.7159,5.7118,5.6432,5.693,5.7563,5.7965,5.7999,5.7891,5.7963,5.771,5.7197,5.6432,5.6218,5.6275,5.6809,5.7288,5.7679,5.8125,5.838,5.8371,5.8009,5.7869,5.8001,5.8518,5.888,5.9375,5.9968,6.0265,5.9985,5.9488,5.9131,5.898,5.6107,5.6655,5.4536,5.357,5.3499,5.4131,5.3964,5.3226,5.3851,5.4152,5.4043,5.2521,5.0906,4.9365,4.9243,4.9058,4.8852,4.955,5.0247,5.0911,5.1006,5.1426,5.2204,5.1956,5.1915,5.2049,5.1957,5.1958,5.2043,5.15,5.1577,5.2274,5.2307,5.2465,5.2815,5.358,5.3821,5.3619,5.2971,5.2483,5.223,5.2266,5.248,5.2729,5.2764,5.287,5.3145,5.2765,5.2731,5.3145,5.2765,5.236,5.2102,5.1725,5.0966,0.0,4.9218,0.0,0.0,0.0,0.0,0.0,0.0,0.0,0.0,5.2169,5.2775,5.3483,5.3844,5.4443,5.5434,5.5465,5.5211,5.4613,5.5132,5.5187,5.4583,5.5013,5.5409,5.5409,5.5409,5.5369,5.5409,5.5369,5.5409,5.5287,5.5377,5.5789,5.6476,5.6668,5.6706,5.6858,5.6925,5.6624,5.6075,5.6059,5.623,5.6272,5.695,5.7568,5.8237,5.8757,5.9045,5.8905,5.8905,5.8832,5.8436,5.8969,5.938,5.9568,6.0112,6.0445,6.0208,5.9728,5.9278,5.6838,5.7468,5.6402,5.5562,5.4891,5.5052,5.4334,5.3136,5.3264,5.3328,5.3264,5.24,5.1709,5.1207,5.0398,4.9962,4.9837,4.9868,5.0247,5.0943,5.1439,5.244,5.3648,5.2386,5.2087,5.2671,5.157,5.1309,5.1937,5.181,5.23,5.3264,5.3302,5.3493,5.3803,0.0,0.0,0.0,5.1847,5.1177,5.1102,5.1651,5.1941,5.198,5.198,0.0,5.2089,5.2017,5.198,5.2089,5.2017,0.0,0.0,0.0,0.0,0.0,0.0,0.0,0.0,0.0,0.0,0.0,5.0553,5.0973,5.1153,5.2642,5.3765,5.4177,5.4273,5.4523,5.5023,5.4743,5.4731,5.5165,5.532,5.5377,5.5215,5.5304,5.5409,5.5409,5.5369,5.5246,5.4948,5.5164,5.5081,5.4518,5.4697,5.4832,5.4675,5.5263,5.5661,5.5733,5.5994,5.6205,5.652,5.6595,5.6959,5.7818,5.8184,5.8443,5.8763,5.9331,5.9504,5.9097,5.9219,5.9415,5.9329,5.9624,5.9819,6.0168,6.0567,6.0928,6.0879,6.0788,6.0688,5.6581,5.647,5.5708,5.5099,0.0,5.4717,5.4274,5.3597,5.3597,5.3408,5.3092,5.2555,5.2071,5.1539,5.0913,5.0362,4.989,4.9831,4.9977,5.032,5.1006,5.1873,5.2955,5.2461,5.244,5.2816,5.1685,5.1407,5.1775,5.1474,5.1738,5.2644,5.2644,5.2695,5.2713,5.1954,5.1773,5.2156,5.145,5.082,5.0345,5.0615,5.0914,5.1102,5.1102,0.0,0.0,0.0,0.0,0.0,0.0,0.0,0.0,5.0542,0.0,4.932,4.9042,4.8743,4.8439,4.8808,4.9269,4.9712,5.0173,5.0663,5.1239,5.2325,5.3086,5.323,5.3592,5.3865,5.4086,5.3901,5.3851,5.3988,5.4008,5.3922,5.375,5.3707,5.3664,5.3664,5.3664,5.3702,5.3858,5.3721,5.3646,5.3517,5.3401,5.3315,5.317,5.3997,5.4845,5.5197,5.5591,5.5975,5.6396,5.6718,5.6985,5.7724,5.8093,5.8426,5.8921,5.9486,5.9717,5.9395,5.9476,5.9596,5.9343,5.9109,5.898,5.9278,5.9466,5.9704,6.0049,6.0869,6.1447,5.6387,5.5643,5.4883,5.4454,5.4327,5.4327,5.42,5.4103,5.4103,0.0,0.0,5.3038,5.2417,5.1506,5.1367,5.0812,4.9939,4.9909,4.997,5.0051,5.0605,5.1159,5.1713,5.239,5.2637,5.2513,5.2082,5.1898,5.1867,5.1313,5.1344,5.1836,5.1823,5.169,5.1316,5.0396,5.0345,5.1083,5.1087,5.069,4.9904,4.9985,5.0161,5.0388,5.0356,5.0416,5.0601,5.0172,5.0133,5.053,5.0172,5.0055,5.0339,5.016,4.9712,4.898,4.8762,4.8553,4.8306,4.8553,4.899,4.9504,4.9687,5.0276,5.1476,5.1857,5.2045,5.2206,5.2779,5.309,5.309,5.3002,5.2856,5.2516,5.2471,5.2336,5.1972,5.188,5.2018,5.1911,5.2139,5.2214,5.2655,5.2428,5.2184,5.2548,5.2352,5.188,5.2063,5.2949,5.3922,5.4718,5.5071,5.5544,5.6091,5.6419,5.6712,5.6915,5.7393,5.792,5.8487,5.9047,5.9338,5.9238,5.9332,5.9151,5.8836,5.8403,5.7981,5.8201,5.8261,5.8394,5.9113,6.0586,6.1446,5.7524,5.7376,5.6614,5.5829,5.5149,5.5108,5.4726,5.4103,5.4103,5.404,5.3945,5.3902,5.331,5.2266,5.2394,5.1763,5.0617,5.0727,5.1036,5.1436,5.1528,5.1621,5.1744,5.239,5.2421,5.1929,5.2329,5.2575,5.2575,5.2452,5.2483,5.2499,5.232,5.1972,5.156,5.1407,5.1015,5.0366,5.0337,5.0273,5.0168,5.0712,5.0736,5.0225,5.0235,4.9953,4.9439,4.9358,4.9358,4.9407,4.9358,4.9035,4.8346,4.8304,4.7897,4.71,4.6983,4.7078,4.7377,4.7908,4.861,4.9549,4.9678,5.0206,5.1396,5.1574,5.1835,5.2452,5.2558,5.2664,5.262,5.226,5.2018,5.1972,5.1972,5.1972,5.1835,5.1835,5.1789,5.1789,5.2427,5.2425,5.2106,5.2364,5.2348,5.2138,5.1802,5.1835,5.1789,5.2063,5.275,5.3727,5.411,5.466,5.5691,5.6005,5.612,5.6079,5.6684,5.7187,5.7402,5.7869,5.8196,5.8212,5.8151,5.8027,5.8047,5.8213,5.8155,5.8301,5.8529,5.8869,5.8998,5.9861,6.0452,5.6619,5.5796,5.5385,5.5017,5.4643,5.4675,5.4423,5.4103,5.4103,5.4103,5.406,5.3844,5.3439,5.2953,5.2735,5.2175,5.1221,5.1308,5.1277,5.119,5.1528,5.1713,5.1775,5.239,5.2544,5.2267,5.2575,5.2729,5.2729,5.2729,5.2729,5.2653,5.2337,5.1972,5.1618,5.1433,5.1173,5.075,5.0366,5.0034,4.9716,5.0026,5.0005,4.967,4.9377,4.9042,4.8736,4.837,4.8187,4.8187,4.8187,4.8086,4.7932,4.7788,4.7362,4.6639,4.6974,4.7073,4.6604,4.7757,4.8777,4.963,4.9746,4.9911,5.0488,5.0538,5.0668,5.0999,5.1046,5.1046,5.0999,5.081,5.0745,5.0745,5.0698,5.0698,5.0698,5.0698,5.0698,5.0698,5.0965,5.1172,5.1232,5.1202,5.1261,5.1143,5.0965,5.0698,5.0698,5.1024,5.1894,5.3512,5.4188,5.4825,5.5687,5.5918,5.607,5.6373,5.6707,5.7041,5.7233,5.7476,5.7476,5.7749,5.7496,5.7445,5.7749,5.7567,5.7506,5.7658,5.7781,5.7954,5.8127,5.8684,5.9353,5.6301,5.4666,5.4635,5.4443,5.4103,5.4103,5.4103,5.4103,5.4103,5.4103,5.406,5.3714,5.3509,5.3452,5.31,5.2599,5.2079,5.2017,5.1696,5.1251,5.1682,5.1867,5.1775,5.239,5.2637,5.2544,5.2637,5.2729,5.2729,5.2729,5.2608,5.2503,5.2109,5.1787,5.1509,5.1323,5.1229,5.1199,5.0674,5.0212,4.9778,4.9703,4.9689,4.9464,4.8985,4.8656,4.8506,4.8027,4.7641,4.7347,4.7333,4.7243,4.7261,4.7015,4.6641,4.618,4.665,4.6736,4.6119,4.7299,4.8387,4.8894,4.8951,4.8923,4.8951,4.8951,4.9198,4.9571,4.9766,4.9766,4.9815,4.9766,4.9746,4.9746,4.9746,4.9766,4.9746,4.9746,4.9805,4.9843,4.9725,4.9857,5.0374,5.0022,4.975,4.9923,4.953,4.918,4.9238,4.976,5.1056,5.2417,5.3644,5.449,5.522,5.532,5.554,5.6242,5.6432,5.6667,5.7056,5.6921,5.6852,5.7146,5.6801,5.6659,5.7198,5.704,5.6782,5.7072,5.6916,5.6464,5.6297,5.6615,5.7745,5.8329,5.6381,5.6159,5.5419,5.4177,5.4103,5.4103,5.4103,5.4103,5.4103,5.4103,5.4028,5.3931,5.3789,5.3702,5.3377,5.2962,5.2993,5.2798,5.2483,5.2575,5.2298,5.1836,5.2421,5.239,5.199,5.2452,5.2729,5.2729,5.2653,5.2503,5.2094,5.1787,5.1479,5.1276,5.1199,5.1182,5.1199,5.1169,5.1109,5.105,5.105,5.0704,5.0106,5.0046,4.9793,4.9104,4.9149,4.8609,4.766,4.7293,4.6643,4.5637,4.5222,4.4952,4.4683,4.4734,4.4901,4.5445,4.6119,4.6602,4.658,4.6736,4.6764,4.6736,4.6684,4.7536,4.905,4.962,4.9522,4.9698,4.9571,4.9473,4.9424,4.9473,4.9746,4.9571,4.9746,4.9901,5.054,4.9465,4.9484,5.0011,4.9494,4.8816,4.8511,4.8069,4.7793,4.7878,4.8676,4.9336,4.9989,5.1307,5.2856,5.3483,5.371,5.3949,5.4531,5.5167,5.5638,5.5961,5.5874,5.575,5.5939,5.5521,5.5205,5.6016,5.6427,5.6517,5.6414,5.5966,5.5213,5.424,5.4204,5.5353,5.7895,5.5645,5.5645,5.5091,5.4177,5.4103,5.4103,5.4103,5.4103,5.4103,5.4103,5.4103,5.3974,5.3789,5.3528,5.3264,5.3086,5.2953,5.2819,5.2729,5.2729,5.2544,5.2359,5.2544,5.2544,5.2329,5.2606,5.2729,5.2653,5.2532,5.2291,5.1972,5.1741,5.1509,5.1182,5.0555,5.0268,5.022,4.9659,4.9288,4.9435,5.0555,5.0798,4.9934,4.9427,4.8822,4.8009,4.7425,4.6909,4.6429,4.6111,4.581,4.5523,4.5399,4.5105,4.4651,4.4573,4.4994,4.5836,4.6132,4.6267,4.6267,4.6267,4.6267,4.6267,4.6267,4.6736,4.7457,4.7689,4.7689,4.774,4.7689,4.7689,4.7689,4.7689,4.774,4.7689,4.774,4.7829,4.8052,4.7692,4.7564,4.7926,4.7692,4.7435,4.7438,4.732,4.7244,4.7596,4.8463,4.8896,4.9143,5.0188,5.0958,5.1401,5.1375,5.1849,5.2575,5.3022,5.3469,5.4422,5.4139,5.3886,5.4616,5.3974,5.3778,5.4443,5.4669,5.4809,5.4973,5.4856,5.4084,5.3544,5.3782,5.4671,5.8191,5.5846,5.5106,5.4545,5.4103,5.4103,5.4103,5.4103,5.4103,5.4103,5.4103,5.4103,5.4017,5.3833,5.3365,5.3219,5.3144,5.2833,5.2729,5.2729,5.2729,5.2729,5.2729,5.2729,5.2729,5.2729,5.2698,5.2653,5.2563,5.2261,5.2033,5.1834,5.1339,5.0964,5.065,4.9708,4.917,4.9092,4.8346,4.8016,4.8217,4.9533,4.995,4.921,4.8709,4.8032,4.7291,4.6522,4.6001,4.5701,4.5294,4.5078,4.5044,4.4966,4.4732,4.4292,4.4261,4.4561,4.5342,4.5395,4.5395,4.5395,4.5395,4.5395,4.5395,4.5395,4.5369,4.5395,4.5395,4.5555,4.6267,4.6267,4.6267,4.6267,4.6267,4.6267,4.6319,4.6267,4.6453,4.6537,4.6299,4.5873,4.59,4.6061,4.633,4.6598,4.6674,4.6829,4.7251,4.7781,4.8179,4.8292,4.8638,4.9194,4.9675,5.007,5.0444,5.1071,5.1625,5.2093,5.2913,5.2642,5.2696,5.3681,5.287,5.2892,5.3691,5.373,5.3214,5.3059,5.2937,5.2754,5.2165,5.2722,5.3005,6.031,5.7245,5.5027,5.4166,5.4103,5.4103,5.4103,5.4103,5.4103,5.4103,5.4103,5.4103,5.4103,5.406,5.3584,5.3377,5.329,5.2922,5.2729,5.2729,5.2729,5.2729,5.2729,5.2729,5.2729,5.2729,5.2729,5.2563,5.2261,5.1803,5.1618,5.1479,5.0287,4.9737,4.9513,4.8596,4.8066,4.8016,4.7864,4.7864,4.7915,4.8016,4.8066,4.7965,4.8038,4.7881,4.7757,4.7577,4.6936,4.5924,4.5209,4.4539,4.3636,4.333,4.3189,4.3129,4.3154,4.3129,4.324,4.3351,4.3295,4.324,4.3406,4.324,4.3462,4.3513,4.3538,4.3265,4.3589,4.4255,4.5822,4.6008,4.6085,4.6085,4.6243,4.6218,4.6243,4.6087,4.6592,4.6678,4.5607,4.4883,4.4802,4.5221,4.5509,4.5653,4.5616,4.5699,4.5977,4.6315,4.6603,4.6654,4.6824,4.7265,4.9247,4.9362,4.9801,5.0309,5.0447,5.1107,5.1828,5.2316,5.2604,5.2728,5.2319,5.2366,5.3166,5.312,5.2508,5.2139,5.1705,5.1356,5.0933,5.0155,5.065,5.9245,5.6695,5.4836,5.4103,5.4103,5.4103,5.4103,5.4103,5.4103,5.4103,5.4103,5.4103,5.4017,5.3919,5.3552,5.3421,5.3334,5.2922,5.2729,5.2729,5.2729,5.2729,5.2729,5.2729,5.2729,5.2729,5.2729,5.2215,5.1203,5.0162,4.9533,4.9484,4.8944,4.8596,4.8396,4.7536,4.6971,4.6867,4.6321,4.59,4.5953,4.59,4.5794,4.5688,4.6294,4.6215,4.5422,4.5074,4.4698,4.4289,4.3907,4.3547,4.3184,4.3098,4.2986,4.2986,4.2986,4.2986,4.2986,4.2986,4.2986,4.2986,4.2986,4.2986,4.3037,4.3288,4.3514,4.3539,4.384,4.4503,4.4822,4.49,4.4723,4.4775,4.4978,4.527,4.521,4.521,4.5184,4.4952,4.4126,4.3883,4.4474,4.4489,4.4693,4.5381,4.5514,4.5598,4.5949,4.62,4.612,4.624,4.6301,4.6601,4.7265,4.756,4.7741,4.8283,4.8722,4.9212,4.9861,5.0539,5.0831,5.1122,5.1018,5.0955,5.133,5.0802,5.0486,5.0384,5.0028,4.9615,4.9871,4.9002,4.9727,5.7985,5.5931,5.4645,5.4103,5.4103,5.4103,5.4103,5.4103,5.4103,5.4103,5.4103,5.4017,5.3919,5.3746,5.3452,5.329,5.3277,5.2877,5.2729,5.2729,5.2729,5.2729,5.2653,5.2382,5.217,5.2048,5.1635,5.0875,4.9988,4.8816,4.8267,4.8296,4.7791,4.7485,4.7331,4.6399,4.5874,4.5662,4.5073,4.4668,4.4559,4.4585,4.45,4.441,4.4828,4.4724,4.3899,4.3572,4.3406,4.3351,4.3129,4.2986,4.2986,4.2986,4.2986,4.2986,4.2986,4.3062,4.3187,4.3062,4.3062,4.3237,4.3263,4.3237,4.3288,4.3765,4.4016,4.4166,4.4367,4.4618,4.4593,4.45,4.4267,4.4166,4.4418,4.4618,4.4618,4.4593,4.4475,4.4231,4.3929,4.3998,4.4418,4.4443,4.4802,4.5422,4.5301,4.53,4.5572,4.5074,4.4804,4.4829,4.4521,4.4374,4.4535,4.451,4.5864,4.6617,4.7378,4.7758,4.8144,4.8732,4.9157,4.9411,4.9396,4.9242,4.8983,4.8436,4.8216,4.815,4.7599,4.7027,4.7428,4.7849,4.8352,5.6711,5.5173,5.4387,5.4103,5.4103,5.4103,5.4103,5.4103,5.4103,5.4103,5.4103,5.3919,5.3789,5.3702,5.3352,5.3131,5.3042,5.2788,5.2729,5.2729,5.2729,5.2653,5.2518,5.1651,5.1156,5.0969,4.9582,4.8745,4.8418,4.7915,4.7712,4.7689,4.6816,4.6374,4.6374,4.5395,4.4776,4.4776,4.4748,4.4585,4.4313,4.4364,4.4296,4.4209,4.3878,4.3811,4.3896,4.3568,4.3427,4.3402,4.3179,4.2986,4.2986,4.2986,4.2986,4.2986,4.2986,4.3237,4.3639,4.3313,4.3288,4.3689,4.3815,4.3758,4.3637,4.4061,4.4328,4.4153,4.4286,4.4427,4.4494,4.4709,4.4935,4.4686,4.4769,4.4819,4.4769,4.4611,4.4585,4.4469,4.417,4.4477,4.4627,4.4584,4.473,4.4773,4.4524,4.4093,4.4041,4.3083,4.2051,4.1924,4.2264,4.2454,4.1884,4.1501,4.3482,4.5135,4.6032,4.6622,4.6886,4.74,4.7726,4.7987,4.7887,4.7665,4.7069,4.6579,4.5952,4.5683,4.5005,4.5005,4.5485,4.6081,4.6011,5.5718,5.514,5.4422,5.4103,5.4103,5.4103,5.4103,5.4103,5.4103,5.4103,5.406,5.3919,5.3702,5.3496,5.3188,5.2997,5.2863,5.2698,5.2729,5.2729,5.2698,5.2261,5.1651,5.1249,5.0639,4.9698,4.8396,4.7536,4.7098,4.6242,4.5741,4.5635,4.5449,4.5261,4.5288,4.4884,4.4694,4.4668,4.4531,4.4367,4.431,4.448,4.4305,4.3817,4.4218,4.4421,4.3872,4.3708,4.3652,4.3708,4.3595,4.3363,4.3062,4.2986,4.2986,4.2986,4.2986,4.3212,4.3689,4.3607,4.3676,4.4184,4.431,4.3821,4.3145,4.3465,4.3373,4.2695,4.2711,4.2924,4.2971,4.3127,4.3746,4.5094,4.5547,4.552,4.5266,4.4505,4.4061,4.4087,4.2879,4.2663,4.3687,4.3783,4.299,4.3089,4.2739,4.2517,4.2138,4.1629,4.1373,4.1309,4.1181,4.0731,4.0408,4.0148,4.1181,4.2852,4.4001,4.5063,4.5453,4.6008,4.6357,4.6394,4.6264,4.5885,4.5277,4.4527,4.391,4.391,4.3978,4.4066,4.4241,4.4202,4.4058,5.5108,5.481,5.4327,5.4103,5.4103,5.4103,5.4103,5.4103,5.4103,5.4103,5.406,5.3758,5.3584,5.3334,5.31,5.2833,5.2729,5.2729,5.2729,5.2608,5.2215,5.1727,5.1028,5.0474,4.9412,4.805,4.7218,4.6591,4.5926,4.5127,4.4748,4.4748,4.4694,4.4748,4.4694,4.4694,4.4694,4.4668,4.4422,4.4258,4.4171,4.4233,4.4102,4.3953,4.4352,4.4515,4.4367,4.4418,4.4242,4.384,4.3614,4.3388,4.3263,4.3288,4.3119,4.2722,4.2725,4.2823,4.2744,4.25,4.2836,4.3249,4.3395,4.3072,4.2445,4.264,4.249,4.1913,4.2057,4.2224,4.2201,4.2074,4.2755,4.4086,4.4402,4.4682,4.4473,4.3845,4.323,4.3028,4.2272,4.2358,4.2747,4.2708,4.1708,4.1688,4.1287,4.0837,4.0386,3.9823,3.9714,3.9453,3.8927,3.8795,3.9059,3.9125,3.919,4.0367,4.1638,4.2827,4.3674,4.4543,4.5095,4.4755,4.4527,4.3978,4.3379,4.2403,4.1721,4.2193,4.2559,4.1912,4.1573,4.1958,4.2043,5.4768,5.4146,5.4103,5.4103,5.4103,5.4103,5.4103,5.4103,5.4103,5.4103,5.4017,5.3596,5.3421,5.329,5.2922,5.2729,5.2729,5.2729,5.2563,5.2215,5.1558,5.0875,5.043,4.9352,4.7799,4.622,4.6277,4.5873,4.4964,4.4776,4.4694,4.4694,4.4694,4.4694,4.472,4.472,4.48,4.4694,4.4526,4.43,4.4053,4.3797,4.3872,4.4493,4.4342,4.451,4.4877,4.4774,4.4543,4.3959,4.3501,4.3305,4.3594,4.3669,4.2839,4.1907,4.2221,4.185,4.1074,4.1121,4.123,4.1793,4.1885,4.1365,4.1496,4.1668,4.1792,4.1497,4.1501,4.1651,4.1565,4.1309,4.1437,4.1802,4.2379,4.2443,4.1847,4.2252,4.2188,4.1855,4.2165,4.2431,4.1888,4.1756,4.1332,4.0924,4.0105,3.9535,3.8793,3.8037,3.6937,3.6909,3.7287,3.7442,3.7887,3.7642,3.7729,3.8316,3.9513,4.0565,4.1586,4.251,4.3079,4.2823,4.2705,4.2095,4.1544,4.0699,4.0245,4.0584,4.0189,3.9126,3.9397,4.0324,4.0921,5.4285,5.4103,5.4103,5.4103,5.4103,5.4103,5.4103,5.4103,5.4103,5.4103,5.4017,5.3596,5.3421,5.3334,5.2877,5.2729,5.2608,5.2608,5.2215,5.1419,5.0496,4.9533,4.8745,4.7707,4.6671,4.5689,4.5821,4.542,4.4748,4.4772,4.4746,4.4694,4.4746,4.472,4.472,4.5111,4.5059,4.4822,4.5081,4.4986,4.4556,4.4744,4.4777,4.4618,4.5162,4.4913,4.4014,4.297,4.3445,4.4836,4.387,4.3187,4.2874,4.2114,4.1456,4.1117,4.1051,4.1222,4.1191,4.1074,4.1387,4.1863,4.1656,4.1575,4.0576,4.0622,4.0257,3.9561,3.9035,3.8904,3.8838,3.8618,3.8632,3.9059,4.0738,4.1523,4.065,4.0451,4.0627,4.0563,3.9553,3.9557,3.9952,3.9665,3.8975,3.8449,3.8294,3.8105,3.7529,3.7465,3.6907,3.675,3.6868,3.6711,3.6632,3.6377,3.6346,3.6561,3.734,3.8236,3.9088,3.9789,4.0085,4.0126,4.0638,4.032,4.0036,3.9632,3.9421,3.9559,3.9582,3.9453,3.957,4.02,4.0397,5.4103,5.4103,5.4103,5.4103,5.4103,5.4103,5.4103,5.4103,5.4103,5.4103,5.4017,5.3596,5.3421,5.3334,5.2457,5.2033,5.2002,5.1588,5.1046,5.0449,4.9435,4.8296,4.7339,4.6698,4.6222,4.5581,4.5926,4.5761,4.5273,4.5323,4.5454,4.5454,4.5164,4.5114,4.5166,4.5346,4.5425,4.5213,4.5417,4.5283,4.4791,4.4706,4.4601,4.4294,4.4674,4.4062,4.29,4.2163,4.2444,4.3299,4.278,4.2164,4.2056,4.1399,4.0682,4.0248,4.0303,4.0315,3.9853,3.9966,4.0208,4.0364,4.0365,3.9997,3.943,3.9123,3.8461,3.815,3.7779,3.7577,3.7388,3.7213,3.7164,3.7574,3.9208,3.9968,3.9013,3.9336,3.928,3.8916,3.8323,3.7793,3.8821,3.8106,3.7594,3.7379,3.7748,3.7401,3.6986,3.7109,3.7054,3.6611,3.6584,3.6565,3.6398,3.6147,3.5502,3.561,3.5435,3.6213,3.7388,3.79,3.8398,3.8779,3.875,3.8759,3.879,3.9022,3.9645,3.9782,3.9863,3.9849,3.9851,3.9776,4.0066,5.4103,5.4103,5.4103,5.4103,5.4103,5.4103,5.4103,5.4103,5.4103,5.406,5.3974,5.3552,5.3377,5.329,5.1926,5.1156,5.1109,5.0353,4.9727,4.919,4.8296,4.7232,4.6297,4.6543,4.6089,4.5446,4.6262,4.6044,4.5587,4.5924,4.6264,4.6107,4.5794,4.5741,4.5767,4.582,4.5738,4.5653,4.5696,4.5209,4.4466,4.4001,4.3672,4.3321,4.27,4.2403,4.1971,4.1647,4.1488,4.1057,4.0689,4.0927,4.1263,4.1223,4.049,3.9666,3.9606,3.9238,3.8089,3.834,3.835,3.8503,3.8212,3.7898,3.8316,3.8109,3.7901,3.801,3.7738,3.7513,3.7184,3.7084,3.6867,3.6777,3.723,3.7535,3.7602,3.8283,3.8557,3.749,3.7878,3.7718,3.7806,3.7548,3.7302,3.6463,3.6791,3.6513,3.601,3.5731,3.5931,3.5961,3.6119,3.6475,3.6322,3.615,3.5287,3.479,3.407,3.4553,3.6368,3.7145,3.7587,3.7775,3.7222,3.7389,3.7991,3.8501,3.907,3.9051,3.8452,3.9009,3.9606,3.9605,3.968,5.4103,5.4103,5.4103,5.4103,5.4103,5.4103,5.4103,5.4103,5.4103,5.4017,5.3801,5.354,5.3321,5.3055,5.1697,5.1109,5.078,4.9844,4.919,4.8223,4.7312,4.648,4.5875,4.6089,4.5822,4.5393,4.5418,4.536,4.5195,4.5689,4.5846,4.5924,4.6238,4.629,4.6342,4.6495,4.6538,4.6078,4.6071,4.5102,4.3754,4.313,4.2591,4.1962,4.12,4.0784,4.0428,3.9648,3.9014,3.9105,3.9758,4.0228,4.021,3.9563,3.8931,3.8756,3.8642,3.8507,3.8154,3.815,3.8212,3.8295,3.8409,3.8574,3.8662,3.861,3.8547,3.856,3.8136,3.7371,3.666,3.6975,3.6412,3.5665,3.5678,3.5668,3.5246,3.6727,3.776,3.7578,3.6425,3.5857,3.7319,3.6175,3.5845,3.5709,3.5627,3.5413,3.5102,3.4662,3.4773,3.5085,3.4993,3.5212,3.4994,3.4686,3.4014,3.3353,3.2747,3.2384,3.4238,3.525,3.5308,3.5334,3.5292,3.5887,3.6968,3.6737,3.7012,3.6973,3.7134,3.7467,3.7977,3.8443,3.8855,5.4103,5.4103,5.4103,5.4103,5.4103,5.4103,5.4103,5.4103,5.4103,5.3974,5.3789,5.3496,5.3024,5.2276,5.1016,5.0162,4.9455,4.8596,4.7847,4.726,4.6717,4.6192,4.5715,4.5688,4.5555,4.5099,4.5306,4.5354,4.5692,4.6081,4.6656,4.6734,4.663,4.663,4.6626,4.6564,4.6191,4.5794,4.5193,4.416,4.2988,4.1888,4.1103,4.0417,3.9922,3.9693,3.9233,3.8702,3.8325,3.837,3.888,3.9254,3.9188,3.8636,3.8258,3.8191,3.8191,3.8316,3.8419,3.8502,3.8605,3.8792,3.8924,3.8986,3.9,3.893,3.8734,3.8447,3.7614,3.6499,3.524,3.4933,3.4523,3.4358,3.4244,3.4084,3.4064,3.5056,3.5889,3.5777,3.4613,3.4613,3.4722,3.454,3.4501,3.446,3.4531,3.4373,3.4465,3.4092,3.396,3.4,3.3759,3.3667,3.35,3.3025,3.2309,3.1684,3.1102,3.0743,3.1286,3.2036,3.2573,3.3253,3.4172,3.5087,3.5922,3.5532,3.5366,3.6029,3.6275,3.6121,3.6218,3.6887,3.7108,5.4103,5.4103,5.4103,5.4103,5.4103,5.4103,5.4103,5.4103,5.4103,5.3931,5.3627,5.3334,5.2426,5.1343,4.9969,4.8795,4.7819,4.7157,4.6717,4.6665,4.6455,4.6086,4.5715,4.5502,4.5287,4.48,4.5114,4.5584,4.6055,4.6865,4.7022,4.7597,4.7257,4.6814,4.6726,4.5979,4.5209,4.4911,4.3649,4.2532,4.1603,4.0375,3.9405,3.8864,3.898,3.8935,3.8507,3.8258,3.8191,3.8191,3.8191,3.8191,3.8191,3.8191,3.8191,3.8191,3.8191,3.8378,3.8621,3.8745,3.8931,3.9426,3.9343,3.9363,3.9453,3.9138,3.8658,3.7708,3.6732,3.5047,3.3317,3.3344,3.3071,3.2764,3.2774,3.2901,3.2894,3.2977,3.2961,3.3598,3.3226,3.3049,3.3266,3.326,3.3218,3.3196,3.3247,3.3205,3.3222,3.2977,3.2489,3.2168,3.1815,3.1646,3.1478,3.1538,3.0772,3.0543,2.9854,2.9681,2.952,3.0215,3.126,3.2601,3.3572,3.412,3.4272,3.3904,3.4197,3.517,3.4944,3.405,3.4457,3.5268,3.5187,5.4103,5.4103,5.4103,5.4103,5.4103,5.4103,5.4134,5.4103,5.4166,5.3844,5.3377,5.2516,5.1804,5.0751,4.9092,4.7796,4.7029,4.6587,4.6535,4.6455,4.6245,4.5928,4.5662,4.5395,4.5072,4.4802,4.485,4.5062,4.5454,4.6055,4.6891,4.6996,4.7466,4.7367,4.6307,4.5535,4.4452,4.3216,4.205,4.0921,3.9869,3.8975,3.8345,3.7887,3.8306,3.8357,3.8329,3.8191,3.8191,3.8191,3.8191,3.8191,3.8191,3.8191,3.8191,3.8191,3.8253,3.846,3.8765,3.8869,3.9055,3.9426,3.977,3.9956,3.9968,3.9516,3.8413,3.6859,3.5336,3.3753,3.3237,3.2725,3.2401,3.1815,3.1289,3.1159,3.0315,3.0253,3.1069,3.2373,3.1982,3.1507,3.1723,3.1772,3.1642,3.1618,3.1683,3.1239,3.0793,3.0485,3.0098,2.9789,2.9479,2.9479,2.9386,2.9541,2.9434,2.9559,2.9308,2.9412,2.9247,2.9345,3.0216,3.1366,3.1771,3.1741,3.189,3.2155,3.233,3.2823,3.2345,3.1865,3.2443,3.3085,3.2592,5.4103,5.4103,5.4103,5.4292,5.4609,5.464,5.464,5.4597,5.451,5.4072,5.3219,5.2169,5.1126,5.0084,4.8745,4.7438,4.6744,4.6535,4.6535,4.6403,4.6192,4.5848,4.5582,4.5341,4.5018,4.4802,4.4694,4.5088,4.5611,4.6186,4.6891,4.7675,4.7911,4.7144,4.6045,4.4992,4.3651,4.1938,4.0614,3.9623,3.8731,3.8078,3.7653,3.7707,3.7922,3.815,3.8191,3.8191,3.8191,3.8191,3.8191,3.8191,3.8191,3.8212,3.8212,3.8253,3.8398,3.873,3.9117,3.9323,3.9806,4.0179,4.0236,4.0268,3.9882,3.9049,3.7289,3.4975,3.3658,3.2032,3.0956,3.1236,3.0684,3.01,3.0022,2.9711,2.9197,2.8964,2.9959,3.1239,3.0607,3.0161,3.0361,3.0315,2.9992,2.996,3.0098,2.9649,2.8964,2.8886,2.8886,2.8886,2.8964,2.8964,2.8886,2.8886,2.8886,2.8886,2.8837,2.8924,2.8968,2.8992,2.9245,2.9992,2.9947,3.0063,3.0557,3.1138,3.0875,3.069,3.0856,3.0939,3.0719,3.0651,3.0484,5.4103,5.4103,5.4261,5.4609,5.507,5.526,5.5323,5.5291,5.5115,5.4434,5.3369,5.2136,5.0862,4.9585,4.8455,4.7402,4.6671,4.6643,4.6482,4.6297,4.6034,4.5742,4.5502,4.5234,4.4964,4.4748,4.4929,4.5375,4.595,4.6369,4.7336,4.7794,4.7502,4.6577,4.5538,4.3783,4.2546,4.0819,3.95,3.8483,3.8295,3.7928,3.7632,3.7632,3.7984,3.8191,3.8191,3.8191,3.8191,3.8212,3.8274,3.8336,3.8336,3.8398,3.846,3.8502,3.873,3.9034,3.962,3.993,4.0261,4.0675,4.0105,3.9838,3.9004,3.727,3.49,3.2353,3.1085,3.05,2.9526,2.9042,2.9042,2.9027,2.9027,2.8886,2.8964,2.8886,2.8886,2.9353,2.8886,2.9119,2.9556,2.9556,2.9449,2.9371,2.9508,2.9431,2.8886,2.8886,2.8886,2.8886,2.8886,2.8886,2.8886,2.8886,2.8886,2.8886,2.8744,2.871,2.8631,2.8631,2.8805,2.8964,2.8986,2.9166,2.9726,3.0112,3.0064,3.0015,3.0007,3.001,3.0038,2.99,2.9649,5.4103,5.4166,5.4735,5.5051,5.5228,5.5809,5.6062,5.6018,5.5763,5.493,5.36,5.2288,5.0969,4.9582,4.8147,4.7482,4.716,4.6781,4.6458,4.6247,4.5848,4.5555,4.5234,4.4884,4.4802,4.4772,4.5245,4.5532,4.5976,4.6369,4.6834,4.7334,4.6807,4.5476,4.3874,4.256,4.027,3.8485,3.7882,3.7731,3.7793,3.7971,3.8092,3.8088,3.8129,3.8191,3.8191,3.8191,3.8212,3.8274,3.8585,3.8683,3.8765,3.9185,3.933,3.9268,3.9117,3.9158,3.9951,4.0241,4.0144,4.0208,3.9241,3.8423,3.7014,3.4975,3.2581,3.1622,3.0191,2.9353,2.9042,2.8886,2.8886,2.893,2.8959,2.8973,2.8959,2.9017,2.9003,2.8944,2.8959,2.8915,2.9119,2.9042,2.8964,2.8886,2.8886,2.8886,2.8886,2.8886,2.8822,2.8744,2.8808,2.8808,2.8588,2.8666,2.8651,2.873,2.8588,2.8353,2.8275,2.8182,2.7947,2.801,2.8081,2.8315,2.8816,2.9167,2.9257,2.936,2.9365,2.9466,2.9537,2.93,2.8894,5.4324,5.4703,5.4976,5.5576,5.627,5.6663,5.6667,5.6486,5.6304,5.5194,5.3579,5.22,5.0629,4.9081,4.8083,4.7866,4.7731,4.7242,4.6811,4.6383,4.5902,4.5448,4.518,4.4884,4.4748,4.4877,4.5323,4.582,4.6133,4.6595,4.7048,4.6951,4.6371,4.4951,4.2685,4.1678,4.004,3.8627,3.7881,3.7881,3.7943,3.8067,3.8191,3.8191,3.8191,3.8191,3.8212,3.8191,3.8336,3.8502,3.8724,3.891,3.9137,3.9385,3.955,3.984,3.9695,3.9778,4.0179,4.0377,4.0065,3.9233,3.8039,3.6626,3.4619,3.275,3.1008,2.9959,2.9353,2.8964,2.8886,2.8886,2.9017,2.9076,2.909,2.9222,2.9222,2.9178,2.9178,2.909,2.9003,2.8944,2.8886,2.8886,2.8886,2.8886,2.8886,2.8886,2.8886,2.8886,2.8744,2.851,2.8588,2.8744,2.8431,2.8275,2.8182,2.8182,2.8026,2.7869,2.7869,2.7712,2.7398,2.7398,2.7703,2.7871,2.8002,2.8316,2.8579,2.8655,2.8757,2.8827,2.8827,2.8783,2.846,5.4609,5.5323,5.5355,5.6094,5.7231,5.7421,5.7347,5.704,5.6497,5.5241,5.3486,5.1866,5.0116,4.8927,4.8572,4.8408,4.8354,4.7839,4.7271,4.6733,4.6196,4.566,4.5362,4.5064,4.4955,4.4929,4.5637,4.6055,4.6386,4.6622,4.6593,4.6717,4.5721,4.4084,4.2225,4.0822,3.9518,3.8395,3.8129,3.8129,3.815,3.8171,3.8191,3.8191,3.8191,3.8233,3.8336,3.8357,3.8585,3.8869,3.8972,3.9158,3.9385,3.9612,3.9798,4.0158,4.0199,3.9971,3.9922,3.9708,3.9365,3.8278,3.6331,3.4469,3.1775,3.0809,3.0423,2.9119,2.9042,2.8886,2.8886,2.8886,2.8973,2.9134,2.9266,2.9456,2.9573,2.9427,2.9222,2.9032,2.8959,2.893,2.8886,2.8886,2.8886,2.8886,2.8886,2.8886,2.8886,2.8822,2.8588,2.8353,2.8104,2.8261,2.8118,2.7883,2.7805,2.7712,2.7555,2.7476,2.749,2.7162,2.6768,2.6925,2.6991,2.5858,2.5042,2.6507,2.7922,2.785,2.7853,2.8085,2.8124,2.8103,2.8207,5.4893,5.6125,5.6094,5.6536,5.7295,5.7927,5.8041,5.7543,5.6419,5.505,5.3325,5.1343,5.0103,4.9684,4.9277,4.9005,4.8978,4.8381,4.7649,4.6946,4.6434,4.6107,4.5779,4.5558,4.5529,4.5607,4.6133,4.6421,4.6347,4.6057,4.5892,4.5583,4.4436,4.273,4.1077,3.9691,3.8991,3.8237,3.8191,3.8191,3.8191,3.8191,3.8191,3.8191,3.8233,3.8357,3.8771,3.8724,3.8951,3.9385,3.9344,3.9558,3.9765,3.9951,4.0088,3.9971,4.0146,3.9656,3.8925,3.88,3.8549,3.7381,3.5142,3.2233,3.0284,2.9431,2.8964,2.8964,2.8886,2.8886,2.8886,2.89,2.8959,2.9208,2.9427,2.9573,2.9632,2.9529,2.931,2.9032,2.8915,2.89,2.8886,2.8886,2.8886,2.8886,2.8886,2.8886,2.8666,2.8588,2.8353,2.804,2.7633,2.7633,2.7633,2.7398,2.6991,2.7083,2.7175,2.7097,2.7018,2.6623,2.6373,2.5568,2.5238,2.3632,2.2854,2.4869,2.6306,2.6707,2.7055,2.7418,2.7823,2.7953,2.8114,5.4925,5.6157,5.6189,5.6821,5.7895,5.8148,5.8058,5.7495,5.6317,5.4514,5.243,5.0795,5.001,4.9928,4.9847,4.9657,4.9576,4.9005,4.8267,4.7722,4.7232,4.6742,4.6327,4.6159,4.6159,4.6264,4.6652,4.6455,4.5813,4.5581,4.4257,4.3473,4.2643,4.1267,3.9757,3.888,3.8437,3.8237,3.8191,3.8191,3.8191,3.8191,3.8191,3.8191,3.8523,3.8647,3.8807,3.9075,3.9447,3.9765,3.9612,3.9847,4.0096,4.0241,3.99,3.9423,3.9593,3.8694,3.7693,3.7693,3.7547,3.4843,3.2462,3.0376,2.9598,2.9149,2.8978,2.8886,2.8915,2.893,2.89,2.8915,2.9017,2.9354,2.9573,2.9705,2.9676,2.9588,2.9456,2.9193,2.9003,2.8886,2.8886,2.8886,2.8886,2.8886,2.8886,2.873,2.8104,2.7869,2.7476,2.6754,2.6188,2.6188,2.6201,2.6109,2.5951,2.6122,2.6373,2.6136,2.5898,2.6544,2.6136,2.5012,2.3804,2.2912,2.2878,2.3961,2.4678,2.4932,2.5915,2.7094,2.7415,2.7416,2.7478,5.4925,5.6125,5.6189,5.6979,5.818,5.8228,5.7918,5.7322,5.625,5.4237,5.162,5.0517,5.001,5.001,4.9983,4.9983,4.9818,4.9464,4.8857,4.8281,4.7681,4.7212,4.6904,4.6734,4.6734,4.6839,4.6934,4.6708,4.5523,4.5271,4.3678,4.1983,4.0817,3.9757,3.8991,3.837,3.8191,3.8191,3.8191,3.8191,3.8191,3.8336,3.8398,3.8481,3.8833,3.9117,3.9282,3.9571,3.9972,4.0116,4.0137,4.0116,4.0323,4.0327,3.979,3.9218,3.851,3.7674,3.6811,3.622,3.5754,3.3026,3.1383,3.0139,2.9714,2.9414,2.9281,2.9237,2.9149,2.9032,2.9003,2.9003,2.8988,2.9237,2.9661,2.9807,2.972,2.9632,2.9529,2.9369,2.9149,2.8808,2.8104,2.7855,2.7213,2.7605,2.8417,2.7449,2.5767,2.57,2.5872,2.5066,2.4191,2.435,2.4602,2.4111,2.362,2.37,2.3952,2.4203,2.4363,2.5012,2.4442,2.2258,2.1534,2.2017,2.1853,2.1302,2.2081,2.297,2.4106,2.5213,2.4989,2.495,2.5849,5.4893,5.6125,5.6189,5.6979,5.8211,5.8011,5.7778,5.7306,5.5907,5.398,5.1702,5.0544,5.001,5.001,5.001,5.001,4.9953,4.9646,4.9147,4.8462,4.8073,4.7652,4.7424,4.731,4.731,4.7252,4.7068,4.6455,4.5295,4.3917,4.2358,4.1005,3.9757,3.888,3.8237,3.8191,3.8191,3.8191,3.8191,3.8191,3.8253,3.8543,3.8641,3.8765,3.9179,3.9592,3.9819,4.0096,4.0386,4.0572,4.0323,4.0261,4.0365,4.0021,3.9718,3.9516,3.8577,3.7381,3.609,3.4747,3.3229,3.1902,3.0869,3.0487,3.036,3.0114,2.9676,2.95,2.9427,2.9339,2.9237,2.909,2.9032,2.931,2.9844,2.9976,2.9822,2.972,2.9632,2.9174,2.8884,2.8573,2.7541,2.6675,2.5608,2.5859,2.7305,2.6504,2.4087,2.3768,2.4099,2.338,2.2499,2.2499,2.251,2.1786,2.1372,2.1372,2.1856,2.243,2.251,2.2671,2.1453,1.9511,1.9846,2.0909,1.9457,1.7835,1.9154,2.059,2.1769,2.2613,2.2367,2.2749,2.3804,5.4925,5.6189,5.6189,5.6888,5.7948,5.7949,5.7731,5.7132,5.513,5.3174,5.1757,5.0488,5.001,5.001,5.001,5.001,4.9953,4.9727,4.9227,4.8859,4.8435,4.82,4.8,4.7832,4.7858,4.7652,4.7159,4.5959,4.4537,4.2941,4.1298,3.9866,3.8991,3.8437,3.8258,3.8191,3.8191,3.8191,3.8191,3.8191,3.8233,3.8605,3.8807,3.8848,3.9488,4.0075,4.017,4.0427,4.0696,4.082,4.0489,4.0336,4.0115,3.9719,3.8386,3.7532,3.6275,3.4626,3.3202,3.2039,3.1793,3.1416,3.1158,3.082,3.0525,3.0108,2.9844,2.9632,2.9529,2.9427,2.931,2.9076,2.9105,2.9749,3.0196,3.0152,2.9998,2.9881,2.9654,2.8841,2.8368,2.6215,2.4815,2.4099,2.3208,2.2476,2.3448,2.386,2.2166,2.2166,2.2499,2.1614,2.0888,2.0807,2.0494,1.9846,2.0008,2.0413,2.0899,2.1545,2.1383,2.0656,2.0008,1.8789,1.9287,1.9642,1.8183,1.7086,1.733,1.8289,1.9648,2.0765,2.1077,2.1494,2.231,5.5493,5.6536,5.6821,5.7253,5.7855,5.7825,5.759,5.6906,5.4811,5.3193,5.2164,5.074,5.001,5.001,5.001,4.9897,4.984,4.9556,4.9297,4.8952,4.8637,4.8379,4.8204,4.8172,4.8094,4.7821,4.6824,4.5512,4.4031,4.2328,4.0646,3.9188,3.8437,3.8258,3.8191,3.8191,3.8191,3.8191,3.8191,3.8191,3.8357,3.8667,3.8951,3.9137,3.9654,4.0406,4.0406,4.0593,4.0882,4.0779,4.0625,4.0288,3.9728,3.8846,3.7261,3.598,3.4296,3.2802,3.17,3.1211,3.1364,3.1553,3.133,3.1007,3.0617,3.0307,3.0079,2.9822,2.9617,2.9486,2.9398,2.9134,2.9412,3.0137,3.0269,3.0144,3.0056,2.9925,2.9815,2.8905,2.6973,2.4566,2.1925,2.12,2.0473,1.9826,1.9349,1.9755,2.0322,2.0484,2.0484,1.9602,1.8952,1.8717,1.8472,1.8064,1.8391,1.9277,1.9602,1.9927,1.9287,1.8391,1.8228,1.8064,1.8001,1.7845,1.7187,1.6672,1.6941,1.734,1.8049,1.8987,1.9696,1.9992,2.0169,5.6568,5.7231,5.7927,5.8041,5.7871,5.7652,5.7273,5.6677,5.502,5.3907,5.3203,5.0906,5.001,5.001,4.9953,4.984,4.9556,4.9297,4.901,4.8721,4.8431,4.823,4.8172,4.8172,4.8114,4.7703,4.6585,4.4841,4.3606,4.1588,3.9823,3.8681,3.8325,3.8191,3.8191,3.8191,3.8191,3.8191,3.8191,3.8233,3.844,3.9019,3.9179,3.9447,4.0096,4.0489,4.0572,4.0604,4.0841,4.0862,4.077,3.9818,3.9076,3.8423,3.7068,3.5366,3.3129,3.1946,3.1271,3.0995,3.1103,3.1317,3.1138,3.0913,3.0748,3.0548,3.0305,3.0115,3.0005,2.9705,2.9515,2.9559,2.9632,2.9954,3.0159,3.0129,3.0137,3.0012,2.9879,2.8663,2.6464,2.3722,2.0201,1.8789,1.8626,1.7983,1.7501,1.7501,1.7983,1.8463,1.8228,1.7419,1.6854,1.6451,1.6369,1.6772,1.6936,1.7828,1.7346,1.7346,1.6698,1.6698,1.6854,1.6854,1.6386,1.617,1.6357,1.6507,1.6733,1.7017,1.7287,1.7074,1.7782,1.7154,1.712,5.6315,5.6568,5.705,5.7385,5.7621,5.7659,5.7369,5.658,5.4635,5.353,5.3256,5.1017,5.001,5.001,4.9783,4.967,4.9385,4.9125,4.8837,4.8606,4.8373,4.823,4.8172,4.8172,4.8055,4.7121,4.5778,4.4165,4.2918,4.0946,3.932,3.8304,3.8191,3.8191,3.8191,3.8191,3.8191,3.8191,3.8191,3.8357,3.8647,3.9137,3.9385,3.9909,4.0315,4.0604,4.0646,4.0473,4.0596,4.0811,4.0289,3.9405,3.8278,3.6719,3.4843,3.2004,3.0794,3.0341,3.0615,3.0445,3.0521,3.0928,3.0919,3.0895,3.0773,3.0642,3.0495,3.0246,3.0123,2.9807,2.9734,2.9793,2.9954,3.0188,3.0334,3.0305,3.0246,2.9838,2.951,2.6898,2.4723,2.1932,1.8411,1.7255,1.7091,1.6369,1.5966,1.5966,1.6122,1.6772,1.6927,1.6205,1.5966,1.5966,1.5966,1.6287,1.6205,1.6122,1.5966,1.5966,1.6122,1.6205,1.6048,1.5998,1.6146,1.6219,1.6316,1.6491,1.6695,1.6537,1.6636,1.6129,1.5575,1.5408,1.5118,5.701,5.7105,5.7461,5.7715,5.771,5.7479,5.7179,5.6452,5.4665,5.3675,5.315,5.0962,5.001,4.9953,4.9727,4.9526,4.9354,4.8952,4.8663,4.8431,4.8315,4.823,4.8172,4.8055,4.788,4.6764,4.5208,4.3482,4.2287,4.0192,3.837,3.8258,3.8191,3.8191,3.8191,3.8191,3.8191,3.8191,3.8253,3.846,3.8854,3.922,3.9612,3.9964,4.046,4.0544,4.0411,4.0187,4.0218,4.0361,3.9786,3.8661,3.6793,3.4261,3.2538,3.0159,2.9859,2.9803,3.0017,3.0049,3.0152,3.0364,3.0583,3.0525,3.0437,3.0305,3.0232,3.01,2.9968,2.9866,2.991,2.9998,3.0276,3.0554,3.0554,3.0539,3.0209,2.9781,2.7655,2.4829,2.2262,1.9659,1.7613,1.6609,1.5966,1.5966,1.5966,1.5966,1.5966,1.6205,1.6451,1.6048,1.5966,1.5966,1.5966,1.5966,1.5966,1.5966,1.5966,1.5966,1.5966,1.5966,1.5966,1.6146,1.6259,1.6332,1.6405,1.6633,1.6766,1.6537,1.627,1.5861,1.5399,1.5015,1.4678,5.8211,5.8133,5.8578,5.8306,5.7983,5.7184,5.684,5.658,5.496,5.3936,5.3049,5.1017,4.9953,4.984,4.964,4.9328,4.9068,4.8721,4.8489,4.8198,4.823,4.8172,4.8114,4.788,4.7677,4.6704,4.5147,4.3208,4.182,4.0127,3.8681,3.8258,3.8191,3.8191,3.8191,3.8191,3.8191,3.8191,3.8233,3.8398,3.8854,3.9179,3.9509,3.9667,3.995,4.0167,3.9821,3.9667,3.9642,3.9714,3.9188,3.8005,3.5011,3.1852,3.0129,2.9568,2.9326,2.9498,2.9674,2.9771,2.9976,3.0086,3.0188,3.0305,3.0334,3.0232,3.0173,2.9983,2.9837,2.9866,2.9925,2.9939,3.0144,3.0378,3.0481,3.0568,3.0505,2.9174,2.646,2.3781,2.1202,1.8699,1.7342,1.6328,1.5966,1.5966,1.5966,1.5966,1.5966,1.5966,1.5966,1.5966,1.5966,1.5966,1.5966,1.5966,1.5966,1.5966,1.5966,1.5966,1.5966,1.5966,1.5966,1.6121,1.6211,1.6414,1.6552,1.6698,1.675,1.6617,1.6348,1.5802,1.5292,1.4801,1.4435,5.7835,5.7195,5.7433,5.7363,5.7122,5.6902,5.681,5.6616,5.4546,5.3611,5.302,5.1127,4.9897,4.967,4.9385,4.9068,4.8779,4.8548,4.8315,4.8257,4.8172,4.8172,4.8114,4.7821,4.756,4.6764,4.5208,4.3083,4.1203,3.9953,3.9144,3.8325,3.8191,3.8191,3.8191,3.8191,3.8191,3.8191,3.8145,3.8311,3.8703,3.9131,3.9543,3.9684,3.9963,3.9973,3.9677,3.9418,3.9498,3.957,3.9083,3.7125,3.4128,3.087,2.9275,2.9071,2.911,2.9404,2.9544,2.969,2.9895,3.0261,3.0451,3.0495,3.0466,3.032,3.0129,2.9881,2.9764,2.9837,2.9895,2.991,2.9998,3.0217,3.0393,3.05,3.069,2.809,2.5408,2.2905,2.0406,1.8671,1.7227,1.6444,1.6089,1.5966,1.5966,1.5966,1.5966,1.5966,1.5966,1.5966,1.5966,1.5966,1.5966,1.5966,1.5966,1.5966,1.5966,1.5966,1.5966,1.5998,1.6022,1.599,1.6137,1.6332,1.6487,1.6576,1.6559,1.657,1.6253,1.5726,1.5196,1.4722,1.4342,5.7883,5.7323,5.7119,5.6971,5.681,5.681,5.681,5.6439,5.4938,5.3883,5.3097,5.1017,4.9727,4.9499,4.9125,4.8837,4.8606,4.8373,4.823,4.8172,4.8172,4.8172,4.7997,4.7762,4.7442,4.6764,4.5208,4.3146,4.071,4.0084,3.9517,3.8437,3.8191,3.8191,3.8191,3.8191,3.8191,3.8191,3.8037,3.8135,3.8424,3.8815,3.9247,3.94,3.9506,3.9535,3.9318,3.8945,3.8627,3.7932,3.6904,3.5923,3.3583,3.1469,2.9804,2.9223,2.9178,2.9412,2.9603,2.9793,2.9939,3.029,3.0481,3.0422,2.9998,2.9851,3.0012,2.9793,2.9573,2.9588,2.969,2.972,3.0012,3.0276,3.02,3.0248,2.9244,2.7175,2.4793,2.2598,2.0298,1.8445,1.7305,1.6684,1.6336,1.5966,1.5966,1.5966,1.5966,1.5966,1.5966,1.5966,1.5966,1.5966,1.5966,1.5966,1.5966,1.5966,1.5966,1.5966,1.5974,1.6038,1.6162,1.6097,1.6113,1.6259,1.6389,1.647,1.6568,1.6644,1.6231,1.5683,1.5071,1.4557,1.4209,5.8058,5.7731,5.7227,5.6971,5.681,5.681,5.681,5.6585,5.5571,5.4501,5.3361,5.0962,4.984,4.9328,4.901,4.8779,4.8548,4.8289,4.8172,4.8172,4.8172,4.8172,4.7938,4.756,4.7265,4.667,4.544,4.3169,4.0775,4.0581,4.0084,3.8636,3.8191,3.8191,3.8191,3.8191,3.8191,3.8125,3.7971,3.777,3.7954,3.8247,3.8562,3.8804,3.8929,3.8817,3.8569,3.8281,3.7693,3.6608,3.5402,3.4336,3.3146,3.1545,3.0191,2.9301,2.9339,2.95,2.9647,2.9925,3.0042,3.0173,3.0261,3.01,2.9705,2.9632,2.9778,2.969,2.9456,2.9412,2.95,2.9603,2.9925,3.029,3.0103,2.9639,2.8036,2.6377,2.4295,2.215,2.0102,1.8229,1.749,1.6942,1.6518,1.6139,1.5966,1.5966,1.5966,1.5966,1.5966,1.5966,1.5966,1.5966,1.5966,1.5966,1.5966,1.5966,1.5966,1.5966,1.5974,1.6097,1.6113,1.6006,1.6137,1.6227,1.6292,1.6357,1.6462,1.6499,1.5949,1.5346,1.4876,1.4365,1.4042,5.7684,5.7258,5.6971,5.6858,5.681,5.681,5.681,5.6616,5.562,5.4836,5.3779,5.1783,5.0125,4.9183,4.8837,4.8606,4.8373,4.823,4.8172,4.8172,4.8172,4.8172,4.7938,4.7468,4.6934,4.6396,4.5732,4.4251,4.1843,4.146,4.0516,3.8391,3.8191,3.8191,3.8191,3.8191,3.8191,3.8125,3.7971,3.777,3.7604,3.7712,3.7722,3.7957,3.8246,3.822,3.8262,3.8432,3.837,3.7364,3.5551,3.4319,3.3095,3.1759,3.0191,2.9505,2.9641,2.9573,2.9749,2.9954,3.0152,3.0407,3.0422,3.0196,2.9778,2.9559,2.9603,2.9486,2.9325,2.9339,2.9398,2.9383,2.9617,3.0129,3.0214,2.9019,2.7569,2.5703,2.3672,2.1369,1.9193,1.79,1.7195,1.6693,1.632,1.6048,1.5966,1.5966,1.5966,1.5966,1.5966,1.5966,1.5966,1.5966,1.5966,1.5966,1.5966,1.5966,1.5966,1.5966,1.5966,1.6048,1.6056,1.5974,1.6014,1.6087,1.6219,1.6157,1.6061,1.5994,1.5478,1.5011,1.4554,1.4182,1.3776]}]]